[[{"header":{"parameterUnit":"m.s-1","parameterCategory":1,"la1":30.6,"la2":29.2853,"lo1":-89.7004,"lo2":-87.6739,"dy":0.0162,"dx":0.0183,"nx":112,"ny":82,"refTime":"2023-07-10T12:00:00:Z","depth":0,"parameterNumber":2,"parameterNumberName":"U-component_of_WINDS"},"data":[0.0,0.0,0.0,0.0,0.0,0.0,0.0,0.0,0.0,0.0,0.0,0.0,0.0,0.0,0.0,0.0,0.0,0.0,0.0,0.0,0.0,0.0,0.0,0.0,0.0,0.0,0.0,0.0,0.0,0.0,0.0,0.0,0.0,0.0,0.0,0.0,0.0,0.0,0.0,0.0,0.0,0.0,0.0,0.0,0.0,0.0,0.0,0.0,0.0,0.0,0.0,0.0,0.0,0.0,0.0,0.0,0.0,0.0,0.0,0.0,0.0,0.0,0.0,0.0,0.0,0.0,0.0,0.0,0.0,0.0,0.0,0.0,0.0,0.0,0.0,0.0,0.0,0.0,0.0,0.0,0.0,0.0,0.0,0.0,0.0,0.0,0.0,0.0,0.0,0.0,0.0,-1.4136,-1.6453,-1.7926,-1.7926,-1.7413,-1.6249,-1.4307,0.0,0.0,0.0,0.0,0.0,0.0,0.0,0.0,0.0,0.0,0.0,0.0,0.0,0.0,0.0,0.0,0.0,0.0,0.0,0.0,0.0,0.0,0.0,0.0,0.0,0.0,0.0,0.0,0.0,0.0,0.0,0.0,0.0,0.0,0.0,0.0,0.0,0.0,0.0,0.0,0.0,0.0,0.0,0.0,0.0,0.0,0.0,0.0,0.0,0.0,0.0,0.0,0.0,0.0,0.0,0.0,0.0,0.0,0.0,0.0,0.0,0.0,0.0,0.0,0.0,0.0,0.0,0.0,0.0,0.0,0.0,0.0,0.0,0.0,0.0,0.0,0.0,0.0,0.0,0.0,0.0,0.0,0.0,0.0,0.0,0.0,0.0,0.0,0.0,0.0,0.0,0.0,0.0,0.0,0.0,0.0,0.0,0.0,0.0,0.0,0.0,0.0,0.0,0.0,-1.3408,-1.5039,-1.6579,-1.7471,-1.7471,-1.6365,-1.5379,-1.4727,0.0,0.0,0.0,0.0,0.0,0.0,0.0,0.0,0.0,0.0,0.0,0.0,0.0,0.0,0.0,0.0,0.0,0.0,0.0,0.0,0.0,0.0,0.0,0.0,0.0,0.0,0.0,0.0,0.0,0.0,0.0,0.0,0.0,0.0,0.0,0.0,0.0,0.0,0.0,0.0,0.0,0.0,0.0,0.0,0.0,0.0,0.0,0.0,0.0,0.0,0.0,0.0,0.0,0.0,0.0,0.0,0.0,0.0,0.0,0.0,0.0,0.0,0.0,0.0,0.0,0.0,0.0,0.0,0.0,0.0,0.0,0.0,0.0,0.0,0.0,0.0,0.0,0.0,0.0,0.0,0.0,0.0,0.0,0.0,0.0,0.0,0.0,0.0,0.0,0.0,0.0,0.0,0.0,0.0,0.0,0.0,0.0,0.0,0.0,0.0,0.0,0.0,0.0,-1.3623,-1.4297,-1.5303,-1.6377,-1.6934,-1.6689,-1.5469,-1.4639,-1.4443,-1.4079,0.0,0.0,0.0,0.0,0.0,0.0,0.0,0.0,0.0,0.0,0.0,0.0,0.0,0.0,0.0,0.0,0.0,0.0,0.0,0.0,0.0,0.0,0.0,0.0,0.0,0.0,0.0,0.0,0.0,0.0,0.0,0.0,0.0,0.0,0.0,0.0,0.0,0.0,0.0,0.0,0.0,0.0,0.0,0.0,0.0,0.0,0.0,0.0,0.0,0.0,0.0,0.0,0.0,0.0,0.0,0.0,0.0,0.0,0.0,0.0,0.0,0.0,0.0,0.0,0.0,0.0,0.0,0.0,0.0,0.0,0.0,0.0,0.0,0.0,0.0,0.0,0.0,0.0,0.0,0.0,0.0,0.0,0.0,0.0,0.0,0.0,0.0,0.0,0.0,0.0,0.0,0.0,0.0,0.0,0.0,0.0,0.0,0.0,0.0,0.0,0.0,0.0,-1.4258,-1.499,-1.5508,-1.6269,-1.6592,-1.625,-1.5044,-1.4237,-1.4141,-1.3342,0.0,0.0,0.0,0.0,0.0,0.0,0.0,0.0,0.0,0.0,0.0,0.0,0.0,0.0,0.0,0.0,0.0,0.0,0.0,0.0,0.0,0.0,0.0,0.0,0.0,0.0,0.0,0.0,0.0,0.0,0.0,0.0,0.0,0.0,0.0,0.0,0.0,0.0,0.0,0.0,0.0,0.0,0.0,0.0,0.0,0.0,0.0,0.0,0.0,0.0,0.0,0.0,0.0,0.0,0.0,0.0,0.0,0.0,0.0,0.0,0.0,0.0,0.0,0.0,0.0,0.0,0.0,0.0,0.0,0.0,0.0,0.0,0.0,0.0,0.0,0.0,0.0,0.0,0.0,0.0,0.0,0.0,0.0,0.0,0.0,0.0,0.0,0.0,0.0,0.0,0.0,0.0,0.0,0.0,0.0,0.0,0.0,0.0,0.0,0.0,0.0,0.0,-1.4258,-1.5107,-1.5988,-1.6445,-1.6719,-1.6689,-1.5562,-1.4609,-1.4131,-1.3415,0.0,0.0,0.0,0.0,0.0,0.0,0.0,0.0,0.0,0.0,0.0,0.0,0.0,0.0,0.0,0.0,0.0,0.0,0.0,0.0,0.0,0.0,0.0,0.0,0.0,0.0,0.0,0.0,0.0,0.0,0.0,0.0,0.0,0.0,0.0,0.0,0.0,0.0,0.0,0.0,0.0,0.0,0.0,0.0,0.0,0.0,0.0,0.0,0.0,0.0,0.0,0.0,0.0,0.0,0.0,0.0,0.0,0.0,0.0,0.0,0.0,0.0,0.0,0.0,0.0,0.0,0.0,0.0,0.0,0.0,0.0,0.0,0.0,0.0,0.0,0.0,0.0,0.0,0.0,0.0,0.0,0.0,0.0,0.0,0.0,0.0,0.0,0.0,0.0,0.0,0.0,0.0,0.0,0.0,0.0,0.0,0.0,0.0,0.0,0.0,0.0,0.0,-1.4648,-1.54,0.0,-1.6465,-1.6621,-1.6338,-1.5533,-1.4767,-1.4131,0.0,0.0,0.0,0.0,0.0,0.0,0.0,0.0,0.0,0.0,0.0,0.0,0.0,0.0,0.0,0.0,0.0,0.0,0.0,0.0,0.0,0.0,0.0,0.0,0.0,0.0,0.0,0.0,0.0,0.0,0.0,0.0,0.0,0.0,0.0,0.0,0.0,0.0,0.0,0.0,0.0,0.0,0.0,0.0,0.0,0.0,0.0,0.0,0.0,0.0,0.0,0.0,0.0,0.0,0.0,0.0,0.0,0.0,0.0,0.0,0.0,0.0,0.0,0.0,0.0,0.0,0.0,0.0,0.0,0.0,0.0,0.0,0.0,0.0,0.0,0.0,0.0,0.0,0.0,0.0,0.0,0.0,0.0,0.0,0.0,0.0,0.0,0.0,0.0,0.0,0.0,0.0,0.0,0.0,0.0,0.0,0.0,0.0,0.0,0.0,0.0,0.0,-1.3848,-1.4687,-1.5381,0.0,-1.625,-1.652,-1.6447,-1.5464,-1.4707,-1.4473,0.0,0.0,0.0,0.0,0.0,0.0,0.0,0.0,0.0,0.0,0.0,0.0,0.0,0.0,0.0,0.0,0.0,0.0,0.0,0.0,0.0,0.0,0.0,0.0,0.0,0.0,0.0,0.0,0.0,0.0,0.0,0.0,0.0,0.0,0.0,0.0,0.0,0.0,0.0,0.0,0.0,0.0,0.0,0.0,0.0,0.0,0.0,0.0,0.0,0.0,0.0,0.0,0.0,0.0,0.0,0.0,0.0,0.0,0.0,0.0,0.0,0.0,0.0,0.0,0.0,0.0,0.0,0.0,0.0,0.0,0.0,0.0,0.0,0.0,0.0,0.0,0.0,0.0,0.0,0.0,0.0,0.0,0.0,0.0,0.0,0.0,0.0,0.0,0.0,0.0,0.0,0.0,0.0,0.0,0.0,0.0,0.0,0.0,0.0,0.0,0.0,0.0,-1.3467,-1.4268,-1.4951,-1.5371,-1.5801,-1.6417,-1.7134,-1.5382,-1.452,0.0,0.0,0.0,0.0,0.0,0.0,0.0,0.0,0.0,0.0,0.0,0.0,0.0,0.0,0.0,0.0,0.0,0.0,0.0,0.0,0.0,0.0,0.0,0.0,0.0,0.0,0.0,0.0,0.0,0.0,0.0,0.0,0.0,0.0,0.0,0.0,0.0,0.0,0.0,0.0,0.0,0.0,0.0,0.0,0.0,0.0,0.0,0.0,0.0,0.0,0.0,0.0,0.0,0.0,0.0,0.0,0.0,0.0,0.0,0.0,0.0,0.0,0.0,0.0,0.0,0.0,0.0,0.0,0.0,0.0,0.0,0.0,0.0,0.0,0.0,0.0,0.0,0.0,0.0,0.0,0.0,0.0,0.0,0.0,0.0,0.0,0.0,0.0,0.0,0.0,0.0,0.0,0.0,0.0,0.0,0.0,0.0,0.0,0.0,0.0,0.0,0.0,0.0,-1.4277,-1.4629,-1.5059,-1.5791,-1.6047,-1.6176,-1.6417,-1.5825,-1.516,-1.4483,0.0,0.0,0.0,0.0,0.0,0.0,0.0,0.0,0.0,0.0,0.0,0.0,0.0,0.0,0.0,0.0,0.0,0.0,0.0,0.0,0.0,0.0,0.0,0.0,0.0,0.0,0.0,0.0,0.0,0.0,0.0,0.0,0.0,0.0,0.0,0.0,0.0,0.0,0.0,0.0,0.0,0.0,0.0,0.0,0.0,0.0,0.0,0.0,0.0,0.0,0.0,0.0,0.0,0.0,0.0,0.0,0.0,0.0,0.0,0.0,0.0,0.0,0.0,0.0,0.0,0.0,0.0,0.0,0.0,0.0,0.0,0.0,0.0,0.0,0.0,0.0,0.0,0.0,0.0,0.0,0.0,0.0,0.0,0.0,0.0,0.0,0.0,0.0,0.0,0.0,0.0,0.0,0.0,0.0,0.0,0.0,0.0,0.0,0.0,0.0,0.0,0.0,-1.418,-1.4424,-1.4727,-1.5244,-1.5596,-1.5851,-1.6014,-1.5795,-1.5337,-1.4687,0.0,0.0,0.0,0.0,0.0,0.0,0.0,0.0,0.0,0.0,0.0,0.0,0.0,0.0,0.0,0.0,0.0,0.0,0.0,0.0,0.0,0.0,0.0,0.0,0.0,0.0,0.0,0.0,0.0,0.0,0.0,0.0,0.0,0.0,0.0,0.0,0.0,0.0,0.0,0.0,0.0,0.0,0.0,0.0,0.0,0.0,0.0,0.0,0.0,0.0,0.0,0.0,0.0,0.0,0.0,0.0,0.0,0.0,0.0,0.0,0.0,0.0,0.0,0.0,0.0,0.0,0.0,0.0,0.0,0.0,0.0,0.0,0.0,0.0,0.0,0.0,0.0,0.0,0.0,0.0,0.0,0.0,0.0,0.0,0.0,0.0,0.0,0.0,0.0,0.0,0.0,0.0,0.0,0.0,0.0,0.0,0.0,0.0,0.0,0.0,0.0,0.0,-1.3672,-1.3945,-1.4107,-1.4194,-1.4951,-1.5511,-1.5769,-1.5384,-1.518,-1.5326,0.0,0.0,0.0,0.0,0.0,0.0,0.0,0.0,0.0,0.0,0.0,0.0,0.0,0.0,0.0,0.0,0.0,0.0,0.0,0.0,0.0,0.0,0.0,0.0,0.0,0.0,0.0,0.0,0.0,0.0,0.0,0.0,0.0,0.0,0.0,0.0,0.0,0.0,0.0,0.0,0.0,0.0,0.0,0.0,0.0,0.0,0.0,0.0,0.0,0.0,0.0,0.0,0.0,0.0,0.0,0.0,0.0,0.0,0.0,0.0,-1.3346,0.0,0.0,0.0,0.0,0.0,0.0,0.0,0.0,0.0,0.0,0.0,0.0,0.0,0.0,0.0,0.0,0.0,0.0,0.0,0.0,0.0,0.0,0.0,0.0,0.0,0.0,0.0,0.0,0.0,0.0,0.0,0.0,0.0,0.0,0.0,0.0,0.0,0.0,0.0,0.0,0.0,-1.4873,-1.4492,-1.433,-1.5068,-1.5303,-1.5292,-1.5083,-1.5075,-1.478,-1.3973,-1.3848,0.0,0.0,0.0,0.0,0.0,0.0,0.0,0.0,0.0,0.0,0.0,0.0,0.0,0.0,0.0,0.0,0.0,0.0,0.0,0.0,0.0,0.0,0.0,0.0,0.0,0.0,0.0,0.0,0.0,0.0,0.0,0.0,0.0,0.0,0.0,0.0,0.0,0.0,0.0,0.0,0.0,0.0,0.0,0.0,0.0,0.0,0.0,0.0,0.0,0.0,0.0,0.0,0.0,0.0,0.0,0.0,0.0,0.0,0.0,0.0,-1.3379,0.0,0.0,0.0,0.0,0.0,0.0,0.0,0.0,0.0,0.0,0.0,0.0,0.0,0.0,0.0,0.0,0.0,0.0,0.0,0.0,0.0,0.0,0.0,0.0,0.0,0.0,0.0,0.0,0.0,0.0,0.0,0.0,0.0,0.0,0.0,0.0,0.0,0.0,0.0,0.0,-1.5,-1.4541,-1.4385,-1.5039,-1.5293,-1.5156,-1.4521,-1.509,-1.5124,-1.4139,-1.4189,0.0,0.0,0.0,0.0,0.0,0.0,0.0,0.0,0.0,0.0,0.0,0.0,0.0,0.0,0.0,0.0,0.0,0.0,0.0,0.0,0.0,0.0,0.0,0.0,0.0,0.0,0.0,0.0,0.0,0.0,0.0,0.0,0.0,0.0,0.0,0.0,0.0,0.0,0.0,0.0,0.0,0.0,0.0,0.0,0.0,0.0,0.0,0.0,0.0,0.0,0.0,0.0,0.0,-1.7305,-1.751,-1.8857,-1.7412,-1.6758,-1.668,-1.5273,-1.4492,-1.4287,0.0,0.0,0.0,0.0,0.0,0.0,0.0,0.0,0.0,0.0,0.0,0.0,0.0,0.0,0.0,0.0,0.0,0.0,0.0,0.0,0.0,0.0,0.0,0.0,0.0,-1.7119,-1.6914,0.0,0.0,0.0,0.0,0.0,0.0,0.0,0.0,0.0,0.0,0.0,0.0,-1.4844,-1.4521,-1.4443,-1.4951,-1.5186,-1.498,-1.4145,-1.4977,-1.5269,-1.4569,-1.4422,-1.4466,0.0,0.0,0.0,0.0,0.0,0.0,0.0,0.0,0.0,0.0,0.0,0.0,0.0,0.0,0.0,0.0,0.0,0.0,0.0,0.0,0.0,0.0,0.0,0.0,0.0,0.0,0.0,0.0,0.0,0.0,0.0,0.0,-1.5652,-1.5611,0.0,0.0,0.0,0.0,0.0,0.0,0.0,0.0,0.0,0.0,0.0,0.0,0.0,-1.3926,-1.54,-1.6914,-1.8525,-2.0244,-2.1514,-2.2236,-2.2451,-2.2227,-2.2119,-2.2109,-2.1885,0.0,-1.9336,-1.6562,0.0,0.0,0.0,0.0,0.0,0.0,0.0,0.0,0.0,0.0,0.0,0.0,0.0,0.0,0.0,0.0,0.0,0.0,0.0,0.0,0.0,0.0,-1.6758,-1.7197,-1.7344,-1.7402,0.0,-1.709,-1.6562,-1.6006,-1.5732,0.0,0.0,0.0,0.0,0.0,0.0,0.0,-1.5273,-1.4961,-1.5,-1.587,-1.5273,-1.4668,-1.4116,-1.3945,-1.3861,-1.3894,-1.342,-1.3545,-1.4384,-1.35,0.0,0.0,0.0,0.0,0.0,0.0,0.0,0.0,0.0,0.0,0.0,0.0,0.0,0.0,0.0,0.0,0.0,0.0,0.0,0.0,0.0,0.0,0.0,0.0,0.0,0.0,0.0,0.0,0.0,-1.6245,-1.6522,-1.6195,-1.6398,-1.6432,0.0,0.0,0.0,0.0,0.0,0.0,0.0,0.0,0.0,-1.8223,-1.8525,-1.9004,-1.9746,-2.0508,-2.1269,-2.2021,-2.2783,-2.3135,-2.3135,-2.3135,-2.3135,-2.3135,-2.3135,-2.2705,-2.1816,-1.9336,-1.6631,-1.3884,0.0,0.0,0.0,0.0,-1.335,-1.2749,-1.3166,-1.5496,0.0,-1.8048,0.0,0.0,0.0,0.0,0.0,0.0,0.0,0.0,0.0,0.0,0.0,-1.9121,-1.9551,-1.9902,-1.9834,-1.9141,-1.8184,0.0,-1.7031,-1.6992,-1.6279,0.0,0.0,0.0,0.0,0.0,-1.6064,-1.5557,-1.5371,-1.6056,-1.5508,-1.4863,-1.4136,-1.428,-1.4225,-1.3821,-1.3552,-1.3597,-1.4062,-1.3531,-1.3301,0.0,0.0,0.0,0.0,0.0,0.0,0.0,0.0,0.0,0.0,0.0,0.0,0.0,0.0,0.0,0.0,0.0,0.0,0.0,0.0,0.0,0.0,0.0,0.0,0.0,0.0,0.0,0.0,-1.6886,-1.7388,-1.681,-1.7687,-1.8075,0.0,0.0,0.0,0.0,0.0,0.0,-1.6928,-1.6025,-1.7227,-2.1103,-2.2471,-2.3135,-2.3135,-2.3135,-2.3135,-2.3135,-2.4307,-2.5135,-2.5567,-2.3837,-2.3135,-2.3135,-2.3135,-2.3135,-2.3037,-2.1758,-1.9453,-1.659,-1.5064,-1.3913,-1.338,-1.4843,-1.4199,-1.2691,-1.3803,-1.7783,-2.2129,-2.001,0.0,-2.0449,-1.9814,0.0,0.0,0.0,0.0,-1.9258,-1.9805,-2.0342,-2.0762,-2.0879,-2.1406,-2.1797,-2.1475,-2.0889,-1.9912,0.0,-1.8203,-1.8144,-1.708,0.0,0.0,0.0,0.0,-1.6025,-1.6797,-1.6133,-1.5742,-1.6191,-1.5644,-1.4951,-1.4145,-1.4455,-1.4459,-1.3821,-1.3637,-1.3647,-1.3768,-1.3501,-1.3252,-1.3047,0.0,0.0,0.0,0.0,0.0,0.0,0.0,0.0,0.0,0.0,0.0,0.0,0.0,0.0,0.0,0.0,0.0,0.0,0.0,0.0,0.0,0.0,0.0,0.0,0.0,0.0,0.0,0.0,0.0,-1.74,-1.9698,0.0,0.0,0.0,0.0,-1.6776,-1.8144,-1.8389,-1.6772,-1.8203,-2.0254,-2.293,-2.3096,-2.3135,-2.3135,-2.3135,-2.3135,-2.3135,-2.7452,-3.0537,-3.2376,-2.6021,-2.3135,-2.3135,-2.3135,-2.3135,-2.3135,-2.3047,-2.1943,-2.0312,-2.0236,-1.8297,-1.5531,-1.4543,-1.5688,-1.7027,-1.2454,-1.515,-2.0937,-2.2402,-2.1826,-2.0557,-2.0518,-2.0469,0.0,0.0,-2.0518,-2.0478,-2.0518,-2.0859,-2.1309,-2.1719,-2.1855,-2.1875,-2.1855,-2.1816,-2.1269,0.0,-1.8564,-1.79,-1.7432,0.0,-1.7187,-1.6787,-1.6626,-1.6836,-1.7285,-1.6582,-1.6201,-1.665,-1.5566,-1.4629,-1.4116,-1.3769,-1.3631,-1.381,-1.3238,-1.319,-1.3779,-1.322,-1.3096,-1.3467,-1.3496,0.0,0.0,0.0,0.0,0.0,0.0,0.0,0.0,0.0,0.0,0.0,0.0,0.0,0.0,0.0,0.0,0.0,0.0,0.0,0.0,0.0,0.0,0.0,0.0,0.0,0.0,0.0,0.0,-2.0489,-2.2372,0.0,0.0,-2.1096,-2.0978,-2.0337,-1.9875,-1.9961,-2.082,-2.0391,-2.1045,-2.3076,-2.3135,-2.3135,-2.3135,-2.5964,-2.7371,-2.7476,-3.0437,-3.2315,-3.2957,-2.7334,-2.4814,-2.4746,-2.3623,-2.3779,-2.4814,-2.4814,-2.3789,-2.2227,-2.2227,-1.9567,-1.5778,-1.5357,-1.5826,-1.6395,-1.4576,-1.7595,-2.2324,-2.2939,-2.1973,-2.0635,-2.1006,-2.1055,-2.1094,-2.1543,-2.1738,-2.1816,-2.1816,-2.2139,-2.25,-2.2656,-2.2695,-2.2695,-2.2695,-2.248,-2.2031,-2.1133,-2.0254,-1.9521,-1.9092,-1.8555,-1.8232,-1.8359,-1.791,-1.7705,-1.8135,-1.7441,-1.6865,-1.6748,-1.6055,-1.5322,-1.4609,-1.416,-1.3824,-1.3641,-1.3165,-1.3017,-1.319,-1.3017,-1.2949,-1.3105,-1.3105,-1.3447,0.0,0.0,0.0,0.0,0.0,0.0,0.0,0.0,0.0,0.0,0.0,0.0,0.0,0.0,0.0,0.0,0.0,0.0,0.0,0.0,0.0,0.0,0.0,0.0,0.0,0.0,-2.2598,-2.3339,-2.4814,-2.5238,-2.3779,-2.349,-2.3211,-2.3031,-2.234,-2.2656,-2.4228,-2.332,-2.3135,-2.3984,-2.4014,-2.4785,-2.6498,-2.9426,-3.0896,-3.0922,-3.2378,-3.3081,-3.2982,-2.9681,-2.7295,-2.5674,-2.4521,-2.4668,-2.5742,-2.5742,-2.5059,-2.4014,-2.4014,-2.1296,-1.7406,-1.8016,-1.8025,-1.7747,-1.8118,-2.0395,-2.3135,-2.3135,-2.2363,-2.1504,-2.1885,-2.1943,-2.1973,-2.2441,-2.2646,-2.2725,-2.2725,-2.293,-2.3135,-2.3135,-2.3135,-2.3135,-2.3135,-2.292,-2.2646,-2.2363,-2.1484,-2.0605,-2.001,-1.9727,-1.9511,-1.9527,-1.9043,-1.8705,-1.8799,-1.7998,-1.7275,-1.6982,-1.6416,-1.5771,-1.5059,-1.4727,-1.4268,-1.3555,-1.3379,-1.3174,-1.2891,-1.3018,-1.3096,-1.3096,-1.3096,-1.3437,-1.4077,0.0,0.0,0.0,0.0,0.0,0.0,0.0,0.0,0.0,0.0,0.0,0.0,0.0,0.0,0.0,0.0,0.0,0.0,0.0,0.0,0.0,0.0,0.0,-2.0882,-2.3602,-2.5674,-2.5749,-2.7073,-2.7219,-2.5127,-2.5605,-2.5644,-2.4585,-2.5693,-2.6475,-2.6611,-2.6894,-2.667,-2.584,-2.5849,-2.8215,-3.3068,-3.3081,-3.3081,-3.3081,-3.3081,-3.3081,-3.3081,-3.3081,-3.0508,-2.5917,-2.5732,-2.5742,-2.5742,-2.5742,-2.5703,-2.5654,-2.5654,-2.3547,-2.0741,-2.2429,-2.2403,-2.148,-2.2677,-2.3135,-2.3135,-2.3135,-2.3135,-2.3135,-2.3135,-2.3135,-2.3135,-2.3135,-2.3135,-2.3135,-2.3135,-2.3135,-2.3135,-2.3135,-2.3135,-2.3135,-2.3135,-2.3135,-2.3135,-2.3125,-2.2119,-2.0996,-2.0117,-2.0818,-2.1093,-2.0082,-2.0124,0.0,-1.9393,-1.8282,-1.7497,-1.7422,-1.665,-1.6017,-1.5547,-1.5439,-1.4893,-1.3674,-1.3916,-1.3769,-1.2998,-1.3361,-1.3576,-1.3576,-1.3586,-1.375,-1.415,0.0,0.0,0.0,0.0,0.0,0.0,0.0,0.0,0.0,0.0,0.0,0.0,0.0,0.0,0.0,0.0,0.0,0.0,0.0,0.0,0.0,0.0,-2.5184,-2.4356,-2.5724,-2.7419,-2.9038,-3.0263,-3.0266,-2.835,-2.8539,-2.8189,-2.6468,-2.6816,-2.7334,-2.7793,-2.79,-2.7832,-2.7598,-2.9864,-3.1701,-3.3081,-3.3081,-3.3081,-3.3081,-3.3081,-3.3081,-3.3081,-3.3081,-3.2339,-3.0866,-2.7295,-2.5742,-2.5742,-2.5742,-2.499,-2.3857,-2.3857,-2.3233,-2.2447,-2.2949,-2.2862,-2.2677,-2.296,-2.3135,-2.3135,-2.3135,-2.3135,-2.3135,-2.3135,-2.3135,-2.3135,-2.3135,-2.3135,-2.3135,-2.3135,-2.3135,-2.3135,-2.3135,-2.3135,-2.3135,-2.3135,-2.3135,-2.3047,-2.2744,-2.3036,-2.3154,-2.2477,-2.206,-2.1774,-2.1473,-2.1854,0.0,-1.994,-1.9798,-1.9461,-1.8389,-1.8076,-1.7688,-1.7155,-1.6357,-1.575,-1.5264,-1.4496,-1.4225,-1.4532,-1.4687,-1.5016,-1.5596,-1.5353,-1.5308,0.0,0.0,0.0,0.0,0.0,0.0,0.0,0.0,0.0,0.0,0.0,0.0,0.0,0.0,0.0,0.0,0.0,0.0,0.0,0.0,0.0,0.0,-2.6,-2.7883,-2.8624,-2.9289,-3.0281,-3.1813,-3.229,-3.2183,-3.1529,-3.0515,-2.9586,-2.8766,-2.8097,-2.793,-2.8271,-2.8291,-2.8601,-2.9408,-3.1844,-3.3081,-3.3081,-3.3081,-3.3081,-3.3081,-3.3081,-3.3081,-3.3081,-3.3081,-3.3081,0.0,-3.0045,-2.7662,-2.5684,-2.4951,-2.4053,0.0,0.0,0.0,0.0,0.0,-2.3135,-2.3135,-2.3135,-2.3135,-2.3135,-2.3135,-2.3135,-2.3135,-2.3135,-2.3135,-2.3135,-2.3135,-2.3135,-2.3135,-2.3135,-2.3135,-2.3135,-2.3135,-2.3135,-2.3222,-2.3714,-2.3474,-2.3317,-2.4062,-2.4179,0.0,-2.4933,-2.3853,-2.2778,-2.2134,-2.2155,-2.1865,-2.0714,-2.069,-2.0375,-1.9363,-1.9081,-1.8586,-1.7681,-1.7123,0.0,0.0,0.0,-1.569,-1.5951,-1.5951,0.0,0.0,0.0,-1.6203,-1.5879,0.0,0.0,0.0,-1.4688,-1.4451,0.0,0.0,0.0,0.0,0.0,0.0,0.0,0.0,0.0,0.0,0.0,0.0,0.0,0.0,0.0,0.0,-2.8147,-2.9741,-3.283,-3.337,-3.3608,-3.4035,-3.3631,-3.3552,-3.4302,-3.1962,-3.0664,-3.118,-2.9788,-2.8757,-2.8495,0.0,0.0,0.0,0.0,-3.3058,-3.3081,-3.3081,-3.3081,-3.3081,-3.3081,-3.3081,-3.3081,-3.3081,-3.3081,-3.3081,-3.3081,-3.0316,-2.5615,-2.4072,-2.3369,-2.3271,-2.3174,-2.3135,-2.3135,-2.3135,-2.3135,-2.3135,-2.3135,0.0,0.0,-2.3135,-2.3135,-2.3135,-2.3135,-2.3135,-2.3135,-2.3135,-2.3135,-2.3135,-2.3135,-2.3135,-2.3135,-2.3222,-2.3299,-2.3637,-2.4713,-2.4221,-2.4059,-2.6152,-2.5459,-2.5223,-2.6999,-2.575,-2.4022,-2.2617,-2.2157,-2.1867,-2.1649,-2.1442,-2.1096,-2.0541,0.0,0.0,-1.7945,-1.7912,-1.7622,-1.6863,-1.7523,-1.7775,-1.7398,-1.7436,-1.7402,-1.7402,-1.7292,-1.6911,-1.631,-1.6093,-1.5848,-1.5674,-1.5517,-1.541,0.0,0.0,0.0,0.0,0.0,0.0,0.0,0.0,0.0,0.0,0.0,0.0,0.0,0.0,0.0,-2.8273,-3.0583,-3.2654,-3.4186,-3.5165,-3.5604,-3.5265,-3.5531,-3.5362,-3.4471,-3.4616,-3.4049,-3.2217,-3.2152,-3.1542,-3.0037,-2.89,0.0,-2.8097,-3.1069,-3.2846,-3.3081,-3.3081,-3.3081,-3.3081,0.0,0.0,-3.3081,-3.3081,-3.3081,-3.3081,-3.3081,-3.0316,-2.5713,-2.5371,-2.4814,-2.4102,-2.3408,-2.3135,-2.3135,-2.3135,-2.3135,-2.3135,-2.3135,-2.3135,-2.3135,-2.3135,-2.3135,-2.3135,-2.3135,-2.3135,0.0,-2.3135,-2.3135,-2.3135,-2.3135,-2.3135,-2.3299,-2.4211,-2.4457,-2.4798,-2.5975,-2.5975,-2.5975,-2.6389,-2.6966,-2.7322,-2.7304,-2.6281,-2.5401,-2.5075,-2.5302,-2.4908,-2.3296,-2.3735,-2.3858,-2.2956,-2.1736,-2.0903,-2.051,-1.9552,-1.8881,-1.8592,-1.9414,-1.9838,-1.9743,-1.9903,-2.0007,-2.0007,-1.8905,-1.856,-1.8873,-1.72,-1.6785,-1.7459,-1.6019,-1.541,0.0,0.0,0.0,0.0,0.0,0.0,0.0,0.0,0.0,0.0,0.0,-2.4217,0.0,0.0,-2.8762,-3.0696,-3.2629,-3.4374,-3.5768,-3.6194,-3.6358,-3.637,-3.6383,-3.6505,-3.6615,-3.6042,-3.5301,-3.4565,-3.3743,-3.2465,-3.0779,-2.9836,-2.9171,-2.8867,-3.091,-3.2427,-3.3271,-3.3655,-3.3621,-3.3081,-3.3081,-3.3081,-3.3081,-3.3081,-3.3081,-3.3081,-3.3081,-3.1701,-2.9223,-2.6744,-2.5478,-2.499,-2.4121,-2.3652,-2.3437,-2.3223,-2.3135,-2.3135,-2.3135,-2.3135,-2.3135,-2.3135,-2.3135,-2.3135,-2.3135,-2.3135,-2.3135,-2.3135,-2.3135,-2.3135,-2.3135,-2.3135,-2.3387,-2.4542,-2.4787,-2.5284,-2.6953,-2.6883,-2.6812,-2.7971,-2.8108,-2.8183,-2.8504,-2.7861,-2.698,-2.5971,-2.56,-2.5134,-2.4371,-2.4707,-2.4744,-2.3954,-2.3265,-2.2441,-2.1397,-2.0571,-2.0205,-2.0286,-2.0722,-2.0962,-2.0962,-2.1051,-2.1079,-2.1079,-2.0452,-2.0043,-1.9972,-1.8965,-1.8525,-1.8643,-1.7739,-1.6876,0.0,0.0,0.0,0.0,0.0,0.0,0.0,0.0,-2.3276,-2.3276,-2.4946,-2.6728,-2.7745,-2.9214,-3.0947,-3.3056,-3.4223,-3.5378,-3.6822,-3.6634,-3.6571,-3.7123,-3.6784,-3.701,-3.8253,-3.691,-3.6162,-3.6705,-3.5125,-3.3446,-3.1808,-3.1337,-3.0987,-3.0593,-3.1506,-3.2443,-3.3327,-3.4373,-3.4387,-3.3395,-3.3319,-3.3219,-3.3081,-3.3081,-3.3081,-3.3081,-3.3081,-3.276,-3.1805,-2.744,-2.5742,-2.5644,-2.4707,-2.417,-2.3848,-2.333,-2.3135,-2.3135,-2.3135,-2.3135,-2.3135,-2.3135,-2.3135,-2.3135,-2.3135,-2.3135,-2.3135,-2.3135,-2.3135,-2.3135,-2.3135,-2.3135,-2.3387,-2.4542,-2.4957,-2.5703,-2.7671,-2.7614,-2.7637,-2.9456,-2.9028,-2.8688,-2.9624,-2.9402,-2.8437,-2.665,-2.5585,-2.5164,-2.5577,-2.56,-2.5396,-2.49,-2.4675,-2.3727,-2.1807,-2.1479,-2.1464,-2.1788,-2.1807,-2.1807,-2.1807,-2.1707,-2.1644,-2.1644,-2.1543,-2.125,-2.0752,-2.0529,-2.0182,-1.9775,-1.9732,-1.8802,-2.2524,-2.1464,-2.0828,-2.1662,-2.1995,-2.2736,0.0,0.0,-2.6728,-2.6728,-2.8109,-2.9515,-3.0131,-3.1173,-3.2516,-3.4261,-3.5052,-3.568,-3.6358,-3.6408,-3.6571,-3.7123,-3.7123,-3.6973,-3.6671,-3.7778,-3.7904,-3.6543,-3.712,-3.6455,-3.4111,-3.4005,-3.3157,-3.1616,-3.3175,-3.3742,-3.3005,-3.4558,-3.514,-3.4537,-3.4198,-3.3709,-3.3081,-3.3081,-3.3081,-3.3081,-3.3081,-3.1437,-2.8689,-2.6556,-2.5742,-2.5625,-2.4492,-2.417,-2.4248,-2.3437,-2.3135,-2.3135,-2.3135,-2.3135,-2.3135,-2.3135,-2.3135,-2.3135,-2.3135,-2.3135,-2.3135,-2.3135,-2.3135,-2.3135,-2.3135,-2.3135,-2.3387,-2.4542,-2.5546,-2.6637,-2.7844,-2.8779,-2.9468,-2.9792,-2.9714,-2.9624,-2.9792,-2.9741,-2.9478,-2.8675,-2.8089,-2.7679,-2.7776,-2.7763,-2.7563,-2.7001,-2.5834,-2.4429,-2.2716,-2.2543,-2.2636,-2.2927,-2.289,-2.289,-2.289,-2.2472,-2.2221,-2.2221,-2.1732,-2.1663,-2.2093,-2.0952,-2.0854,-2.1625,-2.1163,-2.0273,-2.4009,0.0,0.0,0.0,-2.4785,-2.59,-2.6753,-2.7871,-2.875,-2.875,-3.0055,-3.1273,-3.1499,-3.2704,-3.3897,0.0,-3.5454,-3.6207,-3.6759,-3.6282,-3.5968,-3.6207,-3.5943,-3.6157,-3.7211,-3.7663,-3.7726,-3.7349,-3.745,-3.6714,-3.4936,-3.454,-3.3679,-3.2139,-3.3557,-3.4171,-3.3731,-3.5318,-3.5742,-3.5203,-3.5039,-3.4751,-3.4349,-3.4349,-3.3884,-3.2971,-3.1092,-2.8995,-2.6748,-2.6035,-2.5742,-2.5654,-2.4844,-2.4629,-2.4658,-2.3545,-2.3135,-2.3135,-2.3135,-2.3135,-2.3135,-2.3135,-2.3135,-2.3135,-2.3135,-2.3135,-2.3135,-2.3135,-2.3135,-2.3135,-2.3135,-2.3135,-2.3387,-2.4542,-2.563,-2.6801,-2.7844,-2.9028,-2.9792,-2.9792,-2.9792,-2.9792,-2.9792,-2.9792,-2.9704,-2.9465,-2.895,-2.8461,-2.8147,-2.8109,-2.7896,-2.7344,-2.6487,-2.5413,-2.4042,-2.3649,-2.3356,-2.3115,-2.3078,-2.3078,-2.3078,-2.2852,-2.2786,-2.2786,-2.2573,-2.256,-2.2786,-2.2253,-2.2186,-2.2567,-2.2395,-2.1801,-2.5009,0.0,0.0,-2.6117,-2.7451,-2.8574,-2.8637,-2.9578,-3.0507,-3.067,-3.1499,-3.2265,-3.2416,-3.3445,0.0,-3.4675,-3.5516,-3.6332,-3.6872,-3.6019,-3.5316,-3.5316,-3.47,-3.4951,-3.6709,-3.6923,-3.7123,-3.7525,-3.7324,-3.6699,-3.5623,-3.5175,-3.4459,-3.3441,-3.4459,-3.4981,-3.4981,-3.5858,-3.6157,-3.5768,-3.5567,-3.5504,-3.5567,-3.5567,-3.4826,-3.3446,-3.1394,-2.8685,-2.5742,-2.6376,-2.6346,-2.5684,-2.5146,-2.4922,-2.4775,-2.3838,-2.3418,-2.3301,-2.3184,-2.3135,-2.3223,-2.3701,-2.3691,-2.3477,-2.3398,-2.3379,-2.335,-2.3184,-2.3135,-2.3135,-2.3135,-2.3135,-2.3299,-2.4125,-2.5473,-2.6719,-2.7533,-2.8779,-2.9792,-2.9792,-2.9792,-2.9792,-2.9792,-2.9792,-2.9792,-2.9792,-2.944,-2.9026,-2.8624,-2.8436,-2.8122,-2.757,-2.7017,-2.6239,-2.5134,-2.4544,-2.3979,-2.3414,-2.3165,-2.3078,-2.3078,-2.3078,-2.3078,-2.3078,-2.3078,-2.3078,-2.3078,-2.3078,-2.3017,-2.2763,-2.2763,-2.2187,0.0,0.0,-2.6345,-2.8765,-2.9567,-3.0143,-3.1712,-3.2102,-3.2303,-3.2867,-3.2566,-3.239,-3.2943,-3.3093,-3.3483,-3.455,-3.5203,-3.5768,-3.6307,-3.5441,-3.4751,-3.4751,-3.3784,-3.337,0.0,-3.5454,-3.6395,-3.6408,-3.6885,-3.6948,-3.6408,-3.637,-3.6358,-3.6263,-3.6358,-3.6358,-3.6358,-3.6358,-3.6358,-3.632,-3.5617,-3.5642,-3.6332,-3.6332,-3.5717,-3.4738,-3.5762,-3.2187,-2.5869,-2.8229,-2.7845,-2.5693,-2.5244,-2.4805,-2.4434,-2.4394,-2.4121,-2.3711,-2.3291,-2.3135,-2.3418,-2.5107,-2.5078,-2.4326,-2.4062,-2.3984,-2.3867,-2.3291,-2.3135,-2.3135,-2.3135,-2.3135,-2.3135,-2.3135,-2.4893,-2.6472,-2.6565,-2.8291,-2.9792,-2.9792,-2.9792,-2.9792,-2.9792,-2.9792,-2.9792,-2.9792,-2.9779,-2.9767,-2.9741,-2.9252,-2.8687,-2.8134,-2.7595,-2.6804,-2.5674,-2.5096,-2.4556,-2.4004,-2.3439,-2.3078,-2.3078,-2.3078,-2.3078,-2.3078,-2.3078,-2.3078,-2.3078,-2.3078,-2.2702,-2.1939,-2.1939,-2.1037,-2.8986,0.0,-3.0591,-3.2725,-3.2841,-3.2754,-3.3671,-3.3596,-3.3282,-3.3119,-3.2328,-3.1512,-3.0997,-3.1474,-3.2202,-3.293,-3.4449,-3.573,-3.6282,-3.6044,-3.5265,-3.3809,-3.3621,0.0,0.0,0.0,0.0,-3.5768,-3.5994,-3.6332,-3.6872,-3.691,-3.691,-3.691,-3.691,-3.6734,-3.6358,-3.6358,-3.6358,-3.6358,-3.5742,-3.5768,-3.6358,-3.5994,-3.5818,-3.583,-3.5316,-3.3041,-2.9692,-2.9289,-2.8227,-2.6829,-2.5846,-2.542,-2.5293,-2.5293,-2.5019,-2.4551,-2.3935,-2.3467,-2.3369,-2.4727,-2.5225,-2.5205,-2.4736,-2.4053,-2.3516,-2.3887,-2.3574,-2.3223,-2.3613,-2.3428,-2.3135,-2.3135,-2.4808,-2.6483,-2.6483,-2.8211,-2.9792,-2.9792,-2.9792,-2.9792,-2.9792,-2.9792,-2.9792,-2.9792,-2.9792,-2.9792,-2.9792,-2.9616,-2.9289,-2.8712,-2.816,-2.7381,-2.6264,-2.5649,-2.4958,-2.4054,-2.4155,-2.3916,-2.3103,-2.3853,-2.3904,-2.309,-2.3514,-2.3514,-2.3078,-2.2849,-2.2567,-2.2261,-2.2004,-2.1295,-3.1353,-3.2401,-3.3369,-3.5021,-3.4803,-3.4336,-3.4889,-3.4286,-3.3382,-3.2629,-3.1273,-2.9942,-2.9063,-2.9289,-3.0005,-3.116,-3.2717,-3.4248,-3.5592,-3.5441,-3.4813,-3.3784,-3.3809,0.0,0.0,0.0,0.0,-3.5386,-3.5906,-3.6445,-3.7149,-3.7374,-3.7387,-3.7199,-3.7186,-3.6923,-3.637,-3.6358,-3.6257,-3.6069,-3.5906,-3.5918,-3.6056,-3.5906,-3.6031,-3.6345,-3.5267,-3.3588,-3.16,-3.0538,-2.939,-2.8132,-2.7295,-2.6652,-2.6169,-2.633,-2.5724,-2.4785,-2.4443,-2.4082,-2.3916,-2.4883,-2.5439,-2.5635,-2.5059,-2.4502,-2.4053,-2.3975,-2.4014,-2.4053,-2.4023,-2.373,-2.3437,-2.3389,-2.4924,-2.6483,-2.6483,-2.8211,-2.9792,-2.9792,-2.9792,-2.9792,-2.9792,-2.9792,-2.9792,-2.9792,-2.9792,-2.9792,-2.9792,-2.9792,-2.9566,-2.8988,-2.8436,-2.7733,-2.6829,-2.6038,-2.5297,-2.4619,-2.4732,-2.4494,-2.3766,-2.4431,-2.4481,-2.3753,-2.4104,-2.4117,-2.3679,-2.3091,-2.265,-2.2321,-2.1696,-2.0945,-3.2391,-3.3517,-3.4584,-3.5917,-3.5455,-3.4901,-3.5391,-3.4198,-3.2667,-3.1499,-2.9515,-2.7795,0.0,0.0,-2.718,-2.9352,-3.0319,-3.1725,-3.4424,-3.396,-3.3696,0.0,0.0,0.0,0.0,0.0,0.0,-3.5592,0.0,-3.7174,-3.7262,-3.7764,-3.7801,-3.7249,-3.7224,-3.6948,-3.637,-3.6358,-3.6094,-3.5554,-3.6069,-3.6044,-3.5567,-3.6081,-3.6332,-3.6332,-3.578,-3.4139,-3.1877,-3.1999,-3.1064,-2.9498,-2.9407,-2.8396,-2.7062,-2.7515,-2.6382,-2.4707,-2.5002,-2.5006,-2.498,-2.5557,-2.5742,-2.5635,-2.5098,-2.5293,-2.5361,-2.373,-2.4434,-2.5439,-2.4346,-2.4062,-2.4014,-2.3918,-2.5251,-2.6505,-2.6565,-2.8303,-2.9792,-2.9792,-2.9792,-2.9792,-2.9792,-2.9792,-2.9792,-2.9792,-2.9792,-2.9792,-2.9792,-2.9792,-2.9578,-2.9038,-2.8473,-2.7921,-2.7369,-2.6314,-2.5649,-2.5598,-2.5159,-2.4883,-2.482,-2.487,-2.4883,-2.482,-2.4845,-2.4781,-2.4743,-2.3725,-2.2831,-2.1931,-2.0998,-2.0196,-3.4025,-3.5358,-3.6552,-3.7421,-3.6405,-3.5265,-3.4989,-3.3319,-3.1386,-2.9867,-2.7783,-2.5812,0.0,0.0,0.0,-2.831,-3.1085,0.0,-3.5667,-3.6408,0.0,0.0,0.0,-3.6031,-3.5203,-3.5994,0.0,0.0,-3.6646,-3.7123,-3.8379,-3.858,-3.8391,-3.7814,-3.7801,-3.7337,-3.637,-3.6358,-3.6094,-3.5542,-3.5692,-3.568,-3.5554,-3.5692,-3.5968,-3.6332,-3.578,-3.489,-3.3868,-3.2587,-3.153,-3.0676,-2.9772,-2.9145,-2.8782,-2.8903,-2.8609,-2.8137,-2.8223,-2.6775,-2.498,-2.5557,-2.5742,-2.5713,-2.5566,-2.5391,-2.5215,-2.5107,-2.5088,-2.5059,-2.4853,-2.4736,-2.4687,-2.4961,-2.6002,-2.7076,-2.7603,-2.8779,-2.9792,-2.9792,-2.9792,-2.9792,-2.9792,-2.9792,-2.9792,-2.9792,-2.9792,-2.9792,-2.9792,-2.9792,-2.9729,-2.9591,-2.9063,-2.8499,-2.7946,-2.7256,-2.649,-2.5649,-2.5875,-2.5674,-2.4858,-2.5611,-2.5661,-2.4845,-2.5197,-2.4855,-2.3701,-2.311,-2.2384,-2.1384,-2.0876,-2.0453,-3.5494,-3.6691,-3.7597,-3.7635,-3.6383,-3.4851,-3.3558,-3.1725,-2.9566,-2.6929,-2.5197,0.0,0.0,0.0,0.0,0.0,0.0,0.0,-3.4914,-3.6019,-3.6697,0.0,-3.7575,0.0,-3.6709,-3.7412,-3.7927,0.0,-3.7638,-3.7877,-3.8818,-3.8868,-3.8605,-3.8027,-3.7764,-3.7236,-3.637,-3.6358,-3.6207,-3.5893,-3.5893,-3.5893,-3.5893,-3.5655,-3.5843,-3.632,0.0,-3.514,-3.4923,-3.3482,-3.2686,-3.2293,-3.1419,-3.0687,-3.0226,-3.0226,-2.9852,-2.9407,-2.9407,-2.8256,-2.6941,-2.7191,-2.6935,-2.638,-2.583,-2.5557,-2.541,-2.5664,-2.5508,-2.5273,-2.5342,-2.5166,-2.5135,-2.5865,-2.6384,-2.7103,-2.8516,-2.931,-2.9838,-3.0115,-2.9955,-2.9792,-2.9792,-2.9792,-2.9792,-2.9792,-2.9792,-2.9792,-2.9792,-2.9792,-2.9792,-2.9792,-2.9277,-2.8699,-2.816,-2.7607,-2.6904,-2.6038,-2.6276,-2.6189,-2.5561,-2.6138,-2.6163,-2.5548,-2.5824,-2.5542,-2.467,-2.3616,-2.2739,-2.2166,-2.112,-2.0566,-3.6494,-3.7325,-3.7782,-3.7134,-3.578,-3.401,-3.17,-2.9779,-2.7431,-2.369,0.0,0.0,-2.0627,0.0,-2.3037,-2.5234,0.0,-2.9666,-3.347,-3.455,-3.573,-3.7864,-3.863,-3.8781,-3.8278,-3.868,-3.8981,-3.8981,-3.8981,-3.8981,-3.8981,-3.8981,-3.868,-3.8027,-3.74,-3.6847,-3.637,-3.6358,-3.632,-3.6257,-3.632,-3.632,-3.6245,-3.583,-3.5906,-3.6307,0.0,0.0,-3.5353,-3.4248,-3.3796,-3.3746,-3.3269,-3.2426,-3.1412,-3.1412,-3.0777,-2.9863,-2.9863,-2.9863,-2.9863,-2.9498,-2.8588,-2.74,-2.6294,-2.583,-2.5742,-2.5742,-2.5742,-2.5742,-2.5742,-2.5449,-2.5506,-2.663,-2.649,-2.6883,-2.9253,-2.9846,-2.9965,-3.0381,-3.0253,-2.998,-2.9749,-2.9814,-2.988,-2.9804,-2.9792,-2.9792,-2.9792,-2.9792,-2.9792,-2.9792,-2.934,-2.8812,-2.826,-2.7708,-2.7155,-2.6603,-2.6571,-2.6533,-2.6533,-2.6533,-2.6533,-2.6533,-2.6533,-2.6452,-2.6314,-2.4552,-2.3588,-2.3294,-2.1603,-2.0712,-3.5438,-3.6198,-3.6539,-3.5918,-3.4926,-3.3345,-3.067,-2.8047,0.0,0.0,0.0,-1.9547,-1.9346,-2.0953,0.0,-2.5234,0.0,0.0,0.0,0.0,-3.6759,0.0,0.0,0.0,0.0,0.0,0.0,0.0,0.0,-3.9546,-3.9546,-3.9546,-3.9082,-3.804,-3.7023,-3.6458,-3.6358,-3.6358,-3.6132,-3.5692,-3.6144,-3.6119,-3.5705,-3.6056,-3.627,-3.6307,-3.519,0.0,-3.4776,-3.3671,-3.3219,-3.3206,-3.3119,-3.2982,-3.2797,-3.2797,-3.2612,-3.2438,-3.2438,-3.2438,-3.2152,-3.0045,-2.8588,-2.7589,-2.7315,-2.6572,-2.5742,-2.5742,-2.5742,-2.5742,-2.5742,-2.5684,-2.5806,-2.6517,-2.6629,-2.7179,-2.9153,-3.0443,-3.0844,-2.9977,-3.0483,-3.0624,-2.9253,-2.9782,-3.0319,-2.9867,-2.9792,-2.9792,-2.9792,-2.9792,-2.9792,-2.9792,-2.9704,-2.9415,-2.8837,-2.8285,-2.772,-2.718,-2.6716,-2.6533,-2.6533,-2.6533,-2.6533,-2.6533,-2.6533,-2.6094,-2.5229,-2.4933,-2.3891,-2.2253,-2.1886,-2.1375,-3.6295,-3.6596,-3.6546,-3.7095,-3.5111,-3.2382,-2.9877,0.0,0.0,0.0,0.0,-1.8593,-1.8593,0.0,0.0,0.0,0.0,0.0,0.0,0.0,0.0,0.0,0.0,0.0,0.0,0.0,0.0,0.0,0.0,0.0,-3.9697,-3.9421,-3.8743,-3.7613,-3.7061,-3.6646,-3.6358,-3.6358,-3.6219,-3.5968,-3.6232,-3.6219,-3.5968,-3.5943,-3.6094,-3.632,-3.5504,0.0,-3.509,-3.4274,-3.3771,-3.3483,-3.3194,-3.3081,-3.3081,-3.3081,-3.3081,-3.3081,-3.3081,-3.3081,-3.2896,-3.1701,-3.0508,-2.9315,-2.8773,-2.7673,-2.6623,-2.6202,-2.5918,-2.5791,-2.6016,-2.5908,-2.5964,-2.6931,-2.8147,-2.933,-3.026,-3.07,-3.0676,-3.0155,-2.9747,-2.9402,-2.9249,-2.9494,-2.9751,-3.0177,-2.998,-2.9792,-2.9792,-2.9792,-2.9792,-2.9792,-2.9792,-2.9566,-2.8976,-2.8687,-2.8298,-2.7745,-2.7193,-2.6892,-2.6892,-2.6615,-2.6533,-2.6533,-2.6533,-2.6233,-2.5804,-2.4707,-2.3745,-2.2776,-2.1745,-2.1001,-3.6646,-3.7013,-3.7028,-3.8018,-3.5409,-3.1932,-2.9283,-2.5727,0.0,0.0,0.0,-1.7915,-1.8154,0.0,0.0,0.0,0.0,0.0,0.0,0.0,0.0,0.0,0.0,0.0,0.0,0.0,0.0,0.0,0.0,0.0,-3.9697,-3.917,-3.8404,-3.7387,-3.7249,-3.6923,-3.637,-3.6358,-3.6358,-3.6358,-3.6358,-3.6358,-3.6345,-3.5918,-3.5956,-3.6332,-3.578,0.0,0.0,-3.4826,-3.4299,-3.3847,-3.3294,-3.3081,-3.3081,-3.3081,-3.3081,-3.3081,-3.3081,-3.3081,-3.3081,-3.3081,-3.2239,-3.1033,-3.0033,-2.8947,-2.7841,-2.6909,-2.6378,-2.6093,-2.6261,-2.5996,-2.6014,-2.7315,-2.9407,-3.1223,-3.1223,-3.1077,-3.0877,-3.0604,-2.9642,-2.9069,-2.9674,-2.9654,-2.9743,-3.0486,-3.0244,-2.993,-2.9804,-2.9792,-2.9792,-2.9792,-2.9792,-2.9616,-2.9151,-2.9001,-2.875,-2.831,-2.777,-2.7406,-2.7293,-2.6866,-2.6647,-2.6533,-2.6533,-2.6533,-2.6533,-2.4696,-2.3745,-2.3441,-2.1669,-2.0789,-3.4688,-3.6456,-3.7702,-3.6792,-3.5205,-3.2815,-2.8958,0.0,0.0,0.0,-1.7388,-1.6986,-1.8016,-1.8731,0.0,0.0,0.0,0.0,0.0,0.0,0.0,0.0,0.0,0.0,0.0,0.0,0.0,0.0,0.0,0.0,-3.9697,-3.917,-3.858,-3.7952,-3.745,-3.6923,-3.637,-3.6358,-3.6358,-3.6358,-3.6358,-3.6358,-3.6358,-3.6307,-3.632,-3.6332,-3.578,0.0,0.0,-3.4412,-3.3947,-3.3847,-3.3294,-3.3081,-3.3081,-3.3081,-3.3081,-3.3081,-3.3081,-3.3081,-3.3081,-3.3081,-3.2239,-3.1211,-3.1045,-3.0226,-2.8958,-2.782,-2.7441,-2.7136,-2.6063,-2.5762,-2.6014,-2.7315,-2.9407,-3.1223,-3.1223,-3.2103,-3.2537,-3.1328,-3.1942,-3.2118,-3.0635,-3.1211,-3.156,-3.0758,-3.057,-3.0357,-2.9854,-2.9792,-2.9792,-2.9792,-2.9792,-2.9779,-2.9716,-2.9239,-2.89,-2.885,-2.8335,-2.7808,-2.7306,-2.7231,-2.6967,-2.6533,-2.6533,-2.6533,-2.6533,-2.537,-2.4409,-2.3441,-2.2403,-2.1451,-3.406,-3.5801,-3.7047,-3.7088,-3.45,-3.1175,-2.8483,0.0,0.0,-1.8141,-1.7074,-1.6716,-1.7422,-1.8067,-1.8833,0.0,0.0,0.0,0.0,0.0,0.0,0.0,0.0,0.0,0.0,0.0,0.0,0.0,0.0,0.0,-3.922,-3.8994,-3.8605,-3.8027,-3.7475,-3.6923,-3.637,-3.6358,-3.6358,-3.6358,-3.6358,-3.6358,-3.6358,-3.6358,-3.6358,-3.6358,-3.6132,0.0,0.0,-3.4713,-3.4198,-3.3847,-3.3294,-3.3282,-3.3533,-3.3206,-3.3282,-3.352,-3.3194,-3.3081,-3.3081,-3.3081,-3.2797,-3.2239,-3.14,-3.0855,-3.0102,-2.8464,-2.7799,-2.744,-2.6656,-2.7073,-2.8028,-2.9267,-3.072,-3.189,-3.2629,-3.2372,-3.1777,-3.1311,-3.1045,-3.0885,-3.0861,-3.0999,-3.1186,-3.1555,-3.1022,-3.0532,-3.0319,-2.9993,-2.9792,-2.9792,-2.9792,-2.9792,-2.9792,-2.9578,-2.9453,-2.9453,-2.8913,-2.8499,-2.8285,-2.7959,-2.7519,-2.6967,-2.6954,-2.6499,-2.5594,-2.4868,-2.3891,-2.2563,-2.1891,-2.1192,-3.265,-3.4822,-3.6434,-3.7001,-3.3895,-3.0161,0.0,0.0,0.0,-1.7714,-1.6923,-1.6578,-1.686,-1.7412,-1.7908,0.0,0.0,0.0,0.0,0.0,0.0,0.0,0.0,0.0,0.0,0.0,0.0,0.0,0.0,0.0,0.0,-3.8467,-3.8178,-3.7776,-3.7387,-3.6923,-3.637,-3.6358,-3.6358,-3.6358,-3.6358,-3.6358,-3.6358,-3.6358,-3.627,-3.6119,0.0,0.0,0.0,-3.5064,-3.455,-3.3859,-3.347,-3.3458,-3.3608,-3.3219,-3.3319,-3.3608,-3.3206,-3.3081,-3.3081,-3.3081,-3.3081,-3.2884,-3.2052,-3.1777,-3.1395,-2.9635,-2.8485,-2.7689,-2.712,-2.8266,-2.9818,-3.0693,-3.174,-3.2881,-3.3708,-3.2808,-3.1777,-3.1777,-3.1045,-3.0777,-3.1601,-3.1462,-3.143,-3.2059,-3.1574,-3.0972,-3.0658,-3.0281,-2.998,-2.9817,-2.9792,-2.9792,-2.9792,-2.9792,-2.9792,-2.9792,-2.9415,-2.9114,-2.8938,-2.8561,-2.8084,-2.7544,-2.7532,-2.6818,-2.5468,-2.4773,-2.3755,-2.237,-2.173,-2.126,-3.0053,-3.3225,-3.6092,-3.5835,-3.3492,-3.0465,0.0,0.0,0.0,-1.7714,-1.6923,-1.6498,-1.6416,-1.68,-1.7088,-1.7058,0.0,0.0,0.0,0.0,0.0,0.0,0.0,0.0,0.0,0.0,0.0,0.0,0.0,0.0,0.0,-3.75,-3.7199,-3.7199,-3.7186,-3.6923,-3.637,-3.6358,-3.6358,-3.6358,-3.6358,-3.6358,-3.6358,-3.6358,-3.6056,0.0,0.0,0.0,0.0,-3.5316,-3.4889,-3.3897,-3.3884,-3.3558,-3.3081,-3.3081,-3.3081,-3.3081,-3.3081,-3.3081,-3.3081,-3.3081,-3.3081,-3.3081,-3.3068,-3.3068,-3.2797,-3.1512,-2.9754,-2.7976,-2.7189,-2.8953,-3.0886,-3.0886,-3.24,-3.3897,-3.3897,-3.347,-3.3068,-3.3068,-3.3068,-3.3068,-3.3081,-3.3068,-3.2867,-3.2303,-3.2202,-3.1813,-3.0758,-3.0608,-3.0407,-2.9854,-2.9792,-2.9792,-2.9792,-2.9792,-2.9792,-2.9792,-2.9779,-2.9528,-2.895,-2.8925,-2.8662,-2.8109,-2.8097,-2.7558,-2.6486,-2.5458,-2.4423,-2.3231,-2.2329,-2.1875,-2.5575,-2.7749,-2.9428,-2.9231,-2.7454,-2.5204,-2.3434,0.0,0.0,-1.6974,-1.6647,-1.6323,-1.5752,-1.6452,-1.6945,-1.6441,-1.7693,0.0,0.0,0.0,0.0,0.0,0.0,0.0,0.0,0.0,0.0,0.0,0.0,0.0,0.0,-3.7274,-3.7186,-3.7186,-3.6822,-3.6533,-3.6358,-3.6358,-3.6358,-3.6358,-3.6358,-3.5767,-3.4615,-3.5407,0.0,0.0,0.0,0.0,0.0,-3.4244,-3.4237,-3.4424,-3.4048,-3.3796,-3.3596,-3.3219,-3.3319,-3.3583,-3.3206,-3.3081,-3.3081,-3.3081,-3.3081,-3.3081,-3.3081,-3.3081,-3.2686,-3.0914,-2.9836,-2.8946,-2.7815,-2.9425,-3.1359,-3.1793,-3.3185,-3.4462,-3.4462,-3.4035,-3.3533,-3.3156,-3.3081,-3.3081,-3.3081,-3.3081,-3.3018,-3.283,-3.2466,-3.1951,-3.1235,-3.0834,-3.0407,-2.9854,-2.9792,-2.9792,-2.9792,-2.9792,-2.9792,-2.9792,-2.9792,-2.9704,-2.9528,-2.9515,-2.9252,-2.8687,-2.7949,-2.6895,-2.547,-2.4716,-2.3752,-2.2778,-2.2178,-2.2041,0.0,-2.4465,-2.5714,-2.5738,-2.4232,0.0,0.0,0.0,0.0,0.0,0.0,-1.5872,-1.4901,-1.5608,-1.6107,-1.5481,-1.6758,0.0,0.0,0.0,0.0,0.0,0.0,0.0,0.0,0.0,0.0,0.0,0.0,0.0,0.0,-3.6872,-3.6872,-3.6872,-3.6533,-3.6358,-3.6358,-3.6358,-3.6257,-3.6056,-3.6056,-3.5369,-3.4068,-3.4848,0.0,0.0,0.0,0.0,0.0,-3.3036,-3.3149,-3.3617,-3.3375,-3.3394,-3.3545,-3.3206,-3.3294,-3.3533,-3.3194,-3.3081,-3.3081,-3.3081,-3.3081,-3.3081,-3.3081,-3.2797,-3.2123,-3.0682,-2.9764,-2.8915,-2.7984,-2.9114,-3.0614,-3.1019,-3.2045,-3.3162,-3.3654,-3.3313,-3.292,-3.3045,-3.3081,-3.3081,-3.3081,-3.3081,-3.3081,-3.3081,-3.2767,-3.234,-3.1763,-3.1424,-3.0934,-3.0181,-3.0105,-3.0018,-2.9817,-2.9792,-2.9792,-2.9792,-2.9792,-2.9792,-2.9792,-2.9792,-2.9449,-2.859,-2.7933,-2.6723,-2.4902,-2.4086,-2.3333,-2.2744,-2.248,-2.25,0.0,0.0,0.0,0.0,0.0,0.0,0.0,0.0,0.0,0.0,0.0,0.0,0.0,-1.4537,-1.4923,-1.439,-1.5742,0.0,0.0,0.0,0.0,0.0,0.0,0.0,0.0,0.0,0.0,0.0,0.0,0.0,0.0,-3.632,-3.6307,-3.6307,-3.627,-3.627,-3.6307,-3.6307,-3.6031,-3.5399,-3.5399,-3.5111,-3.4482,-3.4482,0.0,0.0,0.0,0.0,0.0,-3.1962,-3.1872,-3.1928,-3.2122,-3.2552,-3.3081,-3.3081,-3.3081,-3.3081,-3.3081,-3.3081,-3.3068,-3.3031,-3.3043,-3.3068,-3.2945,-3.214,-3.1203,-3.0751,-2.9461,-2.8131,-2.7806,-2.8269,-2.8901,-2.9042,-2.9644,-3.0521,-3.1746,-3.1627,-3.1637,-3.2711,-3.3068,-3.3081,-3.3081,-3.3081,-3.3081,-3.3081,-3.3081,-3.2867,-3.229,-3.2215,-3.18,-3.0733,-3.062,-3.0394,-2.9842,-2.9792,-2.9792,-2.9792,-2.9792,-2.9792,-2.9792,-2.9702,-2.9197,-2.8096,-2.7924,-2.6767,-2.4713,-2.3637,-2.3135,-2.3135,-2.3135,-2.3135,-1.732,0.0,-1.8446,0.0,0.0,0.0,0.0,0.0,0.0,0.0,0.0,0.0,0.0,0.0,0.0,0.0,0.0,0.0,0.0,0.0,0.0,0.0,0.0,0.0,0.0,0.0,0.0,0.0,0.0,0.0,0.0,-3.5968,-3.573,-3.573,-3.5328,-3.5316,-3.573,-3.573,-3.5454,-3.4914,-3.4914,-3.4148,-3.269,-3.269,0.0,0.0,0.0,0.0,-3.0014,-3.1766,-3.2311,-3.2122,-3.306,-3.3283,-3.3081,-3.3081,-3.3081,-3.3081,-3.3081,-3.3081,-3.3006,-3.2554,-3.2717,-3.2809,-3.1466,-3.1464,-3.1616,-3.0518,-2.9536,-2.8551,-2.7406,-2.7813,-2.8512,-2.8859,-2.9644,-3.0323,-3.0614,-3.1274,-3.1812,-3.1673,-3.2426,-3.3081,-3.3081,-3.3081,-3.3081,-3.3081,-3.3081,-3.2867,-3.229,-3.2215,-3.18,-3.0733,-3.062,-3.0394,-2.9842,-2.9792,-2.9792,-2.9792,-2.9792,-2.9792,-2.9792,-2.8937,-2.8347,-2.8096,-2.6438,-2.4872,-2.3464,-2.3222,-2.3135,-2.3135,-2.3135,-2.3135,-1.5908,-1.6279,-1.652,-1.6854,-1.6911,-1.6911,0.0,0.0,0.0,0.0,0.0,0.0,0.0,0.0,0.0,0.0,0.0,0.0,0.0,0.0,0.0,0.0,0.0,0.0,0.0,0.0,0.0,0.0,0.0,0.0,0.0,-3.5328,-3.5165,-3.5165,-3.4876,-3.4864,-3.5165,-3.5165,-3.4889,-3.4349,-3.4349,-3.368,-3.2592,-3.2592,-3.1612,0.0,0.0,0.0,-2.9992,-3.0997,-3.1704,-3.2098,-3.2487,-3.2872,-3.3081,-3.3081,-3.3081,-3.3081,-3.3081,-3.3081,-3.2895,-3.1785,-3.1786,-3.1867,-3.0168,-2.985,-2.9948,-2.9325,-2.8378,-2.7329,-2.6871,-2.6884,-2.7171,-2.7415,-2.7845,-2.8317,-2.8874,-2.9542,-3.0285,-3.1003,-3.1777,-3.2426,-3.2982,-3.3081,-3.3081,-3.3081,-3.3081,-3.2968,-3.2654,-3.2604,-3.229,-3.1436,-3.1348,-3.1035,-3.0231,-3.0168,-3.0068,-2.9817,-2.9792,-2.9534,-2.9028,-2.8426,-2.7591,-2.6603,-2.4872,-2.3714,-2.3135,-2.3135,-2.3135,-2.3135,-2.3135,-2.3135,-1.5638,-1.6192,-1.6774,-1.7264,-1.7451,-1.7501,0.0,0.0,0.0,0.0,0.0,0.0,0.0,0.0,0.0,0.0,0.0,0.0,0.0,0.0,0.0,0.0,0.0,0.0,0.0,0.0,0.0,0.0,0.0,0.0,0.0,-3.4638,-3.4562,-3.4474,-3.4474,-3.4437,-3.4336,-3.4512,-3.4324,-3.3771,-3.3771,-3.3533,-3.3068,-3.2896,-3.2497,0.0,0.0,0.0,-3.0628,-3.0566,-3.0951,-3.175,-3.1579,-3.2152,-3.3081,-3.3081,-3.3081,-3.3068,-3.2968,-3.2794,-3.2363,-3.0833,-3.0482,-3.0449,-2.888,-2.7926,-2.7579,-2.7752,-2.6758,-2.582,-2.6191,-2.6016,-2.5742,-2.5742,-2.5742,-2.6014,-2.703,-2.7589,-2.8495,-3.0496,-3.1223,-3.1865,-3.2896,-3.3081,-3.3081,-3.3081,-3.3081,-3.3081,-3.3081,-3.3081,-3.2855,-3.2277,-3.2215,-3.1775,-3.0708,-3.062,-3.0382,-2.9829,-2.9792,-2.9209,-2.7936,-2.7683,-2.6603,-2.4542,-2.3551,-2.3135,-2.3135,-2.3135,-2.3135,-2.3135,-2.3135,-2.3135,-1.5892,-1.7063,-1.7762,-1.7464,-1.7739,-1.8078,0.0,0.0,0.0,0.0,0.0,0.0,0.0,0.0,0.0,0.0,0.0,0.0,0.0,0.0,0.0,0.0,0.0,0.0,0.0,0.0,0.0,0.0,0.0,0.0,0.0,0.0,-3.3809,-3.3345,-3.3332,-3.3093,-3.2604,-3.3545,-3.3746,-3.3206,-3.3206,-3.3156,-3.3081,-3.1952,-3.1448,0.0,0.0,-3.0659,-2.9815,-3.1757,-3.2086,-3.1419,-3.245,-3.2896,-3.3081,-3.3081,-3.3081,-3.3006,-3.2516,-3.1427,-3.0182,-2.9368,-2.8873,-2.8327,-2.6947,-2.6715,-2.691,-2.6264,-2.5879,-2.5752,-2.582,-2.5781,-2.5742,-2.5742,-2.5742,-2.5732,-2.5917,-2.7673,-2.9223,-2.959,-3.1323,-3.2884,-3.3068,-3.3081,-3.3081,-3.3081,-3.3081,-3.3081,-3.3081,-3.3081,-3.2855,-3.2277,-3.2215,-3.1775,-3.0708,-3.062,-3.0382,-2.9829,-2.9792,-2.8882,-2.6801,-2.5797,-2.4702,-2.3387,-2.3222,-2.3135,-2.3135,-2.3135,-2.3135,-2.3135,-2.3135,-2.3135,-1.5245,-1.6586,-1.7797,-1.8147,-1.8907,-1.9459,0.0,0.0,0.0,0.0,0.0,0.0,0.0,0.0,0.0,0.0,0.0,0.0,0.0,0.0,0.0,0.0,0.0,0.0,0.0,0.0,0.0,0.0,0.0,0.0,0.0,0.0,-3.3332,-3.3081,-3.3081,-3.2955,-3.2679,-3.3194,-3.3319,-3.3081,-3.3081,-3.3081,-3.3068,-3.2513,-3.1865,-3.1199,0.0,-3.1069,-3.0066,-3.1564,-3.1804,-3.1357,-3.1984,-3.2164,-3.2164,-3.2164,-3.2353,-3.2444,-3.1269,-3.0398,-2.951,-2.7674,-2.7271,-2.714,-2.5644,-2.5704,-2.6215,-2.5771,-2.5742,-2.5742,-2.5742,-2.5742,-2.5742,-2.5742,-2.5742,-2.5742,-2.5742,-2.6562,-2.7757,-2.9131,-3.0316,-3.1512,-3.2884,-3.3081,-3.3081,-3.3081,-3.3081,-3.3081,-3.3081,-3.3081,-3.2968,-3.2704,-3.2679,-3.224,-3.1135,-3.1035,-3.0418,-2.8986,-2.8371,-2.7302,-2.563,-2.4467,-2.3627,-2.3135,-2.3135,-2.3135,-2.3135,-2.3135,-2.3135,-2.3135,-2.3135,-2.3135,-1.4843,-1.6194,-1.7777,0.0,0.0,0.0,0.0,0.0,0.0,0.0,0.0,0.0,0.0,0.0,0.0,0.0,0.0,0.0,0.0,0.0,0.0,0.0,0.0,0.0,0.0,0.0,0.0,0.0,0.0,0.0,0.0,0.0,-3.288,-3.288,-3.288,-3.2817,-3.2679,-3.2817,-3.2943,-3.3081,-3.3081,-3.3081,-3.3068,-3.293,-3.2327,-3.146,-3.1819,-3.1487,-3.0664,-3.122,-3.1386,-3.1386,-3.1386,-3.1386,-3.1386,-3.1128,-3.1232,-3.1252,-2.9857,-2.9078,-2.8337,-2.6379,-2.5889,-2.6002,-2.4878,-2.4971,-2.5469,-2.5684,-2.5664,-2.5605,-2.5713,-2.5742,-2.5742,-2.5742,-2.5742,-2.5742,-2.5742,-2.5917,-2.6754,-2.8588,-2.9407,-3.0406,-3.2339,-3.2896,-3.3081,-3.3081,-3.3081,-3.3081,-3.3081,-3.3081,-3.3081,-3.3081,-3.3081,-3.2667,-3.1662,-3.1348,-3.0244,-2.8079,-2.7033,-2.5975,-2.4872,-2.3714,-2.3135,-2.3135,-2.3135,-2.3135,-2.3135,-2.3135,-2.3135,-2.3135,-2.3135,-2.3135,-1.5305,-1.6777,-1.8166,-1.8242,0.0,0.0,0.0,0.0,0.0,0.0,0.0,0.0,0.0,0.0,0.0,0.0,0.0,0.0,0.0,0.0,0.0,0.0,0.0,0.0,0.0,0.0,0.0,0.0,0.0,0.0,0.0,0.0,0.0,-3.2277,-3.2277,-3.2026,-3.1512,-3.2014,-3.2541,-3.3081,-3.3081,-3.3081,-3.3056,-3.2516,-3.2181,-3.2059,-3.1687,-3.1449,-3.1354,-3.1411,-3.1386,-3.1386,-3.1386,-3.1386,-3.1304,-3.0276,-2.9559,-2.9047,-2.83,-2.681,-2.5274,-2.5878,-2.5117,-2.4114,-2.4879,-2.4785,-2.4678,-2.5508,-2.5439,-2.5215,-2.5635,-2.5742,-2.5742,-2.5742,-2.5742,-2.5742,-2.5742,-2.6668,-2.7494,-2.7673,-2.9498,-3.1134,-3.1311,-3.2339,-3.3081,-3.3081,-3.3081,-3.3081,-3.3081,-3.3081,-3.3081,-3.3081,-3.3081,-3.283,-3.2202,-3.1235,-2.9699,-2.7493,-2.6813,-2.5975,-2.4872,-2.3714,-2.3135,-2.3135,-2.3135,-2.3135,-2.3135,-2.3135,-2.3135,-2.3135,-2.3135,-2.3135,-1.4933,-1.6824,-1.8719,0.0,0.0,0.0,0.0,0.0,0.0,0.0,0.0,0.0,0.0,0.0,0.0,0.0,0.0,0.0,0.0,0.0,0.0,0.0,0.0,0.0,0.0,0.0,0.0,0.0,0.0,0.0,0.0,0.0,0.0,-3.17,-3.17,-3.1599,-3.1386,-3.1599,-3.1813,-3.2026,-3.2378,-3.2541,-3.2516,-3.1951,-3.17,-3.1675,-3.1135,-3.0909,-3.0884,-3.0532,-3.0394,-3.0394,-3.0394,-3.0171,-2.9731,-2.8985,-2.8363,-2.7683,-2.645,-2.5498,-2.4765,-2.4368,-2.4049,-2.3848,-2.417,-2.4336,-2.4541,-2.5146,-2.5195,-2.5176,-2.5625,-2.5742,-2.5742,-2.5742,-2.5742,-2.5742,-2.5742,-2.611,-2.6839,-2.8402,-2.9498,-3.0586,-3.2152,-3.3071,-3.3583,-3.3583,-3.3884,-3.3972,-3.3633,-3.3583,-3.3458,-3.3119,-3.2754,-3.2174,-3.1162,-3.0398,-2.9033,-2.6714,-2.6499,-2.5641,-2.38,-2.3299,-2.3135,-2.3135,-2.3135,-2.3135,-2.3135,-2.3135,-2.3135,-2.3135,-2.3135,-2.3135,-1.4468,-1.6256,-1.8269,0.0,0.0,0.0,0.0,0.0,0.0,0.0,0.0,0.0,0.0,0.0,0.0,0.0,0.0,0.0,0.0,0.0,0.0,0.0,0.0,0.0,0.0,0.0,0.0,0.0,0.0,0.0,0.0,0.0,0.0,0.0,-3.1235,-3.1148,-3.1148,-3.1148,-3.1148,-3.1148,-3.1524,-3.1788,-3.1938,-3.1386,-3.1148,-3.1122,-3.0583,-3.0357,-3.0331,-2.9942,-2.9792,-2.9792,-2.9792,-2.934,-2.8583,-2.7893,-2.717,-2.6352,-2.4995,-2.442,-2.4176,-2.3703,-2.3652,-2.3809,-2.3945,-2.4092,-2.4307,-2.4746,-2.4766,-2.4766,-2.5205,-2.5527,-2.5742,-2.5742,-2.5742,-2.5742,-2.5742,-2.5742,-2.6294,-2.8402,-2.9131,-3.0045,-3.2152,-3.3109,-3.3633,-3.3633,-3.396,-3.406,-3.3684,-3.3633,-3.3495,-3.3119,-3.235,-3.1577,-3.0688,-2.9769,-2.8358,-2.6293,-2.6141,-2.5274,-2.3428,-2.3213,-2.3135,-2.3135,-2.3135,-2.3135,-2.3135,-2.3135,-2.3135,-2.3135,-2.3135,-2.3135,-1.3967,-1.5164,0.0,0.0,0.0,0.0,0.0,0.0,0.0,0.0,0.0,0.0,0.0,0.0,0.0,0.0,0.0,0.0,0.0,0.0,0.0,0.0,0.0,0.0,0.0,0.0,0.0,0.0,0.0,0.0,0.0,0.0,0.0,0.0,-3.0871,-3.0608,-3.0608,-3.0608,-3.0608,-3.0608,-3.0608,-3.0884,-3.1361,-3.0846,-3.0608,-3.057,-3.003,-2.9792,-2.9792,-2.9792,-2.9792,-2.9792,-2.9792,-2.9106,-2.7924,-2.6883,-2.5797,-2.469,-2.4058,-2.3496,-2.3281,-2.4131,-2.4121,-2.3867,-2.4287,-2.4111,-2.3867,-2.4287,-2.4111,-2.3887,-2.4307,-2.5068,-2.5732,-2.5732,-2.5732,-2.5732,-2.5742,-2.5732,-2.611,-2.741,-2.8588,-2.9772,-3.1033,-3.2251,-3.3081,-3.3081,-3.3093,-3.3093,-3.3081,-3.3081,-3.3081,-3.3068,-3.1952,-3.1223,-3.1134,-2.9576,-2.792,-2.6383,-2.5753,-2.4897,-2.3869,-2.3369,-2.3135,-2.3135,-2.3135,-2.3135,-2.3135,-2.3135,-2.3135,-2.3135,-2.3135,-2.3135,-1.4935,0.0,0.0,0.0,0.0,0.0,0.0,0.0,0.0,0.0,0.0,0.0,0.0,0.0,0.0,0.0,0.0,0.0,0.0,0.0,0.0,0.0,0.0,0.0,0.0,0.0,0.0,0.0,0.0,0.0,0.0,0.0,0.0,0.0,-3.0118,-3.0043,-3.0043,-3.0043,-3.0043,-3.0043,-3.0043,-3.0319,-3.0821,-3.0281,-3.0043,-3.003,-2.9867,-2.9792,-2.9792,-2.9792,-2.9792,-2.9702,-2.8937,-2.7947,-2.6883,-2.5714,-2.4542,-2.357,-2.3369,-2.3242,-2.3232,-2.3799,-2.3682,-2.3408,-2.3848,-2.3672,-2.3418,-2.3857,-2.3887,-2.3887,-2.4307,-2.4834,-2.5273,-2.5273,-2.5273,-2.5352,-2.5674,-2.638,-2.74,-2.8588,-2.9863,-3.1045,-3.2339,-3.3121,-3.3658,-3.3658,-3.3985,-3.4098,-3.3709,-3.3319,-3.2797,-3.1865,-3.1412,-3.0496,-2.8762,-2.7877,-2.6823,-2.5508,-2.4716,-2.3989,-2.334,-2.3213,-2.3135,-2.3135,-2.3135,-2.3135,-2.3135,-2.3135,-2.3135,-2.3135,-2.3135,-2.3135,0.0,0.0,0.0,0.0,0.0,0.0,0.0,0.0,0.0,0.0,0.0,0.0,0.0,0.0,0.0,0.0,0.0,0.0,0.0,0.0,0.0,0.0,0.0,0.0,0.0,0.0,0.0,0.0,0.0,0.0,0.0,0.0,0.0,0.0,-2.9666,-2.9679,-2.9453,-2.9679,-2.9792,-2.9792,-2.9365,-2.9278,-2.9585,-2.9774,-2.9534,-2.9118,-2.9624,-2.9792,-2.9792,-2.9792,-2.9792,-2.9702,-2.8518,-2.7441,-2.6389,-2.521,-2.4049,-2.3135,-2.3135,-2.3135,-2.3184,-2.3447,-2.335,-2.3184,-2.3457,-2.335,-2.3193,-2.3457,-2.3525,-2.3594,-2.3838,-2.4228,-2.4648,-2.499,-2.5205,-2.541,-2.5684,-2.6668,-2.7955,-2.9131,-3.0406,-3.1589,-3.2884,-3.3357,-3.3571,-3.3571,-3.3859,-3.3947,-3.3608,-3.3282,-3.2797,-3.2052,-3.1045,-2.9863,-2.8402,-2.7139,-2.6007,-2.4918,-2.4326,-2.3769,-2.3164,-2.3135,-2.3135,-2.3135,-2.3135,-2.3135,-2.3135,-2.3135,-2.3135,-2.3135,-2.3135,-2.3135,0.0,0.0,0.0,0.0,0.0,0.0,0.0,0.0,0.0,0.0,0.0,0.0,0.0,0.0,0.0,0.0,0.0,0.0,0.0,0.0,0.0,0.0,0.0,0.0,0.0,0.0,0.0,0.0,0.0,0.0,0.0,0.0,0.0,0.0,-2.9365,-2.939,-2.885,-2.9288,-2.9474,0.0,-2.8421,-2.7853,-2.7773,-2.8924,-2.9028,-2.8176,-2.9287,-2.9792,-2.9792,-2.9792,-2.9714,-2.9534,-2.8438,-2.7279,-2.6224,-2.5052,-2.3963,-2.3135,-2.3135,-2.3135,-2.3144,-2.3184,-2.3164,-2.3144,-2.3184,-2.3164,-2.3135,-2.3135,-2.3135,-2.3135,-2.3135,-2.3467,-2.3994,-2.4814,-2.5437,-2.5781,-2.582,-2.6935,-2.8226,-2.9315,-3.0496,-3.1777,-3.2896,-3.3081,-3.3081,-3.3081,-3.3081,-3.3081,-3.3081,-3.3081,-3.2982,-3.2797,-3.0777,-2.9315,-2.9039,-2.6979,-2.5332,-2.4521,-2.4404,-2.4014,-2.3232,-2.3164,-2.3135,-2.3135,-2.3135,-2.3135,-2.3135,-2.3135,-2.3135,-2.3135,-2.3135,-2.3135,0.0,0.0,0.0,0.0,0.0,0.0,0.0,0.0,0.0,0.0,0.0,0.0,0.0,0.0,0.0,0.0,0.0,0.0,0.0,0.0,0.0,0.0,0.0,0.0,0.0,0.0,0.0,0.0,0.0,0.0,0.0,0.0,0.0,-2.8285,-2.8398,-2.8411,-2.8285,-2.7604,-2.7264,0.0,-2.6572,-2.5878,-2.5087,-2.6538,-2.7545,-2.8176,-2.9287,-2.9792,-2.9792,-2.9792,-2.9275,-2.8347,-2.729,-2.613,-2.5041,-2.3887,-2.3299,-2.3135,-2.3135,-2.3135,-2.3193,-2.3545,-2.3418,-2.3203,-2.3545,-2.3408,-2.3135,-2.3135,-2.3135,-2.3135,-2.3135,-2.3467,-2.3926,-2.4434,-2.5611,-2.6775,-2.7138,-2.8866,-3.0496,-3.0765,-3.1877,-3.2797,-3.3068,-3.3081,-3.3081,-3.3081,-3.3081,-3.3081,-3.3081,-3.3081,-3.2339,-3.0406,-2.9681,-2.8577,-2.6658,-2.5688,-2.5137,-2.4941,-2.4297,-2.3838,-2.3662,-2.332,-2.3135,-2.3135,-2.3135,-2.3135,-2.3135,-2.3135,-2.3135,-2.3135,-2.3135,-2.3135,0.0,0.0,0.0,0.0,0.0,0.0,0.0,0.0,0.0,0.0,0.0,0.0,0.0,0.0,0.0,0.0,0.0,0.0,0.0,0.0,0.0,0.0,0.0,0.0,0.0,0.0,0.0,0.0,0.0,0.0,0.0,-2.826,-2.7984,-2.772,-2.7971,-2.7615,-2.6709,-2.6419,-2.6071,-2.5611,-2.4815,-2.3972,-2.3186,-2.5491,-2.7001,-2.7908,-2.9254,-2.9792,-2.9792,-2.9792,-2.9106,-2.8004,-2.6883,-2.5797,-2.4617,-2.3551,-2.3135,-2.3135,-2.3135,-2.3135,-2.3174,-2.3408,-2.332,-2.3184,-2.3408,-2.332,-2.3135,-2.3135,-2.3135,-2.3135,-2.3135,-2.3613,-2.4092,-2.4111,-2.5145,-2.6288,-2.739,-2.9039,-3.0496,-3.1134,-3.2239,-3.3081,-3.3081,-3.3081,-3.3081,-3.3081,-3.3081,-3.3081,-3.3081,-3.3081,-3.2339,-3.0496,-2.9568,-2.8429,-2.6733,-2.5694,-2.498,-2.4775,-2.4336,-2.3906,-2.3496,-2.3262,-2.3135,-2.3135,-2.3135,-2.3135,-2.3135,-2.3135,-2.3135,-2.3135,-2.3135,-2.3135,0.0,0.0,0.0,0.0,0.0,0.0,0.0,0.0,0.0,0.0,0.0,0.0,0.0,0.0,0.0,0.0,0.0,0.0,0.0,0.0,0.0,0.0,0.0,0.0,0.0,0.0,0.0,0.0,0.0,0.0,-2.7821,-2.7645,-2.726,-2.6644,-2.7067,-2.6488,-2.4719,-2.4992,-2.473,-2.3974,-2.3043,-2.2349,-2.1879,-2.4684,-2.6439,-2.7281,-2.8638,-2.9378,-2.9456,-2.93,-2.853,-2.7429,-2.6543,-2.5557,-2.4372,-2.3464,-2.3135,-2.3135,-2.3135,-2.3135,-2.3135,-2.3135,-2.3135,-2.3135,-2.3135,-2.3135,-2.3135,-2.3135,-2.3135,-2.3135,-2.3135,-2.3672,-2.4131,-2.3857,-2.4559,-2.5802,-2.7462,-2.8984,-3.0316,-3.1311,-3.2426,-3.3081,-3.3081,-3.3081,-3.3081,-3.3081,-3.3081,-3.3081,-3.3081,-3.3081,-3.2513,-3.1045,-2.961,-2.8349,-2.7358,-2.5969,-2.4912,-2.4551,-2.4453,-2.4072,-2.3281,-2.3252,-2.3252,-2.3252,-2.3174,-2.3174,-2.3252,-2.3252,-2.3291,-2.3359,-2.3359,-2.332,0.0,0.0,0.0,0.0,0.0,0.0,0.0,0.0,0.0,0.0,0.0,0.0,0.0,0.0,0.0,0.0,0.0,0.0,0.0,0.0,0.0,0.0,0.0,0.0,0.0,0.0,0.0,0.0,0.0,0.0,-2.6653,-2.5774,-2.4868,-2.4025,-2.4097,-2.3644,-2.2605,-2.1837,-2.1578,-2.1839,-2.1544,-2.142,-2.1328,-2.306,-2.4668,-2.6086,-2.6666,-2.7464,-2.8267,-2.7302,-2.6295,-2.5199,-2.5126,-2.4296,-2.3299,-2.3135,-2.3135,-2.3135,-2.3135,-2.3135,-2.3135,-2.3135,-2.3135,-2.3135,-2.3135,-2.3135,-2.3135,-2.3135,-2.3135,-2.3135,-2.3135,-2.3223,-2.3389,-2.3711,-2.5027,-2.6573,-2.832,-3.0738,-3.2612,-3.2797,-3.2982,-3.3081,-3.3081,-3.3081,-3.3081,-3.3081,-3.3081,-3.3081,-3.3081,-3.3081,-3.2239,-2.9863,-2.9162,-2.7985,-2.6167,-2.5418,-2.5039,-2.498,-2.4619,-2.4199,-2.3721,-2.3701,-2.3701,-2.3701,-2.333,-2.332,-2.3701,-2.3701,-2.3887,-2.4248,-2.4248,-2.4053,0.0,0.0,0.0,0.0,0.0,0.0,0.0,0.0,0.0,0.0,0.0,0.0,0.0,0.0,0.0,0.0,0.0,0.0,0.0,0.0,0.0,0.0,0.0,0.0,0.0,0.0,0.0,0.0,0.0,-2.5573,-2.5548,-2.4587,-2.3923,-2.3501,-2.3021,-2.2196,-2.1032,-2.0631,-2.0315,-2.0212,-2.0414,-2.0625,-2.0869,-2.176,-2.2922,-2.4244,-2.5561,-2.6381,-2.6806,-2.6606,-2.5797,-2.4787,-2.4787,-2.4125,-2.3135,-2.3135,-2.3135,-2.3135,-2.3135,-2.3135,-2.3135,-2.3135,-2.3135,-2.3135,-2.3135,-2.3135,-2.3135,-2.3135,-2.3135,-2.3135,-2.3135,-2.332,-2.3486,-2.3437,-2.5306,-2.7382,-2.8219,-3.0302,-3.2239,-3.2982,-3.3081,-3.3081,-3.3081,-3.3081,-3.3081,-3.3081,-3.3081,-3.3081,-3.3081,-3.3081,-3.2152,-2.9681,-2.9071,-2.7985,-2.5887,-2.5322,-2.5068,-2.5068,-2.4893,-2.459,-2.416,-2.4141,-2.4141,-2.4141,-2.3955,-2.3945,-2.4141,-2.4141,-2.4238,-2.4414,-2.4414,-2.4316,0.0,0.0,0.0,0.0,0.0,0.0,0.0,0.0,0.0,0.0,0.0,0.0,0.0,0.0,0.0,0.0,0.0,0.0,0.0,0.0,0.0,0.0,0.0,0.0,0.0,0.0,0.0,0.0,0.0,-2.4604,-2.3949,-2.318,-2.2636,-2.2425,-2.1823,-2.0834,-1.9551,-1.9665,-1.9554,-1.9131,-1.9551,-1.9922,-2.0254,-2.0703,-2.135,-2.2226,-2.4046,-2.4982,-2.5256,-2.5437,-2.4966,-2.4217,-2.433,-2.3887,-2.3135,-2.3135,-2.3135,-2.3135,-2.3135,-2.3135,-2.3135,-2.3135,-2.3135,-2.3135,-2.3135,-2.3135,-2.3135,-2.3135,-2.3135,-2.3135,-2.3135,-2.3379,-2.3545,-2.3213,-2.5242,-2.7631,-2.8856,-3.0494,-3.1965,-3.2896,-3.3081,-3.3081,-3.3081,-3.3081,-3.3081,-3.3081,-3.3081,-3.2982,-3.2698,-3.2896,-3.2064,-2.9223,-2.8891,-2.7985,-2.5887,-2.5225,-2.4951,-2.5059,-2.4961,-2.4756,-2.4424,-2.4521,-2.458,-2.458,-2.4697,-2.4697,-2.458,-2.458,-2.4639,-2.4746,-2.4746,-2.4687,0.0,0.0,0.0,0.0,0.0,0.0,0.0,0.0,0.0,0.0,0.0,0.0,0.0,0.0,0.0,0.0,0.0,0.0,0.0,0.0,0.0,0.0,0.0,0.0,0.0,0.0,0.0,0.0,0.0,-2.2462,-2.1629,-2.1057,-2.0346,-1.9571,-1.9505,-1.9039,-1.8105,-1.8507,-1.8643,-1.8601,-1.9111,-1.9336,-1.9365,-1.9785,-1.998,-2.0124,-2.1509,-2.2686,-2.3566,-2.2922,-2.2709,-2.2663,-2.3065,-2.3135,-2.3135,-2.3135,-2.3135,-2.3135,-2.3135,-2.3135,-2.3135,-2.3135,-2.3135,-2.3135,-2.3135,-2.3135,-2.3135,-2.3135,-2.3135,-2.3135,-2.3135,-2.3154,-2.3164,-2.3144,-2.4405,-2.6867,-3.1064,-3.2557,-3.2982,-3.3081,-3.3081,-3.3081,-3.3081,-3.3081,-3.3081,-3.3081,-3.3081,-3.2698,-3.1412,-3.2326,-3.1701,-2.8049,-2.8357,-2.7985,-2.5887,-2.4941,-2.4629,-2.5039,-2.4678,-2.4443,-2.4414,-2.4814,-2.5029,-2.5029,-2.5449,-2.5459,-2.5029,-2.5029,-2.5254,-2.5664,-2.5664,-2.5439,0.0,0.0,0.0,0.0,0.0,0.0,0.0,0.0,0.0,0.0,0.0,0.0,0.0,0.0,0.0,0.0,0.0,0.0,0.0,0.0,0.0,0.0,0.0,0.0,0.0,0.0,0.0,0.0,0.0,0.0,-2.0935,-2.0172,-1.9628,-1.9299,-1.8787,-1.8337,-1.8008,-1.8154,-1.8369,-1.8562,-1.8799,-1.9014,-1.9287,-1.9443,-1.9658,-1.9941,-2.041,-2.1164,-2.205,-2.2375,-2.2353,-2.2178,-2.2871,-2.2969,-2.2773,-2.3037,-2.3135,-2.3135,-2.3135,-2.3135,-2.3135,-2.3135,-2.3135,-2.296,-2.2217,-2.2492,-2.295,-2.2129,-2.2492,-2.3135,-2.3135,-2.3135,-2.3299,-2.4049,-2.4885,-2.6249,-2.8588,-3.0638,-3.2001,-3.2001,-3.2001,-3.2102,-3.2453,-3.2516,-3.2641,-3.3018,-3.3081,-3.2982,-3.2513,-3.214,-3.1045,-2.8958,-2.8354,-2.7411,-2.582,-2.5439,-2.5332,-2.5488,-2.5352,-2.5264,-2.5264,-2.542,-2.5498,-2.5498,-2.5654,-2.5664,-2.5498,-2.5498,-2.5586,-2.5742,-2.5742,-2.5654,0.0,0.0,0.0,0.0,0.0,0.0,0.0,0.0,0.0,0.0,0.0,0.0,0.0,0.0,0.0,0.0,0.0,0.0,0.0,0.0,0.0,0.0,0.0,0.0,0.0,0.0,0.0,0.0,0.0,0.0,-1.9361,-1.8718,-1.8475,-1.8629,-1.8257,-1.8008,-1.8008,-1.8008,-1.8154,-1.8428,-1.8428,-1.8574,-1.8867,-1.9004,-1.9219,-1.9502,-1.9795,-2.0332,-2.1074,-2.1943,-2.2051,-2.1768,-2.2754,-2.2881,-2.2568,-2.2988,-2.3135,-2.3135,-2.3135,-2.3135,-2.3135,-2.3135,-2.3135,-2.296,-2.212,-2.2492,-2.295,-2.212,-2.2492,-2.3135,-2.3135,-2.3135,-2.3309,-2.4049,-2.4771,-2.5497,-2.6278,-2.8486,-3.0264,-3.0264,-3.0768,-3.1264,-3.1623,-3.2112,-3.2641,-3.3018,-3.3081,-3.2797,-3.1977,-3.15,-3.0406,-2.8402,-2.7861,-2.7125,-2.583,-2.5596,-2.5576,-2.5723,-2.5596,-2.5586,-2.5732,-2.5742,-2.5742,-2.5742,-2.5742,-2.5742,-2.5742,-2.5742,-2.5742,-2.5742,-2.5742,-2.5742,0.0,0.0,0.0,0.0,0.0,0.0,0.0,0.0,0.0,0.0,0.0,0.0,0.0,0.0,0.0,0.0,0.0,0.0,0.0,0.0,0.0,0.0,0.0,0.0,0.0,0.0,0.0,0.0,0.0,-1.8391,-1.6792,-1.6665,-1.6924,-1.7344,-1.7773,-1.7988,-1.7988,-1.8008,-1.8008,-1.8008,-1.8008,-1.8008,-1.8018,-1.8428,-1.8623,-1.8682,-1.9531,-2.0146,-2.0615,-2.1504,-2.1621,-2.1367,-2.2627,-2.2871,-2.2568,-2.2988,-2.3135,-2.3135,-2.3135,-2.3135,-2.3135,-2.3135,-2.3135,-2.3047,-2.3047,-2.3047,-2.3047,-2.3047,-2.3047,-2.3135,-2.3135,-2.3135,-2.3135,-2.3135,-2.3963,-2.4787,-2.4787,-2.6443,-2.7993,-2.8091,-2.9381,-3.0536,-3.0548,-3.197,-3.3056,-3.3068,-3.3081,-3.2239,-2.9772,-3.0496,-2.9761,-2.6197,-2.6849,-2.703,-2.583,-2.5332,-2.5273,-2.5713,-2.5332,-2.5283,-2.5723,-2.5742,-2.5742,-2.5742,-2.5742,-2.5742,-2.5742,-2.5742,-2.5742,-2.5742,-2.5742,-2.5742,-1.4951,0.0,0.0,0.0,0.0,0.0,0.0,0.0,0.0,0.0,0.0,0.0,0.0,0.0,0.0,0.0,0.0,0.0,0.0,0.0,0.0,0.0,0.0,0.0,0.0,0.0,0.0,0.0,-1.8583,-1.7811,-1.6728,-1.6665,-1.6787,-1.6914,-1.7334,-1.7559,-1.7559,-1.7852,-1.8008,-1.8008,-1.8008,-1.8008,-1.8018,-1.8135,-1.835,-1.8592,-1.9219,-1.9697,-2.0156,-2.1045,-2.1348,-2.1338,-2.2305,-2.2617,-2.2568,-2.2988,-2.3135,-2.3135,-2.3135,-2.3135,-2.3135,-2.3135,-2.3135,-2.295,-2.2031,-2.2403,-2.295,-2.2031,-2.2403,-2.3135,-2.3135,-2.3135,-2.3135,-2.3135,-2.3299,-2.3551,-2.3551,-2.4079,-2.503,-2.6993,-2.7967,-2.8941,-3.0206,-3.0829,-3.1601,-3.292,-3.3081,-3.2884,-3.2152,-3.0777,-2.9498,-2.8495,-2.7115,-2.611,-2.5732,-2.5625,-2.5605,-2.5732,-2.5625,-2.5605,-2.5732,-2.5742,-2.5742,-2.5742,-2.5742,-2.5742,-2.5742,-2.5742,-2.5742,-2.5742,-2.5742,-2.5742,0.0,0.0,0.0,0.0,0.0,0.0,0.0,-1.1931,0.0,0.0,0.0,0.0,0.0,0.0,0.0,0.0,0.0,0.0,0.0,0.0,0.0,0.0,0.0,0.0,0.0,0.0,0.0,-1.8553,-1.7809,-1.6999,-1.6182,-1.6348,-1.6455,-1.6455,-1.6885,-1.7197,-1.7383,-1.7627,-1.7842,-1.8008,-1.8008,-1.8008,-1.8008,-1.8008,-1.8144,-1.8398,-1.8828,-1.9258,-1.9707,-2.04,-2.0791,-2.1055,-2.21,-2.2402,-2.2324,-2.292,-2.3135,-2.3135,-2.3135,-2.3135,-2.3135,-2.3135,-2.3135,-2.296,-2.2217,-2.258,-2.296,-2.2217,-2.258,-2.3135,-2.3135,-2.3135,-2.3135,-2.3135,-2.3135,-2.3135,-2.3135,-2.3281,-2.3771,-2.5186,-2.6324,-2.7569,-2.9184,-3.0126,-3.1156,-3.2521,-3.2717,-3.2534,-3.1994,-3.0271,-2.9001,-2.8659,-2.6839,-2.5742,-2.5742,-2.5742,-2.5742,-2.5742,-2.5742,-2.5742,-2.5742,-2.5742,-2.5742,-2.5742,-2.5742,-2.5742,-2.5742,-2.5742,-2.5742,-2.5742,-2.5742,-2.5742,0.0,0.0,0.0,0.0,0.0,0.0,-1.091,-1.1326,-1.1968,0.0,0.0,0.0,0.0,0.0,0.0,0.0,0.0,0.0,0.0,0.0,0.0,0.0,0.0,0.0,0.0,-1.9008,-1.8286,-1.7633,-1.681,-1.6093,-1.541,-1.5781,-1.6076,-1.6125,-1.6445,-1.6894,-1.7373,-1.7383,-1.7598,-1.8008,-1.8076,-1.8076,-1.8008,-1.8076,-1.8076,-1.8037,-1.8457,-1.8857,-1.9248,-1.9717,-2.0205,-2.0752,-2.1914,-2.2207,-2.2041,-2.2793,-2.3096,-2.3135,-2.3135,-2.3135,-2.3135,-2.3135,-2.3135,-2.3135,-2.3135,-2.3135,-2.3135,-2.3135,-2.3135,-2.3135,-2.3135,-2.3135,-2.3135,-2.3135,-2.3135,-2.3135,-2.3135,-2.3447,-2.3603,-2.3378,-2.4948,-2.6708,-2.7852,-2.9729,-3.1252,-3.2022,-3.2127,-3.1682,-3.0453,-2.9343,-2.8305,-2.7557,-2.6446,-2.5742,-2.5742,-2.5742,-2.5742,-2.5742,-2.5742,-2.5742,-2.5742,-2.5742,-2.5732,-2.5927,-2.5927,-2.583,-2.5742,-2.5742,-2.5742,-2.5742,-2.5742,-2.5732,0.0,0.0,0.0,0.0,0.0,0.0,-1.1129,-1.1311,-1.1766,0.0,0.0,0.0,0.0,0.0,0.0,0.0,0.0,0.0,0.0,0.0,0.0,0.0,0.0,0.0,0.0,-1.8319,-1.7743,-1.7633,-1.6358,-1.5526,-1.541,-1.5498,-1.5703,-1.6115,-1.6213,-1.6582,-1.7373,-1.7383,-1.7598,-1.8008,-1.8721,-1.8654,-1.8008,-1.8721,-1.8654,-1.8037,-1.8457,-1.8682,-1.8828,-1.96,-2.0391,-2.1133,-2.1387,-2.1855,-2.2412,-2.2578,-2.2852,-2.3135,-2.3135,-2.3135,-2.3135,-2.3135,-2.3135,-2.3135,-2.3135,-2.3135,-2.3135,-2.3135,-2.3135,-2.3135,-2.3135,-2.3135,-2.3135,-2.3135,-2.3135,-2.3135,-2.3135,-2.3203,-2.3485,-2.4317,-2.5378,-2.654,-2.7754,-2.9051,-3.0278,-3.1397,-3.1549,-3.1125,-3.0085,-2.9137,-2.8173,-2.7197,-2.6265,-2.5742,-2.5742,-2.5742,-2.5742,-2.5742,-2.5742,-2.5742,-2.5742,-2.5742,-2.6197,-2.722,-2.722,-2.6754,-2.5742,-2.5742,-2.5742,-2.5742,-2.5742,-2.6294,0.0,0.0,0.0,-1.1646,0.0,0.0,0.0,-1.1091,-1.1785,0.0,0.0,0.0,0.0,0.0,0.0,0.0,0.0,0.0,0.0,0.0,0.0,0.0,0.0,0.0,0.0,-1.7711,-1.6983,-1.6564,-1.5806,-1.541,-1.541,-1.541,-1.5508,-1.5732,-1.5732,-1.6162,-1.7051,-1.7061,-1.7275,-1.7695,-1.8808,-1.892,-1.8319,-1.9007,-1.9044,-1.8674,-1.8429,-1.8437,-1.8621,-1.9336,-1.999,-2.0615,-2.1064,-2.1631,-2.2227,-2.2432,-2.2783,-2.3135,-2.3135,-2.3135,-2.3135,-2.3135,-2.3135,-2.3135,-2.3135,-2.3135,-2.3135,-2.3135,-2.3135,-2.3135,-2.3135,-2.3551,-2.3963,-2.3963,-2.4382,-2.4808,-2.4808,-2.4808,-2.4967,-2.5557,-2.6433,-2.7352,-2.828,-2.9054,-2.9917,-3.0873,-3.0997,-3.0567,-2.9534,-2.8471,-2.7503,-2.6679,-2.5661,-2.5166,-2.5381,-2.54,-2.5498,-2.5723,-2.5742,-2.6014,-2.6668,-2.6668,-2.721,-2.8495,-2.8495,-2.8226,-2.7579,-2.7579,-2.721,-2.6658,-2.7305,-2.7851,0.0,0.0,0.0,0.0,0.0,-1.0194,0.0,0.0,0.0,0.0,0.0,0.0,0.0,0.0,0.0,0.0,0.0,0.0,0.0,0.0,0.0,0.0,0.0,0.0,0.0,-1.73,-1.6634,-1.576,-1.5756,-1.5796,-1.5796,-1.569,-1.573,-1.5926,-1.5624,-1.595,-1.7139,-1.7034,-1.7252,-1.7875,-1.9049,-1.9329,-1.8742,-1.9156,-1.928,-1.8977,-1.8337,-1.8203,-1.8555,-1.9072,-1.9482,-1.9883,-2.0762,-2.1377,-2.1816,-2.2236,-2.2656,-2.3027,-2.3105,-2.3135,-2.3135,-2.3135,-2.3135,-2.3135,-2.3135,-2.3135,-2.3135,-2.3135,-2.3135,-2.3135,-2.3135,-2.3963,-2.4787,-2.4787,-2.563,-2.6483,-2.6483,-2.6483,-2.6483,-2.6483,-2.7371,-2.8226,-2.8643,-2.9248,-2.9828,-3.0348,-3.0457,-2.9942,-2.8644,-2.7638,-2.6746,-2.5915,-2.4987,-2.459,-2.5029,-2.5068,-2.5254,-2.5713,-2.5742,-2.6294,-2.7589,-2.8049,-2.868,-2.9407,-2.959,-2.959,-2.9407,-2.959,-2.9131,-2.7955,-2.8958,-2.9498,0.0,0.0,0.0,0.0,-1.0915,0.0,0.0,0.0,0.0,0.0,0.0,0.0,0.0,0.0,0.0,0.0,0.0,0.0,0.0,0.0,0.0,0.0,0.0,0.0,0.0,0.0,-1.7439,-1.6707,-1.7049,-1.7357,-1.7357,-1.6754,-1.6899,-1.7939,-1.6287,-1.6453,-1.8611,-1.8097,-1.8392,-1.9456,-2.0389,-2.0245,-1.9215,-1.953,-1.9083,-1.8134,-1.8008,-1.8037,-1.8144,-1.8955,-1.9316,-1.9443,-2.0303,-2.0918,-2.1357,-2.1797,-2.2217,-2.2637,-2.3008,-2.3135,-2.3135,-2.3135,-2.3135,-2.3135,-2.3135,-2.3135,-2.3135,-2.3135,-2.3135,-2.3135,-2.3135,-2.3963,-2.4787,-2.4787,-2.563,-2.6483,-2.6483,-2.6483,-2.6483,-2.6483,-2.7371,-2.8108,-2.8167,-2.9083,-2.9786,-2.9892,-2.988,-2.9138,-2.7056,-2.6931,-2.6368,-2.4287,-2.4281,-2.459,-2.5029,-2.5068,-2.5254,-2.5713,-2.5742,-2.6294,-2.7589,-2.9681,-3.0316,-2.9407,-3.0496,-3.0496,-2.9407,-3.0485,-3.0406,-2.9223,-2.9315,-2.9954,0.0,0.0,0.0,0.0,0.0,0.0,0.0,0.0,-1.2056,0.0,0.0,0.0,0.0,0.0,0.0,0.0,0.0,0.0,0.0,0.0,0.0,0.0,0.0,0.0,0.0,0.0,0.0,0.0,0.0,-1.7154,-1.7154,-1.7148,-1.7401,-1.7879,-1.7121,-1.7291,-1.8558,-1.8276,-1.8434,-1.8929,-2.0296,-2.06,-1.9923,-2.0171,-1.9942,-1.9431,-1.8462,-1.8008,-1.8076,-1.8936,-1.9287,-1.9375,-2.0225,-2.084,-2.1289,-2.1728,-2.2148,-2.2578,-2.2988,-2.3135,-2.3135,-2.3135,-2.3135,-2.3135,-2.3135,-2.3135,-2.3135,-2.3135,-2.3135,-2.3212,-2.3877,-2.4967,-2.5964,-2.6614,-2.7614,-2.8383,-2.8383,-2.8383,-2.8211,-2.7533,-2.7763,-2.8096,-2.8096,-2.9028,-2.9546,-2.8937,-2.8767,-2.8279,-2.673,-2.6056,-2.5167,-2.3575,-2.3564,-2.3848,-2.4287,-2.4551,-2.5145,-2.6337,-2.7971,-2.912,-2.9681,-3.1412,-3.2052,-3.1601,-3.2052,-3.2064,-3.1512,-3.2052,-3.2052,-3.1512,-3.1512,-3.1789,-1.2305,0.0,0.0,0.0,0.0,0.0,0.0,0.0,0.0,0.0,0.0,0.0,0.0,0.0,0.0,0.0,0.0,0.0,0.0,0.0,0.0,0.0,0.0,0.0,0.0,0.0,0.0,0.0,-1.688,-1.7226,-1.7427,-1.7562,-1.7867,-1.8167,-1.7633,-1.7745,-1.8732,-1.8476,-1.8508,-1.8816,-2.037,-2.0748,-2.0081,-2.0308,-2.02,-1.9814,-1.8529,-1.8076,-1.8242,-1.8984,-1.9355,-1.9531,-2.0273,-2.0762,-2.1103,-2.1543,-2.1973,-2.2402,-2.2822,-2.3047,-2.3135,-2.3135,-2.3135,-2.3135,-2.3135,-2.3135,-2.3135,-2.3464,-2.3551,-2.38,-2.4957,-2.613,-2.7116,-2.7924,-2.8937,-2.9792,-2.9792,-2.9792,-2.9456,-2.8347,-2.8096,-2.7924,-2.7267,-2.8359,-2.9184,-2.8597,-2.8267,-2.7683,-2.6648,-2.5462,-2.4372,-2.3222,-2.3135,-2.3359,-2.3916,-2.4594,-2.5727,-2.7494,-2.9839,-3.1223,-3.1223,-3.2426,-3.3156,-3.3307,-3.3307,-3.337,-3.3533,-3.3533,-3.3533,-3.352,-3.3219,-3.3081,0.0,0.0,0.0,-1.1937,0.0,0.0,0.0,0.0,-1.2587,0.0,0.0,0.0,0.0,0.0,0.0,-1.6749,0.0,0.0,0.0,0.0,0.0,0.0,0.0,0.0,0.0,0.0,0.0,-1.7355,-1.7869,-1.8359,-1.8896,-1.8283,-1.8461,-1.9683,-1.7633,-1.7589,-1.972,-1.8931,-1.9034,-2.0145,-2.1075,-2.0724,-1.9312,-1.9624,-1.9116,-1.8076,-1.8008,-1.8242,-1.8652,-1.9102,-1.9531,-1.9941,-2.0391,-2.0576,-2.0644,-2.1094,-2.1533,-2.1963,-2.2383,-2.2793,-2.3135,-2.3135,-2.3135,-2.3135,-2.3135,-2.3135,-2.3299,-2.4457,-2.4787,-2.5041,-2.6141,-2.7197,-2.8084,-2.8096,-2.8937,-2.9792,-2.9792,-2.9792,-2.9456,-2.8347,-2.8096,-2.7429,-2.5284,-2.6685,-2.8518,-2.9611,-2.8767,-2.7683,-2.6648,-2.5462,-2.4372,-2.3222,-2.3135,-2.3486,-2.4326,-2.5552,-2.7104,-2.9226,-3.0485,-3.1223,-3.1223,-3.2426,-3.3332,-3.3859,-3.3872,-3.4135,-3.4675,-3.4675,-3.4675,-3.4638,-3.3571,-3.3081,0.0,0.0,-1.2278,-1.2178,0.0,0.0,0.0,0.0,0.0,0.0,0.0,0.0,0.0,0.0,-1.592,-1.6944,-1.8022,0.0,0.0,0.0,0.0,0.0,0.0,0.0,0.0,0.0,0.0,-1.681,-1.7338,-1.7739,0.0,-1.8363,-1.8834,-1.9284,-1.8875,-1.9044,-1.9798,-1.9503,-1.948,-1.966,-2.0902,-2.084,-1.9583,-2.0065,-1.9792,-1.8854,-1.8269,-1.8252,-1.8672,-1.9111,-1.9531,-1.9961,-2.0391,-2.0566,-2.0625,-2.1064,-2.1514,-2.1992,-2.2685,-2.3018,-2.3135,-2.3135,-2.3135,-2.3135,-2.3135,-2.3637,-2.4296,-2.4702,-2.5378,-2.6213,-2.7279,-2.7844,-2.8267,-2.9028,-2.9534,-2.9792,-2.9792,-2.9792,-2.9456,-2.8347,-2.7522,-2.6789,-2.6047,-2.5953,-2.6036,-2.6449,-2.6191,-2.5786,-2.5462,-2.4382,-2.3551,-2.3135,-2.3135,-2.3505,-2.4553,-2.7117,-2.9143,-3.0528,-3.1777,-3.2426,-3.2426,-3.2884,-3.3332,-3.3884,-3.3897,-3.4173,-3.4726,-3.4349,-3.4361,-3.47,-3.396,-3.3822,-1.2305,-1.2305,0.0,-1.2305,-1.2164,0.0,-1.2024,0.0,0.0,0.0,0.0,0.0,0.0,0.0,0.0,-1.7167,-1.8223,-1.8857,0.0,-1.8059,0.0,0.0,0.0,0.0,0.0,0.0,-1.6522,-1.6522,-1.6861,-1.7162,0.0,0.0,-1.8819,-1.897,-1.9267,-1.9527,-1.9798,-1.9527,-1.9429,-1.94,-2.0816,-2.0744,-1.9291,-2.0164,-1.9955,-1.8787,-1.8269,-1.834,-1.8887,-1.917,-1.9629,-2.0176,-2.0449,-2.0566,-2.0596,-2.0889,-2.1377,-2.2012,-2.2852,-2.3135,-2.3135,-2.3135,-2.3135,-2.3135,-2.3135,-2.3887,-2.4872,-2.5294,-2.6213,-2.729,-2.8438,-2.8688,-2.8858,-2.9624,-2.9792,-2.9792,-2.9792,-2.9792,-2.9611,-2.8858,-2.7545,-2.6483,-2.6483,-2.5221,-2.4457,-2.5294,-2.5041,-2.4787,-2.4787,-2.38,-2.3135,-2.3135,-2.3135,-2.3844,-2.5851,-2.8499,-3.0589,-3.1816,-3.2612,-3.3081,-3.3081,-3.3269,-3.3633,-3.4173,-3.4198,-3.4462,-3.5014,-3.4663,-3.4663,-3.5014,-3.4851,-3.4964]},{"header":{"parameterUnit":"m.s-1","parameterCategory":1,"la1":30.6,"la2":29.2853,"lo1":-89.7004,"lo2":-87.6739,"dy":0.0162,"dx":0.0183,"nx":112,"ny":82,"refTime":"2023-07-10T12:00:00:Z","depth":0,"parameterNumber":3,"parameterNumberName":"V-component_of_WINDS"},"data":[0.0,0.0,0.0,0.0,0.0,0.0,0.0,0.0,0.0,0.0,0.0,0.0,0.0,0.0,0.0,0.0,0.0,0.0,0.0,0.0,0.0,0.0,0.0,0.0,0.0,0.0,0.0,0.0,0.0,0.0,0.0,0.0,0.0,0.0,0.0,0.0,0.0,0.0,0.0,0.0,0.0,0.0,0.0,0.0,0.0,0.0,0.0,0.0,0.0,0.0,0.0,0.0,0.0,0.0,0.0,0.0,0.0,0.0,0.0,0.0,0.0,0.0,0.0,0.0,0.0,0.0,0.0,0.0,0.0,0.0,0.0,0.0,0.0,0.0,0.0,0.0,0.0,0.0,0.0,0.0,0.0,0.0,0.0,0.0,0.0,0.0,0.0,0.0,0.0,0.0,0.0,-2.4608,-2.6981,-2.8411,-2.8411,-2.7465,-2.6258,-2.478,0.0,0.0,0.0,0.0,0.0,0.0,0.0,0.0,0.0,0.0,0.0,0.0,0.0,0.0,0.0,0.0,0.0,0.0,0.0,0.0,0.0,0.0,0.0,0.0,0.0,0.0,0.0,0.0,0.0,0.0,0.0,0.0,0.0,0.0,0.0,0.0,0.0,0.0,0.0,0.0,0.0,0.0,0.0,0.0,0.0,0.0,0.0,0.0,0.0,0.0,0.0,0.0,0.0,0.0,0.0,0.0,0.0,0.0,0.0,0.0,0.0,0.0,0.0,0.0,0.0,0.0,0.0,0.0,0.0,0.0,0.0,0.0,0.0,0.0,0.0,0.0,0.0,0.0,0.0,0.0,0.0,0.0,0.0,0.0,0.0,0.0,0.0,0.0,0.0,0.0,0.0,0.0,0.0,0.0,0.0,0.0,0.0,0.0,0.0,0.0,0.0,0.0,0.0,0.0,-2.3224,-2.6048,-2.8429,-2.9808,-2.9808,-2.7921,-2.6371,-2.5507,0.0,0.0,0.0,0.0,0.0,0.0,0.0,0.0,0.0,0.0,0.0,0.0,0.0,0.0,0.0,0.0,0.0,0.0,0.0,0.0,0.0,0.0,0.0,0.0,0.0,0.0,0.0,0.0,0.0,0.0,0.0,0.0,0.0,0.0,0.0,0.0,0.0,0.0,0.0,0.0,0.0,0.0,0.0,0.0,0.0,0.0,0.0,0.0,0.0,0.0,0.0,0.0,0.0,0.0,0.0,0.0,0.0,0.0,0.0,0.0,0.0,0.0,0.0,0.0,0.0,0.0,0.0,0.0,0.0,0.0,0.0,0.0,0.0,0.0,0.0,0.0,0.0,0.0,0.0,0.0,0.0,0.0,0.0,0.0,0.0,0.0,0.0,0.0,0.0,0.0,0.0,0.0,0.0,0.0,0.0,0.0,0.0,0.0,0.0,0.0,0.0,0.0,0.0,-2.3596,-2.4763,-2.6505,-2.8366,-2.933,-2.8907,-2.6793,-2.5355,-2.5017,-2.3782,0.0,0.0,0.0,0.0,0.0,0.0,0.0,0.0,0.0,0.0,0.0,0.0,0.0,0.0,0.0,0.0,0.0,0.0,0.0,0.0,0.0,0.0,0.0,0.0,0.0,0.0,0.0,0.0,0.0,0.0,0.0,0.0,0.0,0.0,0.0,0.0,0.0,0.0,0.0,0.0,0.0,0.0,0.0,0.0,0.0,0.0,0.0,0.0,0.0,0.0,0.0,0.0,0.0,0.0,0.0,0.0,0.0,0.0,0.0,0.0,0.0,0.0,0.0,0.0,0.0,0.0,0.0,0.0,0.0,0.0,0.0,0.0,0.0,0.0,0.0,0.0,0.0,0.0,0.0,0.0,0.0,0.0,0.0,0.0,0.0,0.0,0.0,0.0,0.0,0.0,0.0,0.0,0.0,0.0,0.0,0.0,0.0,0.0,0.0,0.0,0.0,0.0,-2.4695,-2.5964,-2.686,-2.818,-2.8738,-2.8146,-2.5797,-2.4413,-2.4492,-2.2878,0.0,0.0,0.0,0.0,0.0,0.0,0.0,0.0,0.0,0.0,0.0,0.0,0.0,0.0,0.0,0.0,0.0,0.0,0.0,0.0,0.0,0.0,0.0,0.0,0.0,0.0,0.0,0.0,0.0,0.0,0.0,0.0,0.0,0.0,0.0,0.0,0.0,0.0,0.0,0.0,0.0,0.0,0.0,0.0,0.0,0.0,0.0,0.0,0.0,0.0,0.0,0.0,0.0,0.0,0.0,0.0,0.0,0.0,0.0,0.0,0.0,0.0,0.0,0.0,0.0,0.0,0.0,0.0,0.0,0.0,0.0,0.0,0.0,0.0,0.0,0.0,0.0,0.0,0.0,0.0,0.0,0.0,0.0,0.0,0.0,0.0,0.0,0.0,0.0,0.0,0.0,0.0,0.0,0.0,0.0,0.0,0.0,0.0,0.0,0.0,0.0,0.0,-2.4695,-2.6167,-2.7553,-2.8484,-2.8958,-2.8907,-2.5899,-2.4193,-2.4475,-2.2107,0.0,0.0,0.0,0.0,0.0,0.0,0.0,0.0,0.0,0.0,0.0,0.0,0.0,0.0,0.0,0.0,0.0,0.0,0.0,0.0,0.0,0.0,0.0,0.0,0.0,0.0,0.0,0.0,0.0,0.0,0.0,0.0,0.0,0.0,0.0,0.0,0.0,0.0,0.0,0.0,0.0,0.0,0.0,0.0,0.0,0.0,0.0,0.0,0.0,0.0,0.0,0.0,0.0,0.0,0.0,0.0,0.0,0.0,0.0,0.0,0.0,0.0,0.0,0.0,0.0,0.0,0.0,0.0,0.0,0.0,0.0,0.0,0.0,0.0,0.0,0.0,0.0,0.0,0.0,0.0,0.0,0.0,0.0,0.0,0.0,0.0,0.0,0.0,0.0,0.0,0.0,0.0,0.0,0.0,0.0,0.0,0.0,0.0,0.0,0.0,0.0,0.0,-2.5372,-2.6674,0.0,-2.8518,-2.8789,-2.8298,-2.5597,-2.4097,-2.4475,0.0,0.0,0.0,0.0,0.0,0.0,0.0,0.0,0.0,0.0,0.0,0.0,0.0,0.0,0.0,0.0,0.0,0.0,0.0,0.0,0.0,0.0,0.0,0.0,0.0,0.0,0.0,0.0,0.0,0.0,0.0,0.0,0.0,0.0,0.0,0.0,0.0,0.0,0.0,0.0,0.0,0.0,0.0,0.0,0.0,0.0,0.0,0.0,0.0,0.0,0.0,0.0,0.0,0.0,0.0,0.0,0.0,0.0,0.0,0.0,0.0,0.0,0.0,0.0,0.0,0.0,0.0,0.0,0.0,0.0,0.0,0.0,0.0,0.0,0.0,0.0,0.0,0.0,0.0,0.0,0.0,0.0,0.0,0.0,0.0,0.0,0.0,0.0,0.0,0.0,0.0,0.0,0.0,0.0,0.0,0.0,0.0,0.0,0.0,0.0,0.0,0.0,-2.3985,-2.5439,-2.664,0.0,-2.8146,-2.8328,-2.7645,-2.5112,-2.3767,-2.4206,0.0,0.0,0.0,0.0,0.0,0.0,0.0,0.0,0.0,0.0,0.0,0.0,0.0,0.0,0.0,0.0,0.0,0.0,0.0,0.0,0.0,0.0,0.0,0.0,0.0,0.0,0.0,0.0,0.0,0.0,0.0,0.0,0.0,0.0,0.0,0.0,0.0,0.0,0.0,0.0,0.0,0.0,0.0,0.0,0.0,0.0,0.0,0.0,0.0,0.0,0.0,0.0,0.0,0.0,0.0,0.0,0.0,0.0,0.0,0.0,0.0,0.0,0.0,0.0,0.0,0.0,0.0,0.0,0.0,0.0,0.0,0.0,0.0,0.0,0.0,0.0,0.0,0.0,0.0,0.0,0.0,0.0,0.0,0.0,0.0,0.0,0.0,0.0,0.0,0.0,0.0,0.0,0.0,0.0,0.0,0.0,0.0,0.0,0.0,0.0,0.0,0.0,-2.3325,-2.4712,-2.5896,-2.6623,-2.7368,-2.7595,-2.7156,-2.4497,-2.3124,0.0,0.0,0.0,0.0,0.0,0.0,0.0,0.0,0.0,0.0,0.0,0.0,0.0,0.0,0.0,0.0,0.0,0.0,0.0,0.0,0.0,0.0,0.0,0.0,0.0,0.0,0.0,0.0,0.0,0.0,0.0,0.0,0.0,0.0,0.0,0.0,0.0,0.0,0.0,0.0,0.0,0.0,0.0,0.0,0.0,0.0,0.0,0.0,0.0,0.0,0.0,0.0,0.0,0.0,0.0,0.0,0.0,0.0,0.0,0.0,0.0,0.0,0.0,0.0,0.0,0.0,0.0,0.0,0.0,0.0,0.0,0.0,0.0,0.0,0.0,0.0,0.0,0.0,0.0,0.0,0.0,0.0,0.0,0.0,0.0,0.0,0.0,0.0,0.0,0.0,0.0,0.0,0.0,0.0,0.0,0.0,0.0,0.0,0.0,0.0,0.0,0.0,0.0,-2.4729,-2.5338,-2.6082,-2.7351,-2.7654,-2.7737,-2.7595,-2.484,-2.3457,-2.4223,0.0,0.0,0.0,0.0,0.0,0.0,0.0,0.0,0.0,0.0,0.0,0.0,0.0,0.0,0.0,0.0,0.0,0.0,0.0,0.0,0.0,0.0,0.0,0.0,0.0,0.0,0.0,0.0,0.0,0.0,0.0,0.0,0.0,0.0,0.0,0.0,0.0,0.0,0.0,0.0,0.0,0.0,0.0,0.0,0.0,0.0,0.0,0.0,0.0,0.0,0.0,0.0,0.0,0.0,0.0,0.0,0.0,0.0,0.0,0.0,0.0,0.0,0.0,0.0,0.0,0.0,0.0,0.0,0.0,0.0,0.0,0.0,0.0,0.0,0.0,0.0,0.0,0.0,0.0,0.0,0.0,0.0,0.0,0.0,0.0,0.0,0.0,0.0,0.0,0.0,0.0,0.0,0.0,0.0,0.0,0.0,0.0,0.0,0.0,0.0,0.0,0.0,-2.456,-2.4983,-2.5507,-2.6404,-2.7012,-2.718,-2.6652,-2.4674,-2.3505,-2.3503,0.0,0.0,0.0,0.0,0.0,0.0,0.0,0.0,0.0,0.0,0.0,0.0,0.0,0.0,0.0,0.0,0.0,0.0,0.0,0.0,0.0,0.0,0.0,0.0,0.0,0.0,0.0,0.0,0.0,0.0,0.0,0.0,0.0,0.0,0.0,0.0,0.0,0.0,0.0,0.0,0.0,0.0,0.0,0.0,0.0,0.0,0.0,0.0,0.0,0.0,0.0,0.0,0.0,0.0,0.0,0.0,0.0,0.0,0.0,0.0,0.0,0.0,0.0,0.0,0.0,0.0,0.0,0.0,0.0,0.0,0.0,0.0,0.0,0.0,0.0,0.0,0.0,0.0,0.0,0.0,0.0,0.0,0.0,0.0,0.0,0.0,0.0,0.0,0.0,0.0,0.0,0.0,0.0,0.0,0.0,0.0,0.0,0.0,0.0,0.0,0.0,0.0,-2.368,-2.4154,-2.4557,-2.4709,-2.5896,-2.6202,-2.4992,-2.4265,-2.3375,-2.2195,0.0,0.0,0.0,0.0,0.0,0.0,0.0,0.0,0.0,0.0,0.0,0.0,0.0,0.0,0.0,0.0,0.0,0.0,0.0,0.0,0.0,0.0,0.0,0.0,0.0,0.0,0.0,0.0,0.0,0.0,0.0,0.0,0.0,0.0,0.0,0.0,0.0,0.0,0.0,0.0,0.0,0.0,0.0,0.0,0.0,0.0,0.0,0.0,0.0,0.0,0.0,0.0,0.0,0.0,0.0,0.0,0.0,0.0,0.0,0.0,-2.3709,0.0,0.0,0.0,0.0,0.0,0.0,0.0,0.0,0.0,0.0,0.0,0.0,0.0,0.0,0.0,0.0,0.0,0.0,0.0,0.0,0.0,0.0,0.0,0.0,0.0,0.0,0.0,0.0,0.0,0.0,0.0,0.0,0.0,0.0,0.0,0.0,0.0,0.0,0.0,0.0,0.0,-2.5761,-2.5101,-2.4946,-2.6099,-2.6505,-2.6353,-2.5479,-2.4481,-2.3653,-2.314,-2.2162,0.0,0.0,0.0,0.0,0.0,0.0,0.0,0.0,0.0,0.0,0.0,0.0,0.0,0.0,0.0,0.0,0.0,0.0,0.0,0.0,0.0,0.0,0.0,0.0,0.0,0.0,0.0,0.0,0.0,0.0,0.0,0.0,0.0,0.0,0.0,0.0,0.0,0.0,0.0,0.0,0.0,0.0,0.0,0.0,0.0,0.0,0.0,0.0,0.0,0.0,0.0,0.0,0.0,0.0,0.0,0.0,0.0,0.0,0.0,0.0,-2.3173,0.0,0.0,0.0,0.0,0.0,0.0,0.0,0.0,0.0,0.0,0.0,0.0,0.0,0.0,0.0,0.0,0.0,0.0,0.0,0.0,0.0,0.0,0.0,0.0,0.0,0.0,0.0,0.0,0.0,0.0,0.0,0.0,0.0,0.0,0.0,0.0,0.0,0.0,0.0,0.0,-2.5981,-2.5186,-2.4915,-2.6048,-2.6488,-2.6251,-2.5152,-2.4149,-2.3178,-2.2302,-2.1642,0.0,0.0,0.0,0.0,0.0,0.0,0.0,0.0,0.0,0.0,0.0,0.0,0.0,0.0,0.0,0.0,0.0,0.0,0.0,0.0,0.0,0.0,0.0,0.0,0.0,0.0,0.0,0.0,0.0,0.0,0.0,0.0,0.0,0.0,0.0,0.0,0.0,0.0,0.0,0.0,0.0,0.0,0.0,0.0,0.0,0.0,0.0,0.0,0.0,0.0,0.0,0.0,0.0,-2.9973,-3.0328,-3.2662,-3.0159,-2.9025,-2.889,-2.6454,-2.5101,-2.4746,0.0,0.0,0.0,0.0,0.0,0.0,0.0,0.0,0.0,0.0,0.0,0.0,0.0,0.0,0.0,0.0,0.0,0.0,0.0,0.0,0.0,0.0,0.0,0.0,0.0,-2.9651,-2.9296,0.0,0.0,0.0,0.0,0.0,0.0,0.0,0.0,0.0,0.0,0.0,0.0,-2.571,-2.5152,-2.5017,-2.5896,-2.6302,-2.5947,-2.4625,-2.3736,-2.2637,-2.1199,-2.1181,-2.1246,0.0,0.0,0.0,0.0,0.0,0.0,0.0,0.0,0.0,0.0,0.0,0.0,0.0,0.0,0.0,0.0,0.0,0.0,0.0,0.0,0.0,0.0,0.0,0.0,0.0,0.0,0.0,0.0,0.0,0.0,0.0,0.0,-1.8736,-1.8771,0.0,0.0,0.0,0.0,0.0,0.0,0.0,0.0,0.0,0.0,0.0,0.0,0.0,-2.412,-2.6674,-2.9296,-3.2087,-3.5064,-3.7263,-3.8514,-3.8886,-3.8497,-3.8311,-3.8294,-3.7905,0.0,-3.3491,-2.8687,0.0,0.0,0.0,0.0,0.0,0.0,0.0,0.0,0.0,0.0,0.0,0.0,0.0,0.0,0.0,0.0,0.0,0.0,0.0,0.0,0.0,0.0,-2.9025,-2.9786,-3.004,-3.0142,0.0,-2.96,-2.8687,-2.7723,-2.7249,0.0,0.0,0.0,0.0,0.0,0.0,0.0,-2.6454,-2.5913,-2.5981,-2.735,-2.6454,-2.5406,-2.4574,-2.3793,-2.2842,-2.1601,-2.1899,-2.2212,-2.247,-2.2467,0.0,0.0,0.0,0.0,0.0,0.0,0.0,0.0,0.0,0.0,0.0,0.0,0.0,0.0,0.0,0.0,0.0,0.0,0.0,0.0,0.0,0.0,0.0,0.0,0.0,0.0,0.0,0.0,0.0,-1.9361,-1.969,-1.9301,-2.0523,-2.1512,0.0,0.0,0.0,0.0,0.0,0.0,0.0,0.0,0.0,-3.1562,-3.2087,-3.2916,-3.4201,-3.552,-3.684,-3.8142,-3.9462,-4.007,-4.007,-4.007,-4.007,-4.007,-4.007,-3.9326,-3.7787,-3.3491,-3.0952,-2.9946,0.0,0.0,0.0,0.0,-3.3891,-2.7974,-2.7759,-3.1948,0.0,-3.2559,0.0,0.0,0.0,0.0,0.0,0.0,0.0,0.0,0.0,0.0,0.0,-3.3119,-3.3863,-3.4472,-3.4353,-3.3152,-3.1495,0.0,-2.9499,-2.9431,-2.8197,0.0,0.0,0.0,0.0,0.0,-2.7824,-2.6945,-2.6623,-2.7671,-2.686,-2.5744,-2.4608,-2.4003,-2.31,-2.1694,-2.1794,-2.1973,-2.2073,-2.2631,-2.3038,0.0,0.0,0.0,0.0,0.0,0.0,0.0,0.0,0.0,0.0,0.0,0.0,0.0,0.0,0.0,0.0,0.0,0.0,0.0,0.0,0.0,0.0,0.0,0.0,0.0,0.0,0.0,0.0,-2.0124,-2.0722,-2.0034,-2.1842,-2.3031,0.0,0.0,0.0,0.0,0.0,0.0,-2.9468,-2.7757,-2.9837,-3.6552,-3.892,-4.007,-4.007,-4.007,-4.007,-4.007,-3.9279,-3.9265,-3.9939,-4.0066,-4.007,-4.007,-4.007,-4.007,-3.9901,-3.7686,-3.3694,-2.9323,-3.2864,-3.5097,-3.6762,-4.0781,-3.7478,-3.064,-2.8145,-3.2415,-3.8328,-3.4658,0.0,-3.5419,-3.432,0.0,0.0,0.0,0.0,-3.3355,-3.4303,-3.5233,-3.596,-3.6163,-3.7077,-3.7753,-3.7195,-3.618,-3.4489,0.0,-3.1529,-3.1427,-2.9583,0.0,0.0,0.0,0.0,-2.7757,-2.9093,-2.7943,-2.7266,-2.8044,-2.7097,-2.5896,-2.4625,-2.4058,-2.3139,-2.1694,-2.1718,-2.1735,-2.1612,-2.258,-2.2953,-2.2598,0.0,0.0,0.0,0.0,0.0,0.0,0.0,0.0,0.0,0.0,0.0,0.0,0.0,0.0,0.0,0.0,0.0,0.0,0.0,0.0,0.0,0.0,0.0,0.0,0.0,0.0,0.0,0.0,0.0,-2.0737,-2.3475,0.0,0.0,0.0,0.0,-2.8766,-3.1427,-3.185,-2.9197,-3.1529,-3.5081,-3.9715,-4.0003,-4.007,-4.007,-4.007,-4.007,-4.007,-3.71,-3.7044,-3.9451,-3.9878,-4.007,-4.007,-4.007,-4.007,-4.007,-3.9918,-3.8007,-3.5182,-3.5406,-3.8576,-4.2671,-3.9955,-3.7875,-3.5698,-3.0631,-3.1941,-3.6265,-3.8802,-3.7804,-3.5605,-3.5537,-3.5453,0.0,0.0,-3.5537,-3.547,-3.5537,-3.6129,-3.6907,-3.7618,-3.7855,-3.7889,-3.7855,-3.7787,-3.684,0.0,-3.2154,-3.1004,-3.0192,0.0,-2.977,-2.9076,-2.8943,-2.9161,-2.9939,-2.8721,-2.8061,-2.8839,-2.6962,-2.5338,-2.4574,-2.3849,-2.2912,-2.1678,-2.2032,-2.2061,-2.1628,-2.2111,-2.2682,-2.3325,-2.3376,0.0,0.0,0.0,0.0,0.0,0.0,0.0,0.0,0.0,0.0,0.0,0.0,0.0,0.0,0.0,0.0,0.0,0.0,0.0,0.0,0.0,0.0,0.0,0.0,0.0,0.0,0.0,0.0,-2.4418,-2.6662,0.0,0.0,-2.9575,-3.1248,-3.3351,-3.3741,-3.4573,-3.6062,-3.5318,-3.6451,-3.9969,-4.007,-4.007,-4.007,-3.8133,-3.716,-3.7131,-3.7755,-3.8512,-3.9451,-4.189,-4.298,-4.2861,-4.0916,-4.1187,-4.298,-4.298,-4.1204,-3.8497,-3.8497,-4.0567,-4.3351,-4.2194,-4.1499,-4.0835,-3.8985,-3.8386,-3.8667,-3.9732,-3.8058,-3.574,-3.6383,-3.6468,-3.6535,-3.7313,-3.7652,-3.7787,-3.7787,-3.8345,-3.8971,-3.9242,-3.9309,-3.9309,-3.9309,-3.8937,-3.8159,-3.6603,-3.5081,-3.3812,-3.3068,-3.2138,-3.1579,-3.1799,-3.1021,-3.0666,-3.141,-3.0209,-2.9211,-2.9008,-2.7807,-2.6539,-2.5304,-2.4526,-2.3705,-2.2815,-2.2461,-2.2209,-2.2061,-2.2209,-2.2429,-2.2699,-2.2699,-2.3291,0.0,0.0,0.0,0.0,0.0,0.0,0.0,0.0,0.0,0.0,0.0,0.0,0.0,0.0,0.0,0.0,0.0,0.0,0.0,0.0,0.0,0.0,0.0,0.0,0.0,0.0,-2.6931,-2.7814,-3.0371,-3.2158,-3.2431,-3.3861,-3.5742,-3.7953,-3.8115,-3.9242,-4.1965,-4.0392,-4.007,-4.1542,-4.1593,-4.1046,-3.9845,-3.7833,-3.6821,-3.6851,-3.8586,-3.9424,-3.9481,-4.1804,-4.3469,-4.4468,-4.2472,-4.2726,-4.4587,-4.4587,-4.3403,-4.1593,-4.1593,-4.248,-4.3629,-4.2703,-4.2465,-4.2582,-4.2426,-4.1358,-4.007,-4.007,-3.8734,-3.7246,-3.7905,-3.8007,-3.8058,-3.887,-3.9225,-3.936,-3.936,-3.9715,-4.007,-4.007,-4.007,-4.007,-4.007,-3.9698,-3.9225,-3.8734,-3.7212,-3.569,-3.4658,-3.3489,-3.2959,-3.3651,-3.2328,-3.1597,-3.256,-3.1173,-2.9922,-2.9414,-2.8433,-2.7317,-2.6082,-2.5507,-2.4712,-2.3477,-2.3173,-2.2818,-2.2327,-2.2547,-2.2682,-2.2682,-2.2682,-2.3274,-2.4506,0.0,0.0,0.0,0.0,0.0,0.0,0.0,0.0,0.0,0.0,0.0,0.0,0.0,0.0,0.0,0.0,0.0,0.0,0.0,0.0,0.0,0.0,0.0,-2.4776,-2.8128,-3.0597,-3.0687,-3.4342,-3.6617,-3.6053,-3.924,-4.1643,-4.2368,-4.4502,-4.5855,-4.6092,-4.6583,-4.6194,-4.4756,-4.4547,-4.2831,-3.9409,-3.9424,-3.9424,-3.9424,-3.9424,-3.9424,-3.9424,-3.9424,-4.1229,-4.444,-4.457,-4.4587,-4.4587,-4.4587,-4.4519,-4.4434,-4.4434,-4.4285,-4.3729,-4.1094,-4.0417,-4.0827,-4.0286,-4.007,-4.007,-4.007,-4.007,-4.007,-4.007,-4.007,-4.007,-4.007,-4.007,-4.007,-4.007,-4.007,-4.007,-4.007,-4.007,-4.007,-4.007,-4.007,-4.007,-4.0054,-3.8311,-3.6366,-3.4844,-3.3972,-3.3756,-3.4435,-3.2679,0.0,-3.3254,-3.1506,-3.0154,-3.0176,-2.8839,-2.7603,-2.6793,-2.6742,-2.5795,-2.3566,-2.4103,-2.3849,-2.24,-2.3025,-2.3397,-2.3397,-2.3414,-2.3816,-2.4509,0.0,0.0,0.0,0.0,0.0,0.0,0.0,0.0,0.0,0.0,0.0,0.0,0.0,0.0,0.0,0.0,0.0,0.0,0.0,0.0,0.0,0.0,-3.0013,-2.9026,-3.0657,-3.2677,-3.4607,-3.6712,-3.8565,-4.0114,-4.1719,-4.3408,-4.5385,-4.6447,-4.7344,-4.8139,-4.8325,-4.8206,-4.78,-4.325,-4.0393,-3.9424,-3.9424,-3.9424,-3.9424,-3.9424,-3.9424,-3.9424,-3.9424,-3.9935,-4.0961,-4.3469,-4.4587,-4.4587,-4.4587,-4.3284,-4.1322,-4.1322,-4.1274,-4.1128,-4.0357,-4.0204,-4.0286,-4.0171,-4.007,-4.007,-4.007,-4.007,-4.007,-4.007,-4.007,-4.007,-4.007,-4.007,-4.007,-4.007,-4.007,-4.007,-4.007,-4.007,-4.007,-4.007,-4.007,-3.9918,-3.9394,-3.8338,-3.7235,-3.6323,-3.5133,-3.4343,-3.4532,-3.3175,0.0,-3.4021,-3.2787,-3.1757,-3.1692,-3.1309,-3.0179,-2.7994,-2.7631,-2.6605,-2.4547,-2.4488,-2.4149,-2.337,-2.3503,-2.3457,-2.3122,-2.3983,-2.4497,0.0,0.0,0.0,0.0,0.0,0.0,0.0,0.0,0.0,0.0,0.0,0.0,0.0,0.0,0.0,0.0,0.0,0.0,0.0,0.0,0.0,0.0,-3.0986,-3.323,-3.4113,-3.4906,-3.6088,-3.7913,-3.9345,-4.1008,-4.3,-4.3987,-4.5342,-4.7404,-4.7939,-4.8376,-4.8968,-4.9001,-4.8798,-4.8225,-4.245,-3.9424,-3.9424,-3.9424,-3.9424,-3.9424,-3.9424,-3.9424,-3.9424,-3.9424,-3.9424,0.0,-4.1543,-4.3213,-4.4485,-4.3217,-4.166,0.0,0.0,0.0,0.0,0.0,-4.007,-4.007,-4.007,-4.007,-4.007,-4.007,-4.007,-4.007,-4.007,-4.007,-4.007,-4.007,-4.007,-4.007,-4.007,-4.007,-4.007,-4.007,-4.007,-4.002,-3.9662,-3.985,-3.9783,-3.8695,-3.8137,0.0,-3.6448,-3.5364,-3.4578,-3.4577,-3.3632,-3.3191,-3.3968,-3.311,-3.2293,-3.1909,-3.16,-3.0781,-2.9137,-2.8356,0.0,0.0,0.0,-2.451,-2.3872,-2.3872,0.0,0.0,0.0,-2.4596,-2.4806,0.0,0.0,0.0,-2.7051,-2.7178,0.0,0.0,0.0,0.0,0.0,0.0,0.0,0.0,0.0,0.0,0.0,0.0,0.0,0.0,0.0,0.0,-3.3544,-3.5444,-3.9125,-3.9768,-4.0053,-4.0561,-4.1903,-4.3333,-4.4703,-4.5859,-4.6994,-4.8242,-4.861,-4.882,-4.8861,0.0,0.0,0.0,0.0,-3.9748,-3.9424,-3.9424,-3.9424,-3.9424,-3.9424,-3.9424,-3.9424,-3.9424,-3.9424,-3.9424,-3.9424,-4.1346,-4.4367,-4.1694,-4.0476,-4.0307,-4.0138,-4.007,-4.007,-4.007,-4.007,-4.007,-4.007,0.0,0.0,-4.007,-4.007,-4.007,-4.007,-4.007,-4.007,-4.007,-4.007,-4.007,-4.007,-4.007,-4.007,-4.002,-3.9952,-3.9731,-3.8978,-3.9332,-3.9454,-3.8051,-3.7744,-3.7219,-3.5829,-3.4958,-3.4466,-3.4497,-3.3794,-3.3353,-3.3496,-3.2861,-3.2177,-3.163,0.0,0.0,-3.0163,-2.9087,-2.7795,-2.6217,-2.5615,-2.5035,-2.4392,-2.422,-2.4173,-2.4173,-2.4131,-2.4377,-2.4876,-2.49,-2.561,-2.6877,-2.6742,-2.6691,0.0,0.0,0.0,0.0,0.0,0.0,0.0,0.0,0.0,0.0,0.0,0.0,0.0,0.0,0.0,-3.3694,-3.6447,-3.8916,-4.0741,-4.1908,-4.2432,-4.2028,-4.2722,-4.3669,-4.4721,-4.5937,-4.665,-4.6657,-4.7222,-4.7655,-4.7836,-4.8576,0.0,-4.7463,-4.4577,-4.1853,-3.9424,-3.9424,-3.9424,-3.9424,0.0,0.0,-3.9424,-3.9424,-3.9424,-3.9424,-3.9424,-4.1346,-4.4536,-4.3944,-4.298,-4.1745,-4.0544,-4.007,-4.007,-4.007,-4.007,-4.007,-4.007,-4.007,-4.007,-4.007,-4.007,-4.007,-4.007,-4.007,0.0,-4.007,-4.007,-4.007,-4.007,-4.007,-3.9952,-3.9315,-3.9139,-3.8924,-3.8149,-3.8149,-3.8149,-3.7863,-3.7286,-3.6588,-3.5745,-3.4561,-3.3708,-3.3732,-3.2678,-3.2315,-3.3425,-3.297,-3.2688,-3.309,-3.2996,-3.2187,-3.0551,-3.0107,-2.9075,-2.7179,-2.6477,-2.6088,-2.5963,-2.5022,-2.4487,-2.4487,-2.4416,-2.463,-2.5274,-2.5621,-2.6475,-2.7805,-2.7059,-2.6691,0.0,0.0,0.0,0.0,0.0,0.0,0.0,0.0,0.0,0.0,0.0,-2.8861,0.0,0.0,-3.4277,-3.6582,-3.8886,-4.0965,-4.2626,-4.3135,-4.3329,-4.3344,-4.3359,-4.3893,-4.5418,-4.5925,-4.6423,-4.6925,-4.7088,-4.7458,-4.8082,-4.8214,-4.8072,-4.7571,-4.5611,-4.3623,-4.1641,-4.0827,-4.0068,-3.9424,-3.9424,-3.9424,-3.9424,-3.9424,-3.9424,-3.9424,-3.9424,-4.0393,-4.2125,-4.3856,-4.413,-4.3284,-4.1779,-4.0967,-4.0595,-4.0223,-4.007,-4.007,-4.007,-4.007,-4.007,-4.007,-4.007,-4.007,-4.007,-4.007,-4.007,-4.007,-4.007,-4.007,-4.007,-4.007,-3.9901,-3.9086,-3.8908,-3.8564,-3.744,-3.7515,-3.7589,-3.6784,-3.6631,-3.6399,-3.5675,-3.4714,-3.3918,-3.3542,-3.3212,-3.3053,-3.3087,-3.2788,-3.254,-3.2521,-3.2466,-3.1901,-3.0558,-2.9515,-2.8196,-2.6557,-2.6168,-2.6001,-2.6001,-2.5424,-2.5121,-2.5121,-2.5032,-2.531,-2.5911,-2.6103,-2.6703,-2.764,-2.7185,-2.7271,0.0,0.0,0.0,0.0,0.0,0.0,0.0,0.0,-2.7739,-2.7739,-2.9729,-3.1854,-3.3066,-3.4816,-3.6881,-3.9394,-4.0786,-4.2162,-4.3883,-4.3658,-4.3584,-4.4242,-4.3838,-4.4107,-4.5589,-4.5783,-4.6078,-4.677,-4.6825,-4.7107,-4.783,-4.7346,-4.7039,-4.711,-4.5842,-4.4654,-4.363,-4.2258,-4.098,-3.9798,-3.9709,-3.9589,-3.9424,-3.9424,-3.9424,-3.9424,-3.9424,-4.0096,-4.145,-4.3701,-4.4587,-4.4418,-4.2794,-4.1863,-4.1305,-4.0409,-4.007,-4.007,-4.007,-4.007,-4.007,-4.007,-4.007,-4.007,-4.007,-4.007,-4.007,-4.007,-4.007,-4.007,-4.007,-4.007,-3.9901,-3.9086,-3.8799,-3.8286,-3.6888,-3.698,-3.7011,-3.5733,-3.6006,-3.6228,-3.5619,-3.504,-3.4497,-3.3805,-3.4107,-3.4007,-3.2884,-3.2767,-3.2505,-3.1728,-3.1582,-3.1203,-3.0291,-2.8764,-2.7349,-2.6081,-2.5989,-2.5989,-2.5989,-2.5869,-2.5794,-2.5794,-2.5674,-2.5893,-2.6442,-2.6394,-2.6782,-2.747,-2.7284,-2.7745,-2.1942,-2.322,-2.4386,-2.5702,-2.6213,-2.7096,0.0,0.0,-3.1854,-3.1854,-3.3499,-3.5175,-3.5908,-3.715,-3.8751,-4.0831,-4.1773,-4.2521,-4.3329,-4.3389,-4.3584,-4.4242,-4.4242,-4.4062,-4.3703,-4.5222,-4.5575,-4.3938,-4.483,-4.5422,-4.5266,-4.5126,-4.5221,-4.5362,-4.5038,-4.4173,-4.2819,-4.2485,-4.1878,-4.116,-4.0756,-4.0172,-3.9424,-3.9424,-3.9424,-3.9424,-3.9424,-4.2679,-4.7747,-4.5537,-4.4587,-4.4384,-4.2422,-4.1863,-4.1999,-4.0595,-4.007,-4.007,-4.007,-4.007,-4.007,-4.007,-4.007,-4.007,-4.007,-4.007,-4.007,-4.007,-4.007,-4.007,-4.007,-4.007,-3.9901,-3.9086,-3.8414,-3.769,-3.6783,-3.618,-3.5748,-3.5504,-3.5569,-3.5619,-3.5504,-3.5444,-3.513,-3.4478,-3.3923,-3.3578,-3.3396,-3.3381,-3.3141,-3.2465,-3.2333,-3.155,-2.9738,-2.9379,-2.8713,-2.7445,-2.74,-2.74,-2.74,-2.6782,-2.6482,-2.6482,-2.5899,-2.5931,-2.6564,-2.6459,-2.7056,-2.831,-2.7705,-2.7397,-2.2194,0.0,0.0,0.0,-2.8892,-3.0866,-3.1884,-3.3215,-3.4262,-3.4262,-3.5818,-3.727,-3.7539,-3.8975,-4.0397,0.0,-4.2252,-4.315,-4.3808,-4.324,-4.2865,-4.315,-4.2836,-4.309,-4.4347,-4.4885,-4.496,-4.4511,-4.4631,-4.4936,-4.5325,-4.5013,-4.5102,-4.5687,-4.5144,-4.4533,-4.396,-4.3227,-4.2596,-4.1953,-4.1758,-4.1414,-4.0935,-4.0935,-4.0382,-3.9643,-4.3389,-4.5513,-4.6329,-4.5094,-4.4587,-4.4434,-4.3031,-4.2658,-4.2709,-4.0781,-4.007,-4.007,-4.007,-4.007,-4.007,-4.007,-4.007,-4.007,-4.007,-4.007,-4.007,-4.007,-4.007,-4.007,-4.007,-4.007,-3.9901,-3.9086,-3.8358,-3.7573,-3.6783,-3.6006,-3.5504,-3.5504,-3.5504,-3.5504,-3.5504,-3.5504,-3.54,-3.5115,-3.4502,-3.3918,-3.3544,-3.3499,-3.3245,-3.2587,-3.2131,-3.1243,-2.9689,-2.9204,-2.8586,-2.767,-2.7625,-2.7625,-2.7625,-2.7355,-2.7156,-2.7156,-2.6901,-2.6886,-2.7156,-2.7116,-2.7397,-2.7993,-2.7655,-2.7655,-2.2518,0.0,0.0,-2.8626,-3.144,-3.4053,-3.4128,-3.525,-3.6357,-3.6552,-3.7539,-3.8452,-3.8631,-3.9858,0.0,-4.1324,-4.2327,-4.3299,-4.3943,-4.2925,-4.2087,-4.2087,-4.1354,-4.1654,-4.3748,-4.4003,-4.4242,-4.4721,-4.4481,-4.4519,-4.4986,-4.4619,-4.4706,-4.54,-4.4706,-4.4373,-4.4373,-4.3693,-4.309,-4.2626,-4.2387,-4.2312,-4.2387,-4.2387,-4.1504,-4.0214,-4.5255,-4.6354,-4.4587,-4.4555,-4.4505,-4.4485,-4.3555,-4.3166,-4.2912,-4.1288,-4.0561,-4.0358,-4.0155,-4.007,-4.0223,-4.1052,-4.1035,-4.0663,-4.0527,-4.0493,-4.0443,-4.0155,-4.007,-4.007,-4.007,-4.007,-3.9952,-3.9368,-3.8486,-3.7632,-3.704,-3.618,-3.5504,-3.5504,-3.5504,-3.5504,-3.5504,-3.5504,-3.5504,-3.5504,-3.5085,-3.4592,-3.4113,-3.3888,-3.3514,-3.2856,-3.2198,-3.127,-2.9953,-2.925,-2.8577,-2.7904,-2.773,-2.7625,-2.7625,-2.7625,-2.7625,-2.7625,-2.7625,-2.7625,-2.7625,-2.7625,-2.7675,-2.786,-2.786,-2.8271,0.0,0.0,-2.9131,-3.1392,-3.3715,-3.5923,-3.7793,-3.8257,-3.8497,-3.917,-3.8811,-3.8601,-3.926,-3.9439,-3.9903,-4.1175,-4.1953,-4.2626,-4.3269,-4.2237,-4.1414,-4.1414,-4.0262,-3.9768,0.0,-4.2252,-4.3374,-4.3389,-4.3958,-4.4032,-4.3389,-4.3344,-4.3329,-4.3409,-4.3329,-4.3329,-4.3329,-4.3329,-4.3329,-4.3284,-4.2447,-4.2476,-4.3299,-4.3299,-4.2566,-4.1399,-4.2809,-4.3898,-4.4581,-4.4311,-4.4346,-4.4502,-4.3724,-4.2963,-4.232,-4.2252,-4.1779,-4.1068,-4.0341,-4.007,-4.0561,-4.3487,-4.3436,-4.2134,-4.1677,-4.1542,-4.1339,-4.0341,-4.007,-4.007,-4.007,-4.007,-4.007,-4.007,-3.8887,-3.7806,-3.7764,-3.6538,-3.5504,-3.5504,-3.5504,-3.5504,-3.5504,-3.5504,-3.5504,-3.5504,-3.5489,-3.5474,-3.5444,-3.4861,-3.4188,-3.3529,-3.2886,-3.1943,-3.0597,-2.9909,-2.9265,-2.8607,-2.7934,-2.7625,-2.7625,-2.7625,-2.7625,-2.7625,-2.7625,-2.7625,-2.7625,-2.7625,-2.791,-2.8463,-2.8463,-2.9088,-2.4976,0.0,-3.1956,-3.3888,-3.6634,-3.9035,-4.0127,-4.0038,-3.9664,-3.9469,-3.8527,-3.7554,-3.6941,-3.7509,-3.8377,-3.9245,-4.1055,-4.2581,-4.324,-4.2955,-4.2028,-4.0292,-4.0068,0.0,0.0,0.0,0.0,-4.2626,-4.2895,-4.3299,-4.3943,-4.3988,-4.3988,-4.3988,-4.3988,-4.3778,-4.3329,-4.3329,-4.3329,-4.3329,-4.2596,-4.2626,-4.3329,-4.2895,-4.2686,-4.2701,-4.3807,-4.3847,-4.3202,-4.4462,-4.4521,-4.3781,-4.4097,-4.4028,-4.3809,-4.3809,-4.3335,-4.2523,-4.1457,-4.0646,-4.0476,-4.2828,-4.369,-4.3656,-4.2844,-4.166,-4.073,-4.1373,-4.0832,-4.0223,-4.0899,-4.0578,-4.007,-4.007,-3.8941,-3.7822,-3.7822,-3.66,-3.5504,-3.5504,-3.5504,-3.5504,-3.5504,-3.5504,-3.5504,-3.5504,-3.5504,-3.5504,-3.5504,-3.5295,-3.4906,-3.4218,-3.3559,-3.2632,-3.13,-3.0567,-2.9744,-2.8667,-2.8786,-2.8502,-2.7655,-2.8427,-2.8487,-2.764,-2.8023,-2.8023,-2.7625,-2.8469,-2.9015,-2.9275,-3.0148,-3.0985,-2.7255,-3.0747,-3.4105,-3.6584,-3.8993,-4.092,-4.1579,-4.0861,-3.9783,-3.8886,-3.727,-3.5684,-3.4637,-3.4906,-3.5759,-3.7135,-3.899,-4.0816,-4.2417,-4.2237,-4.1489,-4.0262,-4.0292,0.0,0.0,0.0,0.0,-4.2359,-4.2791,-4.3434,-4.4272,-4.4541,-4.4556,-4.4332,-4.4317,-4.4003,-4.3344,-4.3329,-4.321,-4.2985,-4.2791,-4.2806,-4.297,-4.2791,-4.294,-4.3314,-4.3746,-4.338,-4.251,-4.3613,-4.3573,-4.2909,-4.3469,-4.3706,-4.3769,-4.4037,-4.367,-4.2929,-4.2337,-4.1711,-4.1424,-4.3098,-4.4062,-4.4401,-4.3403,-4.2439,-4.166,-4.1525,-4.1593,-4.166,-4.161,-4.1102,-4.0595,-4.051,-3.9122,-3.7822,-3.7822,-3.66,-3.5504,-3.5504,-3.5504,-3.5504,-3.5504,-3.5504,-3.5504,-3.5504,-3.5504,-3.5504,-3.5504,-3.5504,-3.5235,-3.4547,-3.3888,-3.3051,-3.1973,-3.1031,-3.0148,-2.934,-2.9475,-2.919,-2.8323,-2.9116,-2.9175,-2.8308,-2.8727,-2.8742,-2.8344,-2.9423,-3.0058,-3.0303,-3.1421,-3.2253,-3.0073,-3.2937,-3.5812,-3.9197,-4.0787,-4.1594,-4.2177,-4.0756,-3.8931,-3.7539,-3.5175,-3.3125,0.0,0.0,-3.2392,-3.4981,-3.6133,-3.7808,-4.1025,-4.0472,-4.0157,0.0,0.0,0.0,0.0,0.0,0.0,-4.2417,0.0,-4.4302,-4.4407,-4.5005,-4.505,-4.4392,-4.4362,-4.4032,-4.3344,-4.3329,-4.3015,-4.2372,-4.2985,-4.2955,-4.2387,-4.3,-4.3299,-4.3299,-4.2641,-4.2347,-4.2303,-4.1891,-4.1789,-4.1933,-4.1997,-4.2099,-4.2275,-4.2983,-4.2841,-4.2365,-4.2871,-4.3094,-4.3267,-4.4265,-4.4587,-4.4401,-4.347,-4.3809,-4.3927,-4.1102,-4.232,-4.4062,-4.2168,-4.1677,-4.1593,-4.1219,-3.9446,-3.7854,-3.7764,-3.6554,-3.5504,-3.5504,-3.5504,-3.5504,-3.5504,-3.5504,-3.5504,-3.5504,-3.5504,-3.5504,-3.5504,-3.5504,-3.525,-3.4607,-3.3933,-3.3275,-3.2617,-3.136,-3.0567,-3.0507,-2.9983,-2.9654,-2.9579,-2.9639,-2.9654,-2.9579,-2.9609,-2.9663,-2.9619,-3.0366,-3.0995,-3.1614,-3.2335,-3.2956,-3.3729,-3.6775,-3.9541,-4.0838,-4.1695,-4.2028,-4.1698,-3.9709,-3.7404,-3.5594,-3.311,-3.0761,0.0,0.0,0.0,-3.3739,-3.7045,0.0,-4.2506,-4.3389,0.0,0.0,0.0,-4.294,-4.1953,-4.2895,0.0,0.0,-4.3673,-4.4242,-4.5738,-4.5978,-4.5753,-4.5065,-4.505,-4.4496,-4.3344,-4.3329,-4.3015,-4.2357,-4.2536,-4.2521,-4.2372,-4.2536,-4.2865,-4.3299,-4.2641,-4.2137,-4.1637,-4.1709,-4.1464,-4.108,-4.1739,-4.2013,-4.2074,-4.2251,-4.2215,-4.2109,-4.2239,-4.2642,-4.3267,-4.4265,-4.4587,-4.4536,-4.4282,-4.3978,-4.3673,-4.3487,-4.3453,-4.3403,-4.3047,-4.2844,-4.2331,-4.0733,-3.9471,-3.8312,-3.7134,-3.618,-3.5504,-3.5504,-3.5504,-3.5504,-3.5504,-3.5504,-3.5504,-3.5504,-3.5504,-3.5504,-3.5504,-3.5504,-3.5429,-3.5265,-3.4637,-3.3963,-3.3305,-3.2482,-3.1569,-3.0567,-3.0836,-3.0597,-2.9624,-3.0522,-3.0582,-2.9609,-3.0028,-3.0286,-3.0335,-3.1517,-3.2417,-3.3086,-3.4234,-3.4897,-3.724,-3.9519,-4.1391,-4.2538,-4.2411,-4.1534,-3.9993,-3.7808,-3.5235,-3.2093,-3.0028,0.0,0.0,0.0,0.0,0.0,0.0,0.0,-4.1609,-4.2925,-4.3733,0.0,-4.4781,0.0,-4.3748,-4.4586,-4.52,0.0,-4.4855,-4.514,-4.6262,-4.6322,-4.6007,-4.5319,-4.5005,-4.4377,-4.3344,-4.3329,-4.315,-4.2776,-4.2776,-4.2776,-4.2776,-4.2491,-4.2716,-4.3284,0.0,-4.1878,-4.1805,-4.1346,-4.0909,-4.0598,-4.0761,-4.1095,-4.1412,-4.1412,-4.1658,-4.1997,-4.1997,-4.2288,-4.2699,-4.3304,-4.3739,-4.4121,-4.4514,-4.4265,-4.4012,-4.4451,-4.4181,-4.3775,-4.3893,-4.3589,-4.2884,-4.1392,-4.0435,-3.9436,-3.7842,-3.718,-3.6682,-3.6049,-3.5699,-3.5504,-3.5504,-3.5504,-3.5504,-3.5504,-3.5504,-3.5504,-3.5504,-3.5504,-3.5504,-3.5504,-3.4891,-3.4203,-3.3559,-3.2901,-3.2063,-3.1031,-3.1315,-3.121,-3.0462,-3.115,-3.118,-3.0447,-3.0776,-3.0985,-3.1014,-3.2357,-3.324,-3.3648,-3.4977,-3.5622,-4.0177,-4.1453,-4.2146,-4.3671,-4.2641,-4.0531,-3.7778,-3.5489,-3.2691,-2.8233,0.0,0.0,-2.4582,0.0,-2.7455,-3.0073,0.0,-3.5355,-3.9888,-4.1175,-4.2581,-4.5125,-4.6037,-4.6217,-4.5618,-4.6097,-4.6456,-4.6456,-4.6456,-4.6456,-4.6456,-4.6456,-4.6097,-4.5319,-4.4571,-4.3913,-4.3344,-4.3329,-4.3284,-4.321,-4.3284,-4.3284,-4.3195,-4.2701,-4.2791,-4.3269,0.0,0.0,-4.2132,-4.0816,-4.0277,-4.0217,-3.9649,-3.9864,-4.0569,-4.0569,-4.1028,-4.1674,-4.1674,-4.1674,-4.1674,-4.1933,-4.2583,-4.3426,-4.4196,-4.4514,-4.4587,-4.4587,-4.4587,-4.4587,-4.4587,-4.4079,-4.33,-4.2411,-4.1783,-4.0808,-3.8997,-3.8546,-3.8181,-3.702,-3.6214,-3.5729,-3.5769,-3.5689,-3.5609,-3.5519,-3.5504,-3.5504,-3.5504,-3.5504,-3.5504,-3.5504,-3.4966,-3.4337,-3.3679,-3.3021,-3.2362,-3.1704,-3.1526,-3.1482,-3.1482,-3.1482,-3.1482,-3.1482,-3.1482,-3.1524,-3.164,-3.2879,-3.3531,-3.3735,-3.4911,-3.5515,-4.1677,-4.257,-4.2971,-4.2806,-4.1624,-3.9738,-3.6552,-3.3425,0.0,0.0,0.0,-2.3295,-2.3056,-2.4971,0.0,-3.0073,0.0,0.0,0.0,0.0,-4.3808,0.0,0.0,0.0,0.0,0.0,0.0,0.0,0.0,-4.713,-4.713,-4.713,-4.6576,-4.5334,-4.4122,-4.3449,-4.3329,-4.3329,-4.306,-4.2536,-4.3075,-4.3045,-4.2551,-4.297,-4.3225,-4.3269,-4.1938,0.0,-4.1444,-4.0127,-3.9589,-3.9574,-3.9469,-3.9481,-3.961,-3.961,-3.9737,-3.9879,-3.9879,-3.9879,-4.006,-4.1543,-4.2583,-4.3306,-4.3502,-4.4006,-4.4587,-4.4587,-4.4587,-4.4587,-4.4587,-4.4485,-4.403,-4.2642,-4.2204,-4.1455,-3.9219,-3.8101,-3.7752,-3.8196,-3.7643,-3.7149,-3.7274,-3.6778,-3.6133,-3.5594,-3.5504,-3.5504,-3.5504,-3.5504,-3.5504,-3.5504,-3.54,-3.5055,-3.4367,-3.3709,-3.3036,-3.2392,-3.1839,-3.1482,-3.1482,-3.1482,-3.1482,-3.1482,-3.1482,-3.1796,-3.2437,-3.2641,-3.3339,-3.4431,-3.4688,-3.5052,-4.3254,-4.3614,-4.317,-4.2673,-4.0929,-3.8251,-3.4068,0.0,0.0,0.0,0.0,-2.2158,-2.2158,0.0,0.0,0.0,0.0,0.0,0.0,0.0,0.0,0.0,0.0,0.0,0.0,0.0,0.0,0.0,0.0,0.0,-4.7309,-4.698,-4.6172,-4.4825,-4.4167,-4.3673,-4.3329,-4.3329,-4.3165,-4.2865,-4.318,-4.3165,-4.2865,-4.2836,-4.3015,-4.3284,-4.2312,0.0,-4.1818,-4.0846,-4.0247,-3.9903,-3.9559,-3.9424,-3.9424,-3.9424,-3.9424,-3.9424,-3.9424,-3.9424,-3.9553,-4.0393,-4.1229,-4.2062,-4.2458,-4.3229,-4.4089,-4.4929,-4.4891,-4.4671,-4.506,-4.4874,-4.4299,-4.3098,-4.2126,-4.1119,-3.9975,-3.9118,-3.8739,-3.9122,-3.8942,-3.8665,-3.829,-3.7582,-3.6903,-3.6124,-3.5729,-3.5504,-3.5504,-3.5504,-3.5504,-3.5504,-3.5504,-3.5235,-3.4532,-3.4188,-3.3724,-3.3066,-3.2407,-3.2048,-3.2048,-3.1719,-3.1482,-3.1482,-3.1482,-3.1682,-3.2007,-3.2788,-3.3443,-3.4087,-3.48,-3.5299,-4.3673,-4.3722,-4.2784,-4.2223,-4.0022,-3.6733,-3.1818,-2.8951,0.0,0.0,0.0,-2.135,-2.1635,0.0,0.0,0.0,0.0,0.0,0.0,0.0,0.0,0.0,0.0,0.0,0.0,0.0,0.0,0.0,0.0,0.0,-4.7309,-4.6681,-4.5768,-4.4556,-4.4392,-4.4003,-4.3344,-4.3329,-4.3329,-4.3329,-4.3329,-4.3329,-4.3314,-4.2806,-4.2851,-4.3299,-4.2641,0.0,0.0,-4.1504,-4.0876,-4.0337,-3.9679,-3.9424,-3.9424,-3.9424,-3.9424,-3.9424,-3.9424,-3.9424,-3.9424,-3.9424,-3.999,-4.0811,-4.1528,-4.2316,-4.3284,-4.4784,-4.4781,-4.4518,-4.5257,-4.5026,-4.4384,-4.3502,-4.1997,-4.069,-4.069,-4.0137,-3.9699,-3.9885,-3.9877,-3.9645,-3.9023,-3.8299,-3.756,-3.6655,-3.6043,-3.5669,-3.5519,-3.5504,-3.5504,-3.5504,-3.5504,-3.5295,-3.4741,-3.4562,-3.4262,-3.3739,-3.3095,-3.2662,-3.2527,-3.2018,-3.1616,-3.1482,-3.1482,-3.1482,-3.1482,-3.2772,-3.3443,-3.3633,-3.4847,-3.547,-4.1339,-4.1754,-4.1507,-4.0328,-3.8419,-3.5655,-3.1054,0.0,0.0,0.0,-2.0722,-2.0243,-2.147,-2.2323,0.0,0.0,0.0,0.0,0.0,0.0,0.0,0.0,0.0,0.0,0.0,0.0,0.0,0.0,0.0,0.0,-4.7309,-4.6681,-4.5978,-4.5229,-4.4631,-4.4003,-4.3344,-4.3329,-4.3329,-4.3329,-4.3329,-4.3329,-4.3329,-4.3269,-4.3284,-4.3299,-4.2641,0.0,0.0,-4.101,-4.0457,-4.0337,-3.9679,-3.9424,-3.9424,-3.9424,-3.9424,-3.9424,-3.9424,-3.9424,-3.9424,-3.9424,-3.999,-4.0675,-4.0826,-4.1412,-4.2332,-4.3251,-4.3492,-4.3638,-4.4468,-4.4621,-4.4384,-4.3502,-4.1997,-4.069,-4.069,-3.9999,-3.9647,-4.0461,-3.9978,-3.9485,-3.9565,-3.8888,-3.7946,-3.6656,-3.6432,-3.6178,-3.5579,-3.5504,-3.5504,-3.5504,-3.5504,-3.5489,-3.5415,-3.4846,-3.4442,-3.4382,-3.3769,-3.314,-3.2542,-3.2452,-3.2138,-3.1482,-3.1482,-3.1482,-3.1482,-3.2327,-3.2986,-3.3633,-3.4333,-3.5005,-4.0591,-4.1003,-4.0253,-3.9254,-3.6675,-3.3286,-2.8858,0.0,0.0,-2.162,-2.0348,-2.0189,-2.1805,-2.2112,-2.305,0.0,0.0,0.0,0.0,0.0,0.0,0.0,0.0,0.0,0.0,0.0,0.0,0.0,0.0,0.0,-4.6741,-4.6471,-4.6007,-4.5319,-4.4661,-4.4003,-4.3344,-4.3329,-4.3329,-4.3329,-4.3329,-4.3329,-4.3329,-4.3329,-4.3329,-4.3329,-4.306,0.0,0.0,-4.1369,-4.0756,-4.0337,-3.9679,-3.9664,-3.9963,-3.9574,-3.9664,-3.9948,-3.9559,-3.9424,-3.9424,-3.9424,-3.961,-3.999,-4.0554,-4.0946,-4.1623,-4.3415,-4.3636,-4.3701,-4.5479,-4.5505,-4.4854,-4.4008,-4.2477,-4.1187,-4.0654,-4.0335,-4.0309,-4.0622,-4.0826,-4.08,-4.0401,-3.9677,-3.8857,-3.7773,-3.6971,-3.6387,-3.6133,-3.5744,-3.5504,-3.5504,-3.5504,-3.5504,-3.5504,-3.525,-3.51,-3.51,-3.4457,-3.3963,-3.3709,-3.332,-3.2796,-3.2138,-3.2123,-3.2146,-3.2176,-3.3302,-3.3962,-3.4252,-3.5376,-3.5799,-3.8228,-3.8844,-3.8394,-3.7162,-3.4492,-3.1096,0.0,0.0,0.0,-2.1111,-2.0168,-2.0201,-2.1775,-2.1988,-2.2716,0.0,0.0,0.0,0.0,0.0,0.0,0.0,0.0,0.0,0.0,0.0,0.0,0.0,0.0,0.0,0.0,-4.5843,-4.5499,-4.502,-4.4556,-4.4003,-4.3344,-4.3329,-4.3329,-4.3329,-4.3329,-4.3329,-4.3329,-4.3329,-4.3225,-4.3045,0.0,0.0,0.0,-4.1788,-4.1175,-4.0352,-3.9888,-3.9873,-4.0053,-3.9589,-3.9709,-4.0053,-3.9574,-3.9424,-3.9424,-3.9424,-3.9424,-3.9538,-4.0115,-4.0309,-4.073,-4.2719,-4.3448,-4.4098,-4.6271,-4.5901,-4.4838,-4.4244,-4.2698,-4.1153,-4.0529,-4.0334,-4.0309,-4.0309,-4.0826,-4.1028,-4.0447,-3.991,-3.9337,-3.8547,-3.7629,-3.6911,-3.6537,-3.6088,-3.5729,-3.5534,-3.5504,-3.5504,-3.5504,-3.5504,-3.5504,-3.5504,-3.5055,-3.4696,-3.4487,-3.4038,-3.3469,-3.2826,-3.2811,-3.297,-3.3191,-3.4413,-3.5053,-3.5283,-3.6525,-3.6823,-3.3231,-3.4707,-3.5778,-3.371,-3.1783,-2.9549,0.0,0.0,0.0,-2.1111,-2.0168,-2.0014,-2.1106,-2.1895,-2.278,-2.3915,0.0,0.0,0.0,0.0,0.0,0.0,0.0,0.0,0.0,0.0,0.0,0.0,0.0,0.0,0.0,-4.4691,-4.4332,-4.4332,-4.4317,-4.4003,-4.3344,-4.3329,-4.3329,-4.3329,-4.3329,-4.3329,-4.3329,-4.3329,-4.297,0.0,0.0,0.0,0.0,-4.2087,-4.1579,-4.0397,-4.0382,-3.9993,-3.9424,-3.9424,-3.9424,-3.9424,-3.9424,-3.9424,-3.9424,-3.9424,-3.9424,-3.9424,-3.9409,-3.9409,-3.961,-4.0516,-4.2493,-4.4771,-4.6389,-4.5447,-4.4109,-4.4109,-4.2224,-4.0397,-4.0397,-3.9888,-3.9409,-3.9409,-3.9409,-3.9409,-3.9424,-3.9409,-3.917,-3.8497,-3.8377,-3.7913,-3.6656,-3.6477,-3.6237,-3.5579,-3.5504,-3.5504,-3.5504,-3.5504,-3.5504,-3.5504,-3.5489,-3.519,-3.4502,-3.4472,-3.4158,-3.3499,-3.3484,-3.3879,-3.4674,-3.5364,-3.6039,-3.6819,-3.7532,-3.7889,-2.9681,-3.0283,-3.0474,-2.9875,-2.7815,-2.5536,-2.3742,0.0,0.0,-2.0228,-1.9839,-2.0157,-2.1582,-2.2133,-2.3322,-2.6184,-2.7773,0.0,0.0,0.0,0.0,0.0,0.0,0.0,0.0,0.0,0.0,0.0,0.0,0.0,0.0,-4.4421,-4.4317,-4.4317,-4.3883,-4.3539,-4.3329,-4.3329,-4.3329,-4.3329,-4.3329,-4.3389,-4.3517,-4.2952,0.0,0.0,0.0,0.0,0.0,-4.3438,-4.2469,-4.1025,-4.0576,-4.0277,-4.0038,-3.9589,-3.9709,-4.0023,-3.9574,-3.9424,-3.9424,-3.9424,-3.9424,-3.9424,-3.9424,-3.9424,-3.9828,-4.1778,-4.4026,-4.6099,-4.7221,-4.6189,-4.4994,-4.5405,-4.3247,-4.107,-4.107,-4.0561,-3.9963,-3.9514,-3.9424,-3.9424,-3.9424,-3.9424,-3.9349,-3.9125,-3.8691,-3.8078,-3.7225,-3.6746,-3.6237,-3.5579,-3.5504,-3.5504,-3.5504,-3.5504,-3.5504,-3.5504,-3.5504,-3.54,-3.519,-3.5175,-3.4861,-3.4188,-3.4668,-3.505,-3.5379,-3.6643,-3.7645,-3.8287,-3.8029,-3.8176,0.0,-2.6934,-2.7215,-2.6652,-2.5093,0.0,0.0,0.0,0.0,0.0,0.0,-2.0316,-2.1682,-2.2499,-2.3767,-2.6152,-2.8028,0.0,0.0,0.0,0.0,0.0,0.0,0.0,0.0,0.0,0.0,0.0,0.0,0.0,0.0,-4.3943,-4.3943,-4.3943,-4.3539,-4.3329,-4.3329,-4.3329,-4.321,-4.297,-4.297,-4.2906,-4.2829,-4.2273,0.0,0.0,0.0,0.0,0.0,-4.4241,-4.32,-4.1513,-4.1031,-4.051,-3.9978,-3.9574,-3.9679,-3.9963,-3.9559,-3.9424,-3.9424,-3.9424,-3.9424,-3.9424,-3.9424,-3.961,-4.0384,-4.2817,-4.4545,-4.605,-4.7507,-4.6593,-4.5386,-4.5772,-4.3905,-4.1878,-4.1559,-4.0955,-4.0293,-3.9556,-3.9424,-3.9424,-3.9424,-3.9424,-3.9424,-3.9424,-3.905,-3.8542,-3.7853,-3.7449,-3.6866,-3.5968,-3.5878,-3.5774,-3.5534,-3.5504,-3.5504,-3.5504,-3.5504,-3.5504,-3.5504,-3.5504,-3.5409,-3.5305,-3.5753,-3.6279,-3.6918,-3.8173,-3.9025,-3.9394,-3.8937,-3.8971,0.0,0.0,0.0,0.0,0.0,0.0,0.0,0.0,0.0,0.0,0.0,0.0,0.0,-2.2928,-2.4115,-2.4799,-2.7266,0.0,0.0,0.0,0.0,0.0,0.0,0.0,0.0,0.0,0.0,0.0,0.0,0.0,0.0,-4.3284,-4.3269,-4.3269,-4.3225,-4.3225,-4.3269,-4.3269,-4.294,-4.2374,-4.2374,-4.203,-4.146,-4.146,0.0,0.0,0.0,0.0,0.0,-4.4399,-4.3668,-4.1798,-4.1674,-4.0741,-3.9424,-3.9424,-3.9424,-3.9424,-3.9424,-3.9424,-3.9409,-3.9364,-3.9379,-3.9409,-3.9436,-4.0045,-4.1221,-4.3512,-4.4301,-4.5019,-4.7204,-4.6586,-4.5365,-4.5368,-4.4156,-4.2789,-4.1937,-4.1217,-4.0493,-3.9681,-3.9409,-3.9424,-3.9424,-3.9424,-3.9424,-3.9424,-3.9424,-3.917,-3.8482,-3.8392,-3.7898,-3.6626,-3.6492,-3.6222,-3.5564,-3.5504,-3.5504,-3.5504,-3.5504,-3.5504,-3.5504,-3.5554,-3.5894,-3.6615,-3.6722,-3.7526,-3.8978,-3.9731,-4.007,-4.007,-4.007,-4.007,-2.055,0.0,-2.1127,0.0,0.0,0.0,0.0,0.0,0.0,0.0,0.0,0.0,0.0,0.0,0.0,0.0,0.0,0.0,0.0,0.0,0.0,0.0,0.0,0.0,0.0,0.0,0.0,0.0,0.0,0.0,0.0,-4.2865,-4.2581,-4.2581,-4.2102,-4.2087,-4.2581,-4.2581,-4.2252,-4.1609,-4.1609,-4.161,-4.1653,-4.1653,0.0,0.0,0.0,0.0,-4.4707,-4.3722,-4.2685,-4.1674,-4.1009,-4.0197,-3.9424,-3.9424,-3.9424,-3.9424,-3.9424,-3.9424,-3.9334,-3.8796,-3.899,-3.9448,-3.9558,-4.0454,-4.1766,-4.2983,-4.4204,-4.5471,-4.6759,-4.5835,-4.4756,-4.5299,-4.4156,-4.2905,-4.2722,-4.2071,-4.1272,-4.0539,-3.9864,-3.9424,-3.9424,-3.9424,-3.9424,-3.9424,-3.9424,-3.917,-3.8482,-3.8392,-3.7898,-3.6626,-3.6492,-3.6222,-3.5564,-3.5504,-3.5504,-3.5504,-3.5504,-3.5504,-3.5504,-3.6054,-3.6446,-3.6615,-3.7758,-3.8854,-3.9833,-4.002,-4.007,-4.007,-4.007,-4.007,-2.0089,-2.0193,-2.04,-2.0175,-2.0154,-2.0154,0.0,0.0,0.0,0.0,0.0,0.0,0.0,0.0,0.0,0.0,0.0,0.0,0.0,0.0,0.0,0.0,0.0,0.0,0.0,0.0,0.0,0.0,0.0,0.0,0.0,-4.2102,-4.1908,-4.1908,-4.1564,-4.1549,-4.1908,-4.1908,-4.1579,-4.0935,-4.0935,-4.0857,-4.0609,-4.0609,-4.1572,0.0,0.0,0.0,-4.4675,-4.3456,-4.2457,-4.1643,-4.0842,-4.0055,-3.9424,-3.9424,-3.9424,-3.9424,-3.9424,-3.9424,-3.9376,-3.9076,-3.9428,-4.0063,-4.0216,-4.1274,-4.2572,-4.3476,-4.4331,-4.526,-4.6077,-4.5412,-4.4556,-4.4957,-4.4346,-4.3604,-4.3214,-4.2784,-4.2069,-4.0956,-4.0309,-3.9864,-3.9481,-3.9424,-3.9424,-3.9424,-3.9424,-3.929,-3.8916,-3.8856,-3.8482,-3.7464,-3.736,-3.6985,-3.6028,-3.5953,-3.5833,-3.5534,-3.5504,-3.5668,-3.6006,-3.6384,-3.6948,-3.7642,-3.8854,-3.9662,-4.007,-4.007,-4.007,-4.007,-4.007,-4.007,-2.0472,-2.1007,-2.147,-2.085,-2.0797,-2.0857,0.0,0.0,0.0,0.0,0.0,0.0,0.0,0.0,0.0,0.0,0.0,0.0,0.0,0.0,0.0,0.0,0.0,0.0,0.0,0.0,0.0,0.0,0.0,0.0,0.0,-4.128,-4.119,-4.1085,-4.1085,-4.104,-4.092,-4.113,-4.0905,-4.0247,-4.0247,-3.9963,-3.9409,-3.9553,-4.0309,0.0,0.0,0.0,-4.3741,-4.2852,-4.2212,-4.1565,-4.0785,-4.006,-3.9424,-3.9424,-3.9424,-3.9409,-3.929,-3.9257,-3.9259,-3.9287,-3.9905,-4.0591,-4.0864,-4.1992,-4.329,-4.4197,-4.4532,-4.4722,-4.5365,-4.506,-4.4587,-4.4587,-4.4587,-4.4384,-4.368,-4.3306,-4.2645,-4.1213,-4.069,-4.0239,-3.9553,-3.9424,-3.9424,-3.9424,-3.9424,-3.9424,-3.9424,-3.9424,-3.9155,-3.8467,-3.8392,-3.7868,-3.6596,-3.6492,-3.6207,-3.5549,-3.5504,-3.591,-3.6737,-3.6904,-3.7642,-3.9086,-3.9782,-4.007,-4.007,-4.007,-4.007,-4.007,-4.007,-4.007,-2.1186,-2.2037,-2.2632,-2.1091,-2.1141,-2.1545,0.0,0.0,0.0,0.0,0.0,0.0,0.0,0.0,0.0,0.0,0.0,0.0,0.0,0.0,0.0,0.0,0.0,0.0,0.0,0.0,0.0,0.0,0.0,0.0,0.0,0.0,-4.0292,-3.9738,-3.9723,-3.9439,-3.8856,-3.9978,-4.0217,-3.9574,-3.9574,-3.9514,-3.9424,-4.017,-4.0615,0.0,0.0,-4.1433,-4.2188,-4.0647,-4.0338,-4.0761,-3.9895,-3.9553,-3.9424,-3.9424,-3.9424,-3.9334,-3.8751,-3.8637,-3.8631,-3.8101,-3.8842,-4.0082,-4.0906,-4.1732,-4.265,-4.4145,-4.4598,-4.4604,-4.4722,-4.4654,-4.4587,-4.4587,-4.4587,-4.457,-4.444,-4.3229,-4.2125,-4.1869,-4.0638,-3.9538,-3.9409,-3.9424,-3.9424,-3.9424,-3.9424,-3.9424,-3.9424,-3.9424,-3.9155,-3.8467,-3.8392,-3.7868,-3.6596,-3.6492,-3.6207,-3.5549,-3.5504,-3.6148,-3.7573,-3.8246,-3.8962,-3.9901,-4.002,-4.007,-4.007,-4.007,-4.007,-4.007,-4.007,-4.007,-2.1177,-2.1518,-2.1879,-2.1819,-2.2532,-2.3191,0.0,0.0,0.0,0.0,0.0,0.0,0.0,0.0,0.0,0.0,0.0,0.0,0.0,0.0,0.0,0.0,0.0,0.0,0.0,0.0,0.0,0.0,0.0,0.0,0.0,0.0,-3.9723,-3.9424,-3.9424,-3.9275,-3.8945,-3.9559,-3.9709,-3.9424,-3.9424,-3.9424,-3.9409,-3.9793,-4.0239,-4.0659,0.0,-3.9945,-4.0632,-3.8979,-3.8581,-3.8895,-3.8457,-3.8332,-3.8332,-3.8332,-3.8556,-3.8837,-3.8614,-3.856,-3.8632,-3.8798,-3.9865,-4.12,-4.1643,-4.2568,-4.3628,-4.4412,-4.4587,-4.4587,-4.4587,-4.4587,-4.4587,-4.4587,-4.4587,-4.4587,-4.4587,-4.3989,-4.3152,-4.2189,-4.1346,-4.0516,-3.9538,-3.9424,-3.9424,-3.9424,-3.9424,-3.9424,-3.9424,-3.9424,-3.929,-3.8975,-3.8945,-3.8422,-3.7105,-3.6985,-3.6737,-3.6115,-3.6477,-3.7235,-3.8358,-3.9156,-3.9714,-4.007,-4.007,-4.007,-4.007,-4.007,-4.007,-4.007,-4.007,-4.007,-2.1199,-2.1104,-2.1186,0.0,0.0,0.0,0.0,0.0,0.0,0.0,0.0,0.0,0.0,0.0,0.0,0.0,0.0,0.0,0.0,0.0,0.0,0.0,0.0,0.0,0.0,0.0,0.0,0.0,0.0,0.0,0.0,0.0,-3.9185,-3.9185,-3.9185,-3.911,-3.8945,-3.911,-3.926,-3.9424,-3.9424,-3.9424,-3.9409,-3.9245,-3.9567,-4.0086,-3.8771,-3.8538,-3.9072,-3.7873,-3.7404,-3.7404,-3.7404,-3.7404,-3.7404,-3.7594,-3.7888,-3.8251,-3.8735,-3.8763,-3.8825,-3.9854,-4.1031,-4.2019,-4.2446,-4.325,-4.4113,-4.4485,-4.4451,-4.435,-4.4536,-4.4587,-4.4587,-4.4587,-4.4587,-4.4587,-4.4587,-4.444,-4.3873,-4.2583,-4.1997,-4.128,-3.9935,-3.9553,-3.9424,-3.9424,-3.9424,-3.9424,-3.9424,-3.9424,-3.9424,-3.9424,-3.9424,-3.8931,-3.7734,-3.736,-3.7182,-3.7094,-3.7551,-3.8149,-3.8854,-3.9662,-4.007,-4.007,-4.007,-4.007,-4.007,-4.007,-4.007,-4.007,-4.007,-4.007,-2.1757,-2.1765,-2.165,-2.1739,0.0,0.0,0.0,0.0,0.0,0.0,0.0,0.0,0.0,0.0,0.0,0.0,0.0,0.0,0.0,0.0,0.0,0.0,0.0,0.0,0.0,0.0,0.0,0.0,0.0,0.0,0.0,0.0,0.0,-3.8467,-3.8467,-3.8167,-3.7554,-3.8153,-3.8781,-3.9424,-3.9424,-3.9424,-3.9394,-3.8751,-3.8522,-3.8547,-3.7764,-3.7479,-3.7533,-3.7434,-3.7404,-3.7404,-3.7404,-3.7404,-3.7473,-3.8233,-3.8175,-3.7855,-3.9311,-3.9376,-3.9106,-4.0621,-4.1188,-4.1557,-4.2875,-4.2929,-4.2743,-4.4181,-4.4062,-4.3673,-4.4401,-4.4587,-4.4587,-4.4587,-4.4587,-4.4587,-4.4587,-4.3948,-4.3366,-4.3229,-4.1933,-4.0758,-4.0622,-3.9935,-3.9424,-3.9424,-3.9424,-3.9424,-3.9424,-3.9424,-3.9424,-3.9424,-3.9424,-3.9125,-3.8377,-3.7225,-3.717,-3.8543,-3.8115,-3.8149,-3.8854,-3.9662,-4.007,-4.007,-4.007,-4.007,-4.007,-4.007,-4.007,-4.007,-4.007,-4.007,-2.1327,-2.1827,-2.2308,0.0,0.0,0.0,0.0,0.0,0.0,0.0,0.0,0.0,0.0,0.0,0.0,0.0,0.0,0.0,0.0,0.0,0.0,0.0,0.0,0.0,0.0,0.0,0.0,0.0,0.0,0.0,0.0,0.0,0.0,-3.7778,-3.7778,-3.7659,-3.7404,-3.7659,-3.7913,-3.8167,-3.8586,-3.8781,-3.8751,-3.8078,-3.7778,-3.7749,-3.7105,-3.6836,-3.6806,-3.6387,-3.6222,-3.6222,-3.6222,-3.6763,-3.7544,-3.7434,-3.781,-3.8455,-3.903,-3.9077,-3.9061,-4.0157,-4.0826,-4.1305,-4.1863,-4.2151,-4.2506,-4.3555,-4.3639,-4.3606,-4.4384,-4.4587,-4.4587,-4.4587,-4.4587,-4.4587,-4.4587,-4.4327,-4.3798,-4.2707,-4.1933,-4.1147,-4.006,-3.9941,-4.0023,-4.0023,-4.0382,-4.0487,-4.0083,-4.0023,-3.9873,-3.9469,-3.9035,-3.8858,-3.9176,-3.8387,-3.8528,-4.017,-3.8737,-3.8374,-3.961,-3.9952,-4.007,-4.007,-4.007,-4.007,-4.007,-4.007,-4.007,-4.007,-4.007,-4.007,-2.115,-2.1475,-2.1869,0.0,0.0,0.0,0.0,0.0,0.0,0.0,0.0,0.0,0.0,0.0,0.0,0.0,0.0,0.0,0.0,0.0,0.0,0.0,0.0,0.0,0.0,0.0,0.0,0.0,0.0,0.0,0.0,0.0,0.0,0.0,-3.7225,-3.712,-3.712,-3.712,-3.712,-3.712,-3.7569,-3.7883,-3.8063,-3.7404,-3.712,-3.709,-3.6447,-3.6178,-3.6148,-3.5684,-3.5504,-3.5504,-3.5504,-3.6231,-3.725,-3.7015,-3.7741,-3.8885,-3.9424,-3.9462,-3.9451,-4.0441,-4.0967,-4.1238,-4.1474,-4.1728,-4.21,-4.2861,-4.2895,-4.2895,-4.3656,-4.4215,-4.4587,-4.4587,-4.4587,-4.4587,-4.4587,-4.4587,-4.4196,-4.2707,-4.2189,-4.1543,-4.006,-3.9986,-4.0083,-4.0083,-4.0472,-4.0591,-4.0142,-4.0083,-3.9918,-3.9469,-3.9244,-3.9344,-3.9993,-3.9685,-3.9941,-4.1074,-3.9495,-3.9106,-4.0375,-4.0206,-4.007,-4.007,-4.007,-4.007,-4.007,-4.007,-4.007,-4.007,-4.007,-4.007,-2.1507,-2.0681,0.0,0.0,0.0,0.0,0.0,0.0,0.0,0.0,0.0,0.0,0.0,0.0,0.0,0.0,0.0,0.0,0.0,0.0,0.0,0.0,0.0,0.0,0.0,0.0,0.0,0.0,0.0,0.0,0.0,0.0,0.0,0.0,-3.6791,-3.6477,-3.6477,-3.6477,-3.6477,-3.6477,-3.6477,-3.6806,-3.7375,-3.6761,-3.6477,-3.6432,-3.5789,-3.5504,-3.5504,-3.5504,-3.5504,-3.5504,-3.5504,-3.5943,-3.6722,-3.7515,-3.8246,-3.9131,-4.0639,-4.0696,-4.0324,-4.1796,-4.1779,-4.1339,-4.2066,-4.1762,-4.1339,-4.2066,-4.1762,-4.1373,-4.21,-4.342,-4.457,-4.457,-4.457,-4.457,-4.4587,-4.457,-4.4327,-4.3443,-4.2583,-4.1739,-4.0811,-4.0005,-3.9424,-3.9424,-3.9439,-3.9439,-3.9424,-3.9424,-3.9424,-3.9409,-4.017,-4.069,-4.0758,-4.0895,-4.1007,-4.1017,-4.0423,-4.0429,-4.1135,-4.0476,-4.007,-4.007,-4.007,-4.007,-4.007,-4.007,-4.007,-4.007,-4.007,-4.007,-2.173,0.0,0.0,0.0,0.0,0.0,0.0,0.0,0.0,0.0,0.0,0.0,0.0,0.0,0.0,0.0,0.0,0.0,0.0,0.0,0.0,0.0,0.0,0.0,0.0,0.0,0.0,0.0,0.0,0.0,0.0,0.0,0.0,0.0,-3.5893,-3.5804,-3.5804,-3.5804,-3.5804,-3.5804,-3.5804,-3.6133,-3.6731,-3.6088,-3.5804,-3.5789,-3.5594,-3.5504,-3.5504,-3.5504,-3.5504,-3.5554,-3.6054,-3.6753,-3.7515,-3.8302,-3.9086,-3.9816,-4.0273,-4.0257,-4.024,-4.1221,-4.1018,-4.0544,-4.1305,-4.1001,-4.0561,-4.1322,-4.1373,-4.1373,-4.21,-4.3014,-4.3775,-4.3775,-4.3775,-4.391,-4.4468,-4.4121,-4.3426,-4.2583,-4.1674,-4.0826,-3.9935,-4.0001,-4.0113,-4.0113,-4.0502,-4.0636,-4.0172,-3.9709,-3.961,-4.0239,-4.0569,-4.1213,-4.2442,-4.2118,-4.2104,-4.2663,-4.1543,-4.0725,-4.0426,-4.0206,-4.007,-4.007,-4.007,-4.007,-4.007,-4.007,-4.007,-4.007,-4.007,-4.007,0.0,0.0,0.0,0.0,0.0,0.0,0.0,0.0,0.0,0.0,0.0,0.0,0.0,0.0,0.0,0.0,0.0,0.0,0.0,0.0,0.0,0.0,0.0,0.0,0.0,0.0,0.0,0.0,0.0,0.0,0.0,0.0,0.0,0.0,-3.5355,-3.537,-3.51,-3.537,-3.5504,-3.5504,-3.5782,-3.6155,-3.6535,-3.5799,-3.5668,-3.5958,-3.5619,-3.5504,-3.5504,-3.5504,-3.5504,-3.5554,-3.6337,-3.7084,-3.7863,-3.8635,-3.9437,-4.007,-4.007,-4.007,-4.0155,-4.0612,-4.0443,-4.0155,-4.0629,-4.0443,-4.0172,-4.0629,-4.0747,-4.0865,-4.1288,-4.1965,-4.2692,-4.3284,-4.3656,-4.4012,-4.4485,-4.3948,-4.3047,-4.2189,-4.128,-4.0432,-3.9538,-3.9753,-4.0008,-4.0008,-4.0352,-4.0457,-4.0053,-3.9664,-3.961,-4.0115,-4.0826,-4.1674,-4.2707,-4.3013,-4.3069,-4.2942,-4.2134,-4.117,-4.0121,-4.007,-4.007,-4.007,-4.007,-4.007,-4.007,-4.007,-4.007,-4.007,-4.007,-4.007,0.0,0.0,0.0,0.0,0.0,0.0,0.0,0.0,0.0,0.0,0.0,0.0,0.0,0.0,0.0,0.0,0.0,0.0,0.0,0.0,0.0,0.0,0.0,0.0,0.0,0.0,0.0,0.0,0.0,0.0,0.0,0.0,0.0,0.0,-3.4996,-3.5026,-3.4382,-3.506,-3.5439,0.0,-3.6214,-3.6628,-3.6689,-3.6039,-3.6006,-3.6554,-3.5846,-3.5504,-3.5504,-3.5504,-3.5569,-3.5668,-3.6399,-3.7203,-3.7978,-3.8761,-3.9489,-4.007,-4.007,-4.007,-4.0087,-4.0155,-4.0121,-4.0087,-4.0155,-4.0121,-4.007,-4.007,-4.007,-4.007,-4.007,-4.0646,-4.1559,-4.298,-4.3838,-4.4429,-4.4497,-4.3739,-4.2847,-4.2062,-4.1213,-4.0309,-3.9553,-3.9424,-3.9424,-3.9424,-3.9424,-3.9424,-3.9424,-3.9424,-3.9481,-3.961,-4.1028,-4.2062,-4.2252,-4.3597,-4.3876,-4.2472,-4.2269,-4.1593,-4.024,-4.0121,-4.007,-4.007,-4.007,-4.007,-4.007,-4.007,-4.007,-4.007,-4.007,-4.007,0.0,0.0,0.0,0.0,0.0,0.0,0.0,0.0,0.0,0.0,0.0,0.0,0.0,0.0,0.0,0.0,0.0,0.0,0.0,0.0,0.0,0.0,0.0,0.0,0.0,0.0,0.0,0.0,0.0,0.0,0.0,0.0,0.0,-3.3709,-3.3844,-3.3858,-3.3709,-3.4394,-3.4739,0.0,-3.6075,-3.6958,-3.7546,-3.7377,-3.7055,-3.6554,-3.5846,-3.5504,-3.5504,-3.5504,-3.5831,-3.6446,-3.7219,-3.8019,-3.8745,-3.9558,-3.9952,-4.007,-4.007,-4.007,-4.0172,-4.0781,-4.0561,-4.0189,-4.0781,-4.0544,-4.007,-4.007,-4.007,-4.007,-4.007,-4.0646,-4.1441,-4.232,-4.2624,-4.285,-4.3429,-4.2395,-4.1213,-4.1013,-4.0255,-3.961,-3.9409,-3.9424,-3.9424,-3.9424,-3.9424,-3.9424,-3.9424,-3.9424,-3.9935,-4.128,-4.1804,-4.2567,-4.3931,-4.3827,-4.3538,-4.32,-4.2083,-4.1288,-4.0984,-4.0392,-4.007,-4.007,-4.007,-4.007,-4.007,-4.007,-4.007,-4.007,-4.007,-4.007,0.0,0.0,0.0,0.0,0.0,0.0,0.0,0.0,0.0,0.0,0.0,0.0,0.0,0.0,0.0,0.0,0.0,0.0,0.0,0.0,0.0,0.0,0.0,0.0,0.0,0.0,0.0,0.0,0.0,0.0,0.0,-3.3679,-3.335,-3.3036,-3.3335,-3.3352,-3.2983,-3.3664,-3.4131,-3.4453,-3.5604,-3.6738,-3.7836,-3.7792,-3.7164,-3.6044,-3.5646,-3.5504,-3.5504,-3.5504,-3.5943,-3.6661,-3.7515,-3.8246,-3.9016,-3.9782,-4.007,-4.007,-4.007,-4.007,-4.0138,-4.0544,-4.0392,-4.0155,-4.0544,-4.0392,-4.007,-4.007,-4.007,-4.007,-4.007,-4.0899,-4.1728,-4.1762,-4.2265,-4.2898,-4.3201,-4.2252,-4.1213,-4.0758,-3.999,-3.9424,-3.9424,-3.9424,-3.9424,-3.9424,-3.9424,-3.9424,-3.9424,-3.9424,-3.9935,-4.1213,-4.1453,-4.2148,-4.3839,-4.362,-4.3267,-4.2912,-4.2151,-4.1407,-4.0696,-4.029,-4.007,-4.007,-4.007,-4.007,-4.007,-4.007,-4.007,-4.007,-4.007,-4.007,0.0,0.0,0.0,0.0,0.0,0.0,0.0,0.0,0.0,0.0,0.0,0.0,0.0,0.0,0.0,0.0,0.0,0.0,0.0,0.0,0.0,0.0,0.0,0.0,0.0,0.0,0.0,0.0,0.0,0.0,-3.3155,-3.2946,-3.2631,-3.2178,-3.269,-3.271,-3.2214,-3.2866,-3.3574,-3.4238,-3.5315,-3.647,-3.7706,-3.7649,-3.6896,-3.5714,-3.5843,-3.5797,-3.5733,-3.5861,-3.6352,-3.7068,-3.7732,-3.843,-3.9193,-3.9833,-4.007,-4.007,-4.007,-4.007,-4.007,-4.007,-4.007,-4.007,-4.007,-4.007,-4.007,-4.007,-4.007,-4.007,-4.007,-4.1001,-4.1796,-4.1322,-4.2112,-4.2942,-4.29,-4.2172,-4.1346,-4.0622,-3.9864,-3.9424,-3.9424,-3.9424,-3.9424,-3.9424,-3.9424,-3.9424,-3.9424,-3.9424,-3.9793,-4.0826,-4.0942,-4.1636,-4.336,-4.3434,-4.3149,-4.2523,-4.2354,-4.1694,-4.0324,-4.0273,-4.0273,-4.0273,-4.0138,-4.0138,-4.0273,-4.0273,-4.0341,-4.046,-4.046,-4.0392,0.0,0.0,0.0,0.0,0.0,0.0,0.0,0.0,0.0,0.0,0.0,0.0,0.0,0.0,0.0,0.0,0.0,0.0,0.0,0.0,0.0,0.0,0.0,0.0,0.0,0.0,0.0,0.0,0.0,0.0,-3.1764,-3.0717,-3.0301,-3.0751,-3.0843,-3.1094,-3.1545,-3.2223,-3.2912,-3.3629,-3.5679,-3.673,-3.6941,-3.6903,-3.6745,-3.6572,-3.7213,-3.7115,-3.6508,-3.7235,-3.7905,-3.8619,-3.869,-3.9262,-3.9952,-4.007,-4.007,-4.007,-4.007,-4.007,-4.007,-4.007,-4.007,-4.007,-4.007,-4.007,-4.007,-4.007,-4.007,-4.007,-4.007,-4.0223,-4.051,-4.1068,-4.1243,-4.1313,-4.1206,-4.0422,-3.9737,-3.961,-3.9481,-3.9424,-3.9424,-3.9424,-3.9424,-3.9424,-3.9424,-3.9424,-3.9424,-3.9424,-3.999,-4.1674,-4.1263,-4.1882,-4.4202,-4.3804,-4.3369,-4.3267,-4.2642,-4.1914,-4.1085,-4.1052,-4.1052,-4.1052,-4.0409,-4.0392,-4.1052,-4.1052,-4.1373,-4.1999,-4.1999,-4.166,0.0,0.0,0.0,0.0,0.0,0.0,0.0,0.0,0.0,0.0,0.0,0.0,0.0,0.0,0.0,0.0,0.0,0.0,0.0,0.0,0.0,0.0,0.0,0.0,0.0,0.0,0.0,0.0,0.0,-3.0477,-3.0447,-3.0228,-3.021,-3.049,-3.0829,-3.1118,-3.1329,-3.1618,-3.2354,-3.3472,-3.4829,-3.5723,-3.6146,-3.6575,-3.6506,-3.6113,-3.6846,-3.6985,-3.6727,-3.7472,-3.8246,-3.8908,-3.8908,-3.9368,-4.007,-4.007,-4.007,-4.007,-4.007,-4.007,-4.007,-4.007,-4.007,-4.007,-4.007,-4.007,-4.007,-4.007,-4.007,-4.007,-4.007,-4.0392,-4.0679,-4.0595,-4.0498,-4.0404,-4.0302,-4.0212,-3.999,-3.9481,-3.9424,-3.9424,-3.9424,-3.9424,-3.9424,-3.9424,-3.9424,-3.9424,-3.9424,-3.9424,-4.006,-4.1804,-4.1326,-4.1882,-4.439,-4.3859,-4.342,-4.342,-4.3115,-4.2591,-4.1847,-4.1813,-4.1813,-4.1813,-4.1491,-4.1474,-4.1813,-4.1813,-4.1982,-4.2286,-4.2286,-4.2117,0.0,0.0,0.0,0.0,0.0,0.0,0.0,0.0,0.0,0.0,0.0,0.0,0.0,0.0,0.0,0.0,0.0,0.0,0.0,0.0,0.0,0.0,0.0,0.0,0.0,0.0,0.0,0.0,0.0,-3.0114,-2.984,-3.0072,-3.0313,-3.0445,-3.0879,-3.118,-3.1288,-3.147,-3.2067,-3.3136,-3.3863,-3.4506,-3.5081,-3.5859,-3.5887,-3.5397,-3.6502,-3.6864,-3.6748,-3.7711,-3.8444,-3.8944,-3.9126,-3.9558,-4.007,-4.007,-4.007,-4.007,-4.007,-4.007,-4.007,-4.007,-4.007,-4.007,-4.007,-4.007,-4.007,-4.007,-4.007,-4.007,-4.007,-4.0493,-4.0781,-4.0206,-4.0007,-3.9831,-3.9535,-3.992,-4.0185,-3.9553,-3.9424,-3.9424,-3.9424,-3.9424,-3.9424,-3.9424,-3.9424,-3.9481,-3.9666,-3.9553,-4.013,-4.2125,-4.1453,-4.1882,-4.439,-4.369,-4.3217,-4.3403,-4.3234,-4.2878,-4.2303,-4.2472,-4.2574,-4.2574,-4.2777,-4.2777,-4.2574,-4.2574,-4.2675,-4.2861,-4.2861,-4.276,0.0,0.0,0.0,0.0,0.0,0.0,0.0,0.0,0.0,0.0,0.0,0.0,0.0,0.0,0.0,0.0,0.0,0.0,0.0,0.0,0.0,0.0,0.0,0.0,0.0,0.0,0.0,0.0,0.0,-2.9808,-3.0323,-2.9795,-2.9742,-3.0281,-3.0323,-3.0618,-3.1202,-3.1894,-3.229,-3.2381,-3.3102,-3.3491,-3.3541,-3.4269,-3.4607,-3.4682,-3.6882,-3.7386,-3.6814,-3.8338,-3.894,-3.9057,-3.975,-4.007,-4.007,-4.007,-4.007,-4.007,-4.007,-4.007,-4.007,-4.007,-4.007,-4.007,-4.007,-4.007,-4.007,-4.007,-4.007,-4.007,-4.007,-4.0104,-4.0121,-4.0087,-4.0021,-3.9645,-3.8705,-3.8972,-3.9481,-3.9424,-3.9424,-3.9424,-3.9424,-3.9424,-3.9424,-3.9424,-3.9424,-3.9666,-4.0569,-3.992,-4.0393,-4.2986,-4.1843,-4.1882,-4.439,-4.32,-4.2658,-4.3369,-4.2743,-4.2337,-4.2286,-4.298,-4.3352,-4.3352,-4.4079,-4.4096,-4.3352,-4.3352,-4.3741,-4.4451,-4.4451,-4.4062,0.0,0.0,0.0,0.0,0.0,0.0,0.0,0.0,0.0,0.0,0.0,0.0,0.0,0.0,0.0,0.0,0.0,0.0,0.0,0.0,0.0,0.0,0.0,0.0,0.0,0.0,0.0,0.0,0.0,0.0,-2.9761,-2.9907,-3.0081,-3.0293,-3.0658,-3.0975,-3.119,-3.1444,-3.1816,-3.2313,-3.256,-3.2933,-3.3406,-3.3677,-3.4049,-3.4539,-3.5351,-3.611,-3.688,-3.8366,-3.8717,-3.8413,-3.9614,-3.9783,-3.9445,-3.9901,-4.007,-4.007,-4.007,-4.007,-4.007,-4.007,-4.007,-4.0171,-4.0497,-4.0368,-4.0154,-4.0546,-4.0368,-4.007,-4.007,-4.007,-3.9952,-3.9437,-3.9632,-3.9658,-3.8811,-3.8345,-3.8138,-3.8138,-3.8138,-3.8257,-3.8676,-3.8751,-3.8901,-3.9349,-3.9424,-3.9481,-3.9793,-4.0045,-4.0826,-4.2332,-4.2434,-4.3026,-4.4497,-4.4062,-4.3876,-4.4147,-4.391,-4.3758,-4.3758,-4.4028,-4.4164,-4.4164,-4.4434,-4.4451,-4.4164,-4.4164,-4.4316,-4.4587,-4.4587,-4.4434,0.0,0.0,0.0,0.0,0.0,0.0,0.0,0.0,0.0,0.0,0.0,0.0,0.0,0.0,0.0,0.0,0.0,0.0,0.0,0.0,0.0,0.0,0.0,0.0,0.0,0.0,0.0,0.0,0.0,0.0,-2.9251,-2.9666,-3.0002,-3.0251,-3.0841,-3.119,-3.119,-3.119,-3.1444,-3.1918,-3.1918,-3.2171,-3.2679,-3.2916,-3.3288,-3.3778,-3.4286,-3.5216,-3.6502,-3.8007,-3.8193,-3.7702,-3.9411,-3.9631,-3.9089,-3.9817,-4.007,-4.007,-4.007,-4.007,-4.007,-4.007,-4.007,-4.0171,-4.0528,-4.0368,-4.0154,-4.0528,-4.0368,-4.007,-4.007,-4.007,-3.9969,-3.9437,-3.945,-3.945,-3.8958,-3.8497,-3.8218,-3.8218,-3.8165,-3.8266,-3.8704,-3.8782,-3.8901,-3.9349,-3.9424,-3.961,-4.02,-4.05,-4.128,-4.2707,-4.3108,-4.3621,-4.4514,-4.4333,-4.4299,-4.4553,-4.4333,-4.4316,-4.457,-4.4587,-4.4587,-4.4587,-4.4587,-4.4587,-4.4587,-4.4587,-4.4587,-4.4587,-4.4587,-4.4587,0.0,0.0,0.0,0.0,0.0,0.0,0.0,0.0,0.0,0.0,0.0,0.0,0.0,0.0,0.0,0.0,0.0,0.0,0.0,0.0,0.0,0.0,0.0,0.0,0.0,0.0,0.0,0.0,0.0,-2.7785,-2.8938,-2.9011,-2.9313,-3.004,-3.0784,-3.1157,-3.1157,-3.119,-3.119,-3.119,-3.119,-3.119,-3.1207,-3.1918,-3.2256,-3.2357,-3.3829,-3.4895,-3.5707,-3.7246,-3.7449,-3.7009,-3.9191,-3.9614,-3.9089,-3.9817,-4.007,-4.007,-4.007,-4.007,-4.007,-4.007,-4.007,-4.0121,-4.0121,-4.0121,-4.0121,-4.0121,-4.0121,-4.007,-4.007,-4.007,-4.007,-4.007,-3.9489,-3.8908,-3.8908,-3.9388,-3.9793,-3.9747,-3.9706,-3.9617,-3.9632,-3.948,-3.9394,-3.9409,-3.9424,-3.999,-4.1739,-4.1213,-4.1723,-4.4253,-4.3814,-4.368,-4.4514,-4.3876,-4.3775,-4.4536,-4.3876,-4.3792,-4.4553,-4.4587,-4.4587,-4.4587,-4.4587,-4.4587,-4.4587,-4.4587,-4.4587,-4.4587,-4.4587,-4.4587,-2.5896,0.0,0.0,0.0,0.0,0.0,0.0,0.0,0.0,0.0,0.0,0.0,0.0,0.0,0.0,0.0,0.0,0.0,0.0,0.0,0.0,0.0,0.0,0.0,0.0,0.0,0.0,0.0,-2.7681,-2.8229,-2.8975,-2.9011,-2.9076,-2.9296,-3.0023,-3.0412,-3.0412,-3.092,-3.119,-3.119,-3.119,-3.119,-3.1207,-3.141,-3.1782,-3.2364,-3.3288,-3.4117,-3.4912,-3.6451,-3.6975,-3.6958,-3.8633,-3.9174,-3.9089,-3.9817,-4.007,-4.007,-4.007,-4.007,-4.007,-4.007,-4.007,-4.0154,-4.0577,-4.0417,-4.0154,-4.0577,-4.0417,-4.007,-4.007,-4.007,-4.007,-4.007,-3.9952,-3.9782,-3.9782,-3.9876,-3.9863,-3.9275,-3.9572,-3.9835,-3.9722,-3.9637,-3.9551,-3.9406,-3.9424,-3.9538,-4.006,-4.1028,-4.1933,-4.2645,-4.3604,-4.4327,-4.457,-4.4384,-4.435,-4.457,-4.4384,-4.435,-4.457,-4.4587,-4.4587,-4.4587,-4.4587,-4.4587,-4.4587,-4.4587,-4.4587,-4.4587,-4.4587,-4.4587,0.0,0.0,0.0,0.0,0.0,0.0,0.0,-2.2678,0.0,0.0,0.0,0.0,0.0,0.0,0.0,0.0,0.0,0.0,0.0,0.0,0.0,0.0,0.0,0.0,0.0,0.0,0.0,-2.6374,-2.6906,-2.747,-2.8027,-2.8315,-2.8501,-2.8501,-2.9245,-2.9786,-3.0108,-3.0531,-3.0903,-3.119,-3.119,-3.119,-3.119,-3.119,-3.1427,-3.1867,-3.2611,-3.3355,-3.4134,-3.5334,-3.6011,-3.6468,-3.8278,-3.8802,-3.8667,-3.9698,-4.007,-4.007,-4.007,-4.007,-4.007,-4.007,-4.007,-4.0171,-4.0497,-4.0319,-4.0171,-4.0497,-4.0319,-4.007,-4.007,-4.007,-4.007,-4.007,-4.007,-4.007,-4.007,-4.0324,-4.0355,-3.9534,-3.996,-4.0301,-3.9802,-3.9978,-3.9878,-3.9103,-3.899,-3.9118,-3.951,-4.0723,-4.1804,-4.2488,-4.3798,-4.4587,-4.4587,-4.4587,-4.4587,-4.4587,-4.4587,-4.4587,-4.4587,-4.4587,-4.4587,-4.4587,-4.4587,-4.4587,-4.4587,-4.4587,-4.4587,-4.4587,-4.4587,-4.4587,0.0,0.0,0.0,0.0,0.0,0.0,-2.3531,-2.3095,-2.2747,0.0,0.0,0.0,0.0,0.0,0.0,0.0,0.0,0.0,0.0,0.0,0.0,0.0,0.0,0.0,0.0,-2.4112,-2.4712,-2.5182,-2.5762,-2.6262,-2.6691,-2.7334,-2.7705,-2.7789,-2.8484,-2.9262,-3.0091,-3.0108,-3.048,-3.119,-3.1151,-3.1151,-3.119,-3.1151,-3.1151,-3.1241,-3.1968,-3.2662,-3.3339,-3.415,-3.4996,-3.5943,-3.7956,-3.8464,-3.8176,-3.9478,-4.0003,-4.007,-4.007,-4.007,-4.007,-4.007,-4.007,-4.007,-4.007,-4.007,-4.007,-4.007,-4.007,-4.007,-4.007,-4.007,-4.007,-4.007,-4.007,-4.007,-4.007,-4.0612,-4.0882,-4.0087,-4.0513,-4.0736,-3.9962,-4.0177,-4.0001,-3.8502,-3.8287,-3.8605,-3.9508,-4.0388,-4.1572,-4.3048,-4.4013,-4.4587,-4.4587,-4.4587,-4.4587,-4.4587,-4.4587,-4.4587,-4.4587,-4.4587,-4.457,-4.4457,-4.4457,-4.4514,-4.4587,-4.4587,-4.4587,-4.4587,-4.4587,-4.457,0.0,0.0,0.0,0.0,0.0,0.0,-2.442,-2.412,-2.3858,0.0,0.0,0.0,0.0,0.0,0.0,0.0,0.0,0.0,0.0,0.0,0.0,0.0,0.0,0.0,0.0,-2.42,-2.5105,-2.5182,-2.6052,-2.6624,-2.6691,-2.6843,-2.7199,-2.7772,-2.7941,-2.8721,-3.0091,-3.0108,-3.048,-3.119,-3.0699,-3.074,-3.119,-3.0699,-3.074,-3.1241,-3.1968,-3.2357,-3.2611,-3.3947,-3.5318,-3.6603,-3.7043,-3.7855,-3.8819,-3.9106,-3.958,-4.007,-4.007,-4.007,-4.007,-4.007,-4.007,-4.007,-4.007,-4.007,-4.007,-4.007,-4.007,-4.007,-4.007,-4.007,-4.007,-4.007,-4.007,-4.007,-4.007,-4.0189,-4.007,-3.9295,-4.0222,-4.0869,-4.0007,-3.944,-3.8754,-3.7751,-3.7599,-3.7926,-3.8681,-4.0103,-4.1378,-4.2282,-4.3712,-4.4587,-4.4587,-4.4587,-4.4587,-4.4587,-4.4587,-4.4587,-4.4587,-4.4587,-4.4253,-4.3562,-4.3562,-4.3873,-4.4587,-4.4587,-4.4587,-4.4587,-4.4587,-4.4196,0.0,0.0,0.0,-2.7944,0.0,0.0,0.0,-2.5207,-2.4847,0.0,0.0,0.0,0.0,0.0,0.0,0.0,0.0,0.0,0.0,0.0,0.0,0.0,0.0,0.0,0.0,-2.4044,-2.5061,-2.5875,-2.6436,-2.6691,-2.6691,-2.6691,-2.686,-2.7249,-2.7249,-2.7994,-2.9533,-2.955,-2.9922,-3.0649,-3.0393,-3.0278,-3.0189,-3.027,-3.0477,-3.0773,-3.1443,-3.1935,-3.2415,-3.3491,-3.4624,-3.5707,-3.6485,-3.7466,-3.8497,-3.8853,-3.9462,-4.007,-4.007,-4.007,-4.007,-4.007,-4.007,-4.007,-4.007,-4.007,-4.007,-4.007,-4.007,-4.007,-4.007,-3.9782,-3.9489,-3.9489,-3.9209,-3.8941,-3.8941,-3.8941,-3.8816,-3.843,-3.864,-3.8882,-3.8746,-3.8732,-3.8292,-3.7121,-3.6941,-3.7246,-3.7972,-3.9187,-4.0393,-4.1477,-4.2708,-4.3589,-4.3961,-4.3995,-4.4164,-4.4553,-4.4587,-4.4384,-4.3948,-4.3948,-4.3545,-4.2645,-4.2645,-4.2847,-4.329,-4.329,-4.3545,-4.3931,-4.3486,-4.3092,0.0,0.0,0.0,0.0,0.0,-2.8007,0.0,0.0,0.0,0.0,0.0,0.0,0.0,0.0,0.0,0.0,0.0,0.0,0.0,0.0,0.0,0.0,0.0,0.0,0.0,-2.3595,-2.4661,-2.6099,-2.6352,-2.6419,-2.6419,-2.6505,-2.6572,-2.6637,-2.6657,-2.7349,-2.8665,-2.8774,-2.9143,-2.975,-2.9757,-2.9623,-2.942,-2.9781,-3.0119,-3.0518,-3.0975,-3.1529,-3.2138,-3.3034,-3.3744,-3.4438,-3.596,-3.7026,-3.7787,-3.8514,-3.9242,-3.9884,-4.002,-4.007,-4.007,-4.007,-4.007,-4.007,-4.007,-4.007,-4.007,-4.007,-4.007,-4.007,-4.007,-3.9489,-3.8908,-3.8908,-3.8358,-3.7822,-3.7822,-3.7822,-3.7822,-3.7822,-3.716,-3.6785,-3.7328,-3.7774,-3.7667,-3.649,-3.6297,-3.6647,-3.7499,-3.8391,-3.9467,-4.0875,-4.1791,-4.2591,-4.3352,-4.342,-4.3741,-4.4536,-4.4587,-4.4196,-4.3306,-4.2986,-4.252,-4.1997,-4.1869,-4.1869,-4.1997,-4.1869,-4.2189,-4.3047,-4.2332,-4.1933,0.0,0.0,0.0,0.0,-2.9989,0.0,0.0,0.0,0.0,0.0,0.0,0.0,0.0,0.0,0.0,0.0,0.0,0.0,0.0,0.0,0.0,0.0,0.0,0.0,0.0,0.0,-2.3784,-2.4422,-2.504,-2.5373,-2.5373,-2.5799,-2.6147,-2.6347,-2.6578,-2.6981,-2.7591,-2.8001,-2.8321,-2.8575,-2.8063,-2.8646,-3.0161,-2.9091,-2.9526,-3.1095,-3.119,-3.1241,-3.1427,-3.2831,-3.3457,-3.3677,-3.5165,-3.6231,-3.6992,-3.7753,-3.8481,-3.9208,-3.9851,-4.007,-4.007,-4.007,-4.007,-4.007,-4.007,-4.007,-4.007,-4.007,-4.007,-4.007,-4.007,-3.9489,-3.8908,-3.8908,-3.8358,-3.7822,-3.7822,-3.7822,-3.7822,-3.7822,-3.716,-3.6631,-3.6708,-3.6237,-3.5814,-3.5624,-3.5609,-3.6143,-3.7583,-3.8462,-3.9462,-4.1026,-4.1844,-4.2591,-4.3352,-4.342,-4.3741,-4.4536,-4.4587,-4.4196,-4.3306,-4.1804,-4.1346,-4.1997,-4.1213,-4.1213,-4.1997,-4.1198,-4.128,-4.2125,-4.2062,-4.1609,0.0,0.0,0.0,0.0,0.0,0.0,0.0,0.0,-2.7727,0.0,0.0,0.0,0.0,0.0,0.0,0.0,0.0,0.0,0.0,0.0,0.0,0.0,0.0,0.0,0.0,0.0,0.0,0.0,0.0,-2.4612,-2.4612,-2.5185,-2.5556,-2.5654,-2.5745,-2.6124,-2.6752,-2.6969,-2.7074,-2.716,-2.7428,-2.7713,-2.806,-2.8674,-2.9426,-3.0208,-3.0878,-3.119,-3.1309,-3.2797,-3.3406,-3.3558,-3.503,-3.6096,-3.6874,-3.7635,-3.8362,-3.9106,-3.9817,-4.007,-4.007,-4.007,-4.007,-4.007,-4.007,-4.007,-4.007,-4.007,-4.007,-4.0003,-3.9542,-3.8816,-3.8133,-3.7658,-3.698,-3.6492,-3.6492,-3.6492,-3.66,-3.704,-3.6843,-3.6615,-3.6615,-3.6006,-3.5683,-3.6054,-3.6165,-3.6523,-3.7648,-3.8448,-3.9314,-4.0425,-4.0815,-4.1305,-4.2066,-4.2523,-4.2901,-4.3189,-4.2664,-4.2173,-4.1804,-4.0569,-4.0115,-4.0447,-4.0115,-4.013,-4.0516,-4.0115,-4.0115,-4.0516,-4.0516,-4.0324,-3.3807,0.0,0.0,0.0,0.0,0.0,0.0,0.0,0.0,0.0,0.0,0.0,0.0,0.0,0.0,0.0,0.0,0.0,0.0,0.0,0.0,0.0,0.0,0.0,0.0,0.0,0.0,0.0,-2.3128,-2.3601,-2.3768,-2.4395,-2.4705,-2.4776,-2.5182,-2.5461,-2.5548,-2.6022,-2.631,-2.6379,-2.6787,-2.7162,-2.7513,-2.8602,-2.9392,-2.9935,-3.0838,-3.1309,-3.1596,-3.2882,-3.3525,-3.3829,-3.5115,-3.596,-3.6552,-3.7313,-3.8058,-3.8802,-3.9529,-3.9918,-4.007,-4.007,-4.007,-4.007,-4.007,-4.007,-4.007,-3.9833,-3.9782,-3.961,-3.8799,-3.8019,-3.7322,-3.6722,-3.6054,-3.5504,-3.5504,-3.5504,-3.5733,-3.6446,-3.6615,-3.6722,-3.7188,-3.6461,-3.5879,-3.6275,-3.6508,-3.6904,-3.7706,-3.8469,-3.9193,-4.002,-4.007,-4.046,-4.1424,-4.1752,-4.1982,-4.2136,-4.1259,-4.069,-4.069,-3.9864,-3.9514,-3.9694,-3.9694,-3.9768,-3.9963,-3.9963,-3.9963,-3.9948,-3.9589,-3.9424,0.0,0.0,0.0,-3.2797,0.0,0.0,0.0,0.0,-3.0577,0.0,0.0,0.0,0.0,0.0,0.0,-2.437,0.0,0.0,0.0,0.0,0.0,0.0,0.0,0.0,0.0,0.0,0.0,-2.0775,-2.1389,-2.2074,-2.272,-2.3191,-2.3523,-2.3666,-2.5182,-2.5237,-2.3711,-2.5352,-2.6319,-2.6492,-2.5909,-2.7254,-3.0168,-2.8957,-2.9435,-3.1151,-3.119,-3.1596,-3.2307,-3.3085,-3.3829,-3.4539,-3.5318,-3.5639,-3.5757,-3.6535,-3.7297,-3.8041,-3.8768,-3.9478,-4.007,-4.007,-4.007,-4.007,-4.007,-4.007,-3.9952,-3.9139,-3.8908,-3.8745,-3.8035,-3.7263,-3.66,-3.6615,-3.6054,-3.5504,-3.5504,-3.5504,-3.5733,-3.6446,-3.6615,-3.7068,-3.8564,-3.7584,-3.6337,-3.5604,-3.6165,-3.6904,-3.7706,-3.8469,-3.9193,-4.002,-4.007,-4.0679,-4.2134,-4.1494,-4.1341,-4.1933,-4.1198,-4.069,-4.069,-3.9864,-3.9723,-4.0352,-4.0367,-4.0681,-4.1324,-4.1324,-4.1324,-4.128,-4.0008,-3.9424,0.0,0.0,-3.3733,-3.3458,0.0,0.0,0.0,0.0,0.0,0.0,0.0,0.0,0.0,0.0,-2.5726,-2.4425,-2.3172,0.0,0.0,0.0,0.0,0.0,0.0,0.0,0.0,0.0,0.0,-2.0034,-2.0662,-2.1141,0.0,-2.2375,-2.2949,-2.2981,-2.3943,-2.4158,-2.3595,-2.4192,-2.4933,-2.5854,-2.5697,-2.6795,-2.9032,-2.9058,-2.9621,-3.0617,-3.1015,-3.1613,-3.2341,-3.3102,-3.3829,-3.4573,-3.5318,-3.5622,-3.5723,-3.6485,-3.7263,-3.8091,-3.9292,-3.9868,-4.007,-4.007,-4.007,-4.007,-4.007,-3.9731,-3.9262,-3.8962,-3.8525,-3.7962,-3.7203,-3.6783,-3.6508,-3.6006,-3.5668,-3.5504,-3.5504,-3.5504,-3.5733,-3.6446,-3.7024,-3.7557,-3.8076,-3.8117,-3.806,-3.7774,-3.793,-3.823,-3.8469,-3.9209,-3.9782,-4.007,-4.007,-4.0104,-4.0067,-3.964,-3.9929,-4.1068,-4.0309,-3.9864,-3.9864,-3.9538,-3.9723,-4.0382,-4.0397,-4.0726,-4.1384,-4.0935,-4.095,-4.1354,-4.0472,-4.0307,-3.3807,-3.3807,0.0,-3.3807,-3.3421,0.0,-3.3036,0.0,0.0,0.0,0.0,0.0,0.0,0.0,0.0,-2.4746,-2.3535,-2.2473,0.0,-2.1332,0.0,0.0,0.0,0.0,0.0,0.0,-1.969,-1.969,-2.0094,-2.0453,0.0,0.0,-2.2428,-2.2709,-2.3477,-2.3794,-2.3595,-2.3794,-2.4426,-2.5512,-2.5591,-2.6671,-2.8735,-2.9203,-2.9865,-3.0658,-3.1015,-3.1765,-3.2713,-3.3203,-3.3998,-3.4945,-3.5419,-3.5622,-3.5673,-3.618,-3.7026,-3.8125,-3.958,-4.007,-4.007,-4.007,-4.007,-4.007,-4.007,-3.9558,-3.8854,-3.858,-3.7962,-3.7219,-3.6399,-3.6228,-3.6117,-3.5619,-3.5504,-3.5504,-3.5504,-3.5504,-3.5604,-3.6117,-3.7055,-3.7822,-3.7822,-3.8652,-3.9139,-3.858,-3.8745,-3.8908,-3.8908,-3.961,-4.007,-4.007,-4.007,-3.988,-3.9243,-3.9046,-3.9329,-4.0178,-3.9737,-3.9424,-3.9424,-3.9649,-4.0083,-4.0726,-4.0756,-4.107,-4.1728,-4.1309,-4.1309,-4.1728,-4.1534,-4.1669]}]]